[[{"header":{"parameterUnit":"m.s-1","parameterCategory":1,"la1":30.6,"la2":28.766,"lo1":-90.7593,"lo2":-88.6598,"dy":0.0162,"dx":0.0183,"nx":116,"ny":114,"refTime":"2023-08-10T06:00:00:Z","depth":0,"parameterNumber":2,"parameterNumberName":"U-component_of_WINDS"},"data":[0.0,0.0,0.0,0.0,0.0,0.0,0.0,0.0,0.0,0.0,0.0,0.0,0.0,0.0,0.0,0.0,0.0,0.0,0.0,0.0,0.0,0.0,0.0,0.0,0.0,0.0,0.0,0.0,0.0,0.0,0.0,0.0,0.0,0.0,0.0,0.0,0.0,0.0,0.0,0.0,0.0,0.0,0.0,0.0,0.0,0.0,0.0,0.0,0.0,0.0,0.0,0.0,0.0,0.0,0.0,0.0,0.0,0.0,0.0,0.0,0.0,0.0,0.0,0.0,0.0,0.0,0.0,0.0,0.0,0.0,0.0,0.0,0.0,0.0,0.0,0.0,0.0,0.0,0.0,0.0,0.0,0.0,0.0,0.0,0.0,0.0,0.0,0.0,0.0,0.0,0.0,0.0,0.0,0.0,0.0,0.0,0.0,0.0,0.0,0.0,0.0,0.0,0.0,0.0,0.0,0.0,0.0,0.0,0.0,0.0,0.0,0.0,0.0,0.0,0.0,0.0,0.0,0.0,0.0,0.0,0.0,0.0,0.0,0.0,0.0,0.0,0.0,0.0,0.0,0.0,0.0,0.0,0.0,0.0,0.0,0.0,0.0,0.0,0.0,0.0,0.0,0.0,0.0,0.0,0.0,0.0,0.0,0.0,0.0,0.0,0.0,0.0,0.0,0.0,0.0,0.0,0.0,0.0,0.0,0.0,0.0,0.0,0.0,0.0,0.0,0.0,0.0,0.0,0.0,0.0,0.0,0.0,0.0,0.0,0.0,0.0,0.0,0.0,0.0,0.0,0.0,0.0,0.0,0.0,0.0,0.0,0.0,0.0,0.0,0.0,0.0,0.0,0.0,0.0,0.0,0.0,0.0,0.0,0.0,0.0,0.0,0.0,0.0,0.0,0.0,0.0,0.0,0.0,0.0,0.0,0.0,0.0,0.0,0.0,0.0,0.0,0.0,0.0,0.0,0.0,0.0,0.0,0.0,0.0,0.0,0.0,0.0,0.0,0.0,0.0,0.0,0.0,0.0,0.0,0.0,0.0,0.0,0.0,0.0,0.0,0.0,0.0,0.0,0.0,0.0,0.0,0.0,0.0,0.0,0.0,0.0,0.0,0.0,0.0,0.0,0.0,0.0,0.0,0.0,0.0,0.0,0.0,0.0,0.0,0.0,0.0,0.0,0.0,0.0,0.0,0.0,0.0,0.0,0.0,0.0,0.0,0.0,0.0,0.0,0.0,0.0,0.0,0.0,0.0,0.0,0.0,0.0,0.0,0.0,0.0,0.0,0.0,0.0,0.0,0.0,0.0,0.0,0.0,0.0,0.0,0.0,0.0,0.0,0.0,0.0,0.0,0.0,0.0,0.0,0.0,0.0,0.0,0.0,0.0,0.0,0.0,0.0,0.0,0.0,0.0,0.0,0.0,0.0,0.0,0.0,0.0,0.0,0.0,0.0,0.0,0.0,0.0,0.0,0.0,0.0,0.0,0.0,0.0,0.0,0.0,0.0,0.0,0.0,0.0,0.0,0.0,0.0,0.0,0.0,0.0,0.0,0.0,0.0,0.0,0.0,0.0,0.0,0.0,0.0,0.0,0.0,0.0,0.0,0.0,0.0,0.0,0.0,0.0,0.0,0.0,0.0,0.0,0.0,0.0,0.0,0.0,0.0,0.0,0.0,0.0,0.0,0.0,0.0,0.0,0.0,0.0,0.0,0.0,0.0,0.0,0.0,0.0,0.0,0.0,0.0,0.0,0.0,0.0,0.0,0.0,0.0,0.0,0.0,0.0,0.0,0.0,0.0,0.0,0.0,0.0,0.0,0.0,0.0,0.0,0.0,0.0,0.0,0.0,0.0,0.0,0.0,0.0,0.0,0.0,0.0,0.0,0.0,0.0,0.0,0.0,0.0,0.0,0.0,0.0,0.0,0.0,0.0,0.0,0.0,0.0,0.0,0.0,0.0,0.0,0.0,0.0,0.0,0.0,0.0,0.0,0.0,0.0,0.0,0.0,0.0,0.0,0.0,0.0,0.0,0.0,0.0,0.0,0.0,0.0,0.0,0.0,0.0,0.0,0.0,0.0,0.0,0.0,0.0,0.0,0.0,0.0,0.0,0.0,0.0,0.0,0.0,0.0,0.0,0.0,0.0,0.0,0.0,0.0,0.0,0.0,0.0,0.0,0.0,0.0,0.0,0.0,0.0,0.0,0.0,0.0,0.0,0.0,0.0,0.0,0.0,0.0,0.0,0.0,0.0,0.0,0.0,0.0,0.0,0.0,0.0,0.0,0.0,0.0,0.0,0.0,0.0,0.0,0.0,0.0,0.0,0.0,0.0,0.0,0.0,0.0,0.0,0.0,0.0,0.0,0.0,0.0,0.0,0.0,0.0,0.0,0.0,0.0,0.0,0.0,0.0,0.0,0.0,0.0,0.0,0.0,0.0,0.0,0.0,0.0,0.0,0.0,0.0,0.0,0.0,0.0,0.0,0.0,0.0,0.0,0.0,0.0,0.0,0.0,0.0,0.0,0.0,0.0,0.0,0.0,0.0,0.0,0.0,0.0,0.0,0.0,0.0,0.0,0.0,0.0,0.0,0.0,0.0,0.0,0.0,0.0,0.0,0.0,0.0,0.0,0.0,0.0,0.0,0.0,0.0,0.0,0.0,0.0,0.0,0.0,0.0,0.0,0.0,0.0,0.0,0.0,0.0,0.0,0.0,0.0,0.0,0.0,0.0,0.0,0.0,0.0,0.0,0.0,0.0,0.0,0.0,0.0,0.0,0.0,0.0,0.0,0.0,0.0,0.0,0.0,0.0,0.0,0.0,0.0,0.0,0.0,0.0,0.0,0.0,0.0,0.0,0.0,0.0,0.0,0.0,0.0,0.0,0.0,0.0,0.0,0.0,0.0,0.0,0.0,0.0,0.0,0.0,0.0,0.0,0.0,0.0,0.0,0.0,0.0,0.0,0.0,0.0,0.0,0.0,0.0,0.0,0.0,0.0,0.0,0.0,0.0,0.0,0.0,0.0,0.0,0.0,0.0,0.0,0.0,0.0,0.0,0.0,0.0,0.0,0.0,0.0,0.0,0.0,0.0,0.0,0.0,0.0,0.0,0.0,0.0,0.0,0.0,0.0,0.0,0.0,0.0,0.0,0.0,0.0,0.0,0.0,0.0,0.0,0.0,0.0,0.0,0.0,0.0,0.0,0.0,0.0,0.0,0.0,0.0,0.0,0.0,0.0,0.0,0.0,0.0,0.0,0.0,0.0,0.0,0.0,0.0,0.0,0.0,0.0,0.0,0.0,0.0,0.0,0.0,0.0,0.0,0.0,0.0,0.0,0.0,0.0,0.0,0.0,0.0,0.0,0.0,0.0,0.0,0.0,0.0,0.0,0.0,0.0,0.0,0.0,0.0,0.0,0.0,0.0,0.0,0.0,0.0,0.0,0.0,0.0,0.0,0.0,0.0,0.0,0.0,0.0,0.0,0.0,0.0,0.0,0.0,0.0,0.0,0.0,0.0,0.0,0.0,0.0,0.0,0.0,0.0,0.0,0.0,0.0,0.0,0.0,0.0,0.0,0.0,0.0,0.0,0.0,0.0,0.0,0.0,0.0,0.0,0.0,0.0,0.0,0.0,0.0,0.0,0.0,0.0,0.0,0.0,0.0,0.0,0.0,0.0,0.0,0.0,0.0,0.0,0.0,0.0,0.0,0.0,0.0,0.0,0.0,0.0,0.0,0.0,0.0,0.0,0.0,0.0,0.0,0.0,0.0,0.0,0.0,0.0,0.0,0.0,0.0,0.0,0.0,0.0,0.0,0.0,0.0,0.0,0.0,0.0,0.0,0.0,0.0,0.0,0.0,0.0,0.0,0.0,0.0,0.0,0.0,0.0,0.0,0.0,0.0,0.0,0.0,0.0,0.0,0.0,0.0,0.0,0.0,0.0,0.0,0.0,0.0,0.0,0.0,0.0,0.0,0.0,0.0,0.0,0.0,0.0,0.0,0.0,0.0,0.0,0.0,0.0,0.0,0.0,0.0,0.0,0.0,0.0,0.0,0.0,0.0,0.0,0.0,0.0,0.0,0.0,0.0,0.0,0.0,0.0,0.0,0.0,0.0,0.0,0.0,0.0,0.0,0.0,0.0,0.0,0.0,0.0,0.0,0.0,0.0,0.0,0.0,0.0,0.0,0.0,0.0,0.0,0.0,0.0,0.0,0.0,0.0,0.0,0.0,0.0,0.0,0.0,0.0,0.0,0.0,0.0,0.0,0.0,0.0,0.0,0.0,0.0,0.0,0.0,0.0,0.0,0.0,0.0,0.0,0.0,0.0,0.0,0.0,0.0,0.0,0.0,0.0,0.0,0.0,0.0,0.0,0.0,0.0,0.0,0.0,0.0,0.0,0.0,0.0,0.0,0.0,0.0,0.0,0.0,0.0,0.0,0.0,0.0,0.0,0.0,0.0,0.0,0.0,0.0,0.0,0.0,0.0,0.0,0.0,0.0,0.0,0.0,0.0,0.0,0.0,0.0,0.0,0.0,0.0,0.0,0.0,0.0,0.0,0.0,0.0,0.0,0.0,0.0,0.0,0.0,0.0,0.0,0.0,0.0,0.0,0.0,0.0,0.0,0.0,0.0,0.0,0.0,0.0,0.0,0.0,0.0,0.0,0.0,0.0,0.0,0.0,0.0,0.0,0.0,0.0,0.0,0.0,0.0,0.0,0.0,0.0,0.0,0.0,0.0,0.0,0.0,0.0,0.0,0.0,0.0,0.0,0.0,0.0,0.0,0.0,0.0,0.0,0.0,0.0,0.0,0.0,0.0,0.0,0.0,0.0,0.0,0.0,0.0,0.0,0.0,0.0,0.0,0.0,0.0,0.0,0.0,0.0,0.0,0.0,0.0,0.0,0.0,0.0,0.0,0.0,0.0,0.0,0.0,0.0,0.0,0.0,0.0,0.0,0.0,0.0,0.0,0.0,0.0,0.0,0.0,0.0,0.0,0.0,0.0,0.0,0.0,0.0,0.0,0.0,0.0,0.0,0.0,0.0,0.0,0.0,0.0,0.0,0.0,0.0,0.0,0.0,0.0,0.0,0.0,0.0,0.0,0.0,0.0,0.0,0.0,0.0,0.0,0.0,0.0,0.0,0.0,0.0,0.0,0.0,0.0,0.0,0.0,0.0,0.0,0.0,0.0,0.0,0.0,0.0,0.0,0.0,0.0,0.0,0.0,0.0,0.0,0.0,0.0,0.0,0.0,0.0,0.0,0.0,0.0,0.0,0.0,0.0,0.0,0.0,0.0,0.0,0.0,0.0,0.0,0.0,0.0,0.0,0.0,0.0,0.0,0.0,0.0,0.0,0.0,0.0,0.0,0.0,0.0,0.0,0.0,0.0,0.0,0.0,0.0,0.0,0.0,0.0,0.0,0.0,0.0,0.0,0.0,0.0,0.0,0.0,0.0,0.0,0.0,0.0,0.0,0.0,0.0,0.0,0.0,0.0,0.0,0.0,0.0,0.0,0.0,0.0,0.0,0.0,0.0,0.0,0.0,0.0,0.0,0.0,0.0,0.0,0.0,0.0,0.0,0.0,0.0,0.0,0.0,0.0,0.0,0.0,0.0,0.0,0.0,0.0,0.0,0.0,0.0,0.0,0.0,0.0,0.0,0.0,0.0,0.0,0.0,0.0,0.0,0.0,0.0,0.0,0.0,0.0,0.0,0.0,0.0,0.0,0.0,0.0,0.0,0.0,0.0,0.0,0.0,0.0,0.0,0.0,0.0,0.0,0.0,0.0,0.0,0.0,0.0,0.0,0.0,0.0,0.0,0.0,0.0,0.0,0.0,0.0,0.0,0.0,0.0,0.0,0.0,0.0,0.0,0.0,0.0,0.0,0.0,0.0,0.0,0.0,0.0,0.0,0.0,0.0,0.0,0.0,0.0,0.0,0.0,0.0,0.0,0.0,0.0,0.0,0.0,0.0,0.0,0.0,0.0,0.0,0.0,0.0,0.0,0.0,0.0,0.0,0.0,0.0,0.0,0.0,0.0,0.0,0.0,0.0,0.0,0.0,0.0,0.0,0.0,0.0,0.0,0.0,0.0,0.0,0.0,0.0,0.0,-4.0517,0.0,0.0,0.0,0.0,0.0,0.0,0.0,0.0,0.0,0.0,0.0,0.0,0.0,0.0,0.0,0.0,0.0,0.0,0.0,0.0,0.0,0.0,0.0,0.0,0.0,0.0,0.0,0.0,0.0,0.0,0.0,0.0,0.0,0.0,0.0,0.0,0.0,0.0,0.0,0.0,0.0,0.0,0.0,0.0,0.0,0.0,0.0,0.0,0.0,0.0,0.0,0.0,0.0,0.0,0.0,0.0,0.0,0.0,0.0,0.0,0.0,0.0,0.0,0.0,0.0,0.0,0.0,0.0,0.0,0.0,0.0,0.0,0.0,0.0,0.0,0.0,0.0,0.0,0.0,0.0,0.0,0.0,0.0,0.0,0.0,0.0,0.0,0.0,0.0,0.0,0.0,0.0,0.0,0.0,0.0,0.0,0.0,0.0,0.0,0.0,0.0,0.0,0.0,0.0,0.0,0.0,0.0,0.0,0.0,0.0,0.0,0.0,0.0,0.0,0.0,0.0,-4.1083,0.0,0.0,0.0,0.0,0.0,0.0,0.0,0.0,0.0,0.0,0.0,0.0,0.0,0.0,0.0,0.0,0.0,0.0,0.0,0.0,0.0,0.0,0.0,0.0,0.0,0.0,0.0,0.0,0.0,0.0,0.0,0.0,0.0,0.0,0.0,0.0,0.0,0.0,0.0,0.0,0.0,0.0,0.0,0.0,0.0,0.0,0.0,0.0,0.0,0.0,0.0,0.0,0.0,0.0,0.0,0.0,0.0,0.0,0.0,0.0,0.0,0.0,0.0,0.0,0.0,0.0,0.0,0.0,0.0,0.0,0.0,0.0,0.0,0.0,0.0,0.0,0.0,0.0,0.0,0.0,0.0,0.0,0.0,0.0,0.0,0.0,0.0,0.0,0.0,0.0,0.0,0.0,0.0,0.0,0.0,0.0,0.0,0.0,0.0,0.0,0.0,0.0,0.0,0.0,0.0,0.0,0.0,0.0,-4.7614,-4.8123,-4.864,-4.7784,-4.7078,-4.651,-4.4896,-4.4059,-4.3722,0.0,0.0,0.0,0.0,0.0,0.0,0.0,0.0,0.0,0.0,0.0,0.0,0.0,0.0,0.0,0.0,0.0,0.0,0.0,0.0,0.0,0.0,0.0,0.0,0.0,0.0,0.0,0.0,0.0,0.0,0.0,0.0,0.0,0.0,0.0,0.0,0.0,0.0,0.0,-3.3266,-3.4677,-3.4829,-3.3868,0.0,0.0,0.0,0.0,0.0,0.0,0.0,0.0,0.0,0.0,0.0,0.0,0.0,0.0,0.0,0.0,0.0,0.0,0.0,0.0,0.0,0.0,0.0,0.0,0.0,0.0,0.0,0.0,0.0,0.0,0.0,0.0,0.0,0.0,0.0,0.0,0.0,0.0,0.0,0.0,0.0,0.0,0.0,0.0,-3.569,-3.7902,0.0,0.0,0.0,0.0,0.0,0.0,0.0,0.0,0.0,0.0,0.0,0.0,0.0,-4.482,-4.513,-4.7769,-4.9252,-4.9579,-5.1563,-5.2536,-5.2568,-5.123,-5.0557,-5.0347,-4.8266,0.0,-4.4559,-4.4275,0.0,0.0,0.0,0.0,0.0,0.0,0.0,0.0,0.0,0.0,0.0,0.0,0.0,0.0,0.0,0.0,0.0,0.0,0.0,0.0,0.0,0.0,0.0,0.0,0.0,0.0,0.0,0.0,0.0,0.0,0.0,0.0,0.0,0.0,0.0,0.0,-3.3327,-3.4637,-3.4769,-3.5663,-3.5208,-3.3671,-3.3836,-3.3161,-3.1798,-3.1725,0.0,0.0,0.0,0.0,0.0,0.0,0.0,0.0,0.0,0.0,0.0,0.0,0.0,0.0,0.0,0.0,0.0,0.0,0.0,0.0,0.0,0.0,0.0,0.0,0.0,0.0,0.0,0.0,0.0,0.0,0.0,0.0,0.0,0.0,0.0,0.0,0.0,0.0,0.0,-3.4895,-3.7462,-3.7313,-3.7916,-3.7872,0.0,0.0,0.0,0.0,0.0,0.0,0.0,0.0,0.0,-4.5665,-4.6769,-4.7958,-4.9235,-5.058,-5.1683,-5.2546,-5.3132,-5.3633,-5.3966,-5.2034,-5.0971,-5.0445,-4.8512,-4.7188,-4.626,-4.5063,-4.363,-4.2086,0.0,0.0,0.0,0.0,0.0,-3.9508,0.0,0.0,0.0,0.0,0.0,0.0,0.0,0.0,0.0,0.0,0.0,0.0,0.0,0.0,0.0,0.0,0.0,0.0,0.0,0.0,0.0,0.0,0.0,0.0,0.0,0.0,0.0,0.0,-3.4776,-3.5659,-3.5599,-3.5756,-3.5048,-3.3556,-3.3864,-3.3217,-3.1931,-3.2176,-3.0399,0.0,0.0,0.0,0.0,0.0,0.0,0.0,0.0,0.0,0.0,0.0,0.0,0.0,0.0,0.0,0.0,0.0,0.0,0.0,0.0,0.0,0.0,0.0,0.0,0.0,0.0,0.0,0.0,0.0,0.0,0.0,0.0,0.0,0.0,0.0,0.0,0.0,0.0,-3.7297,-3.9459,-3.7575,-3.972,-4.0449,0.0,0.0,0.0,0.0,0.0,0.0,-4.3699,-4.482,-4.6493,-4.8786,-4.9597,-5.0804,-5.2511,-5.2701,-5.3287,-5.4218,-5.3444,-5.3314,-5.3568,-5.1373,-5.0042,-4.9345,-4.7759,-4.7054,-4.6884,-4.5457,-4.436,-4.3467,-4.2037,-4.1299,-4.0919,-4.0628,-4.073,-4.1133,0.0,0.0,0.0,0.0,0.0,0.0,0.0,0.0,0.0,0.0,0.0,0.0,0.0,0.0,0.0,0.0,0.0,0.0,0.0,0.0,0.0,0.0,0.0,0.0,0.0,0.0,0.0,-3.3184,-3.3881,-3.4481,-3.5036,-3.4811,-3.4735,-3.4747,-3.3256,-3.2124,-3.126,-3.1258,-2.9489,-2.657,0.0,0.0,0.0,0.0,0.0,0.0,0.0,0.0,0.0,0.0,0.0,0.0,0.0,0.0,0.0,0.0,0.0,0.0,0.0,0.0,0.0,0.0,0.0,0.0,0.0,0.0,0.0,0.0,0.0,0.0,0.0,0.0,0.0,0.0,0.0,0.0,0.0,0.0,0.0,-4.1274,-4.4511,0.0,0.0,0.0,0.0,-4.394,-4.4096,-4.5423,-4.8321,-4.8545,-4.9631,-5.1925,-5.2753,-5.3218,-5.3339,-5.4046,-5.408,-5.346,-5.2708,-5.1993,-5.1268,-4.917,-4.801,-4.7748,-4.6244,-4.5477,-4.536,-4.5875,-4.5298,-4.4003,-4.3285,-4.2101,-4.0768,-4.0117,-4.0569,-4.1463,0.0,0.0,0.0,0.0,0.0,0.0,0.0,0.0,0.0,0.0,0.0,0.0,0.0,0.0,0.0,0.0,0.0,0.0,0.0,0.0,0.0,0.0,0.0,0.0,0.0,0.0,-3.2542,-3.3468,-3.402,-3.4024,-3.3522,-3.3305,-3.2373,-3.0929,-3.1007,-3.0092,-2.8537,-3.0127,-2.8855,-2.5701,-2.5373,-2.3778,0.0,0.0,0.0,0.0,0.0,0.0,0.0,0.0,0.0,0.0,0.0,0.0,0.0,0.0,0.0,0.0,0.0,0.0,0.0,0.0,0.0,0.0,0.0,0.0,0.0,0.0,0.0,0.0,0.0,0.0,0.0,0.0,0.0,0.0,0.0,0.0,0.0,-4.3634,-4.6556,0.0,-4.5346,-4.5696,-4.6199,-4.6475,-4.7855,-4.8941,-4.9545,-5.0976,-5.1683,-5.1511,-5.3201,-5.3632,-5.2649,-5.3408,-5.3186,-5.1958,-5.1257,-5.0736,-5.041,-4.8609,-4.7755,-4.7596,-4.6296,-4.5444,-4.498,-4.5137,-4.4951,-4.4561,-4.4239,-4.3704,-4.3137,-4.2458,-4.252,-4.2833,0.0,0.0,0.0,0.0,0.0,0.0,0.0,0.0,0.0,0.0,0.0,0.0,0.0,0.0,0.0,0.0,0.0,0.0,0.0,0.0,0.0,0.0,0.0,0.0,0.0,-3.2095,-3.2474,-3.2854,-3.3165,0.0,0.0,0.0,0.0,0.0,0.0,0.0,-2.6283,-2.7829,-2.714,-2.4972,-2.4577,-2.3092,-2.1081,0.0,0.0,0.0,0.0,0.0,0.0,0.0,0.0,0.0,0.0,0.0,0.0,0.0,0.0,0.0,0.0,0.0,0.0,0.0,0.0,0.0,0.0,0.0,0.0,0.0,0.0,0.0,0.0,0.0,0.0,0.0,0.0,0.0,0.0,0.0,-4.5947,-4.4517,-4.7979,-4.9564,-4.7317,-4.8323,-4.9281,-4.9614,-5.0787,-5.139,-5.1166,-5.258,-5.2822,-5.1528,-5.3201,-5.3529,-5.2235,-5.2533,-5.205,-5.0824,-4.9804,-4.9144,-4.8852,-4.7452,-4.6773,-4.6684,-4.5903,-4.5292,-4.4799,-4.4648,-4.4524,-4.4458,-4.4308,-4.4233,-4.4125,-4.3233,-4.3048,-4.3159,0.0,0.0,0.0,0.0,0.0,0.0,0.0,0.0,0.0,0.0,0.0,0.0,0.0,0.0,0.0,0.0,0.0,0.0,0.0,0.0,0.0,0.0,0.0,0.0,-3.1796,-3.1576,-3.1405,0.0,0.0,0.0,0.0,0.0,0.0,0.0,0.0,0.0,0.0,0.0,-2.4249,-2.4161,-2.3017,-2.145,-1.9812,0.0,0.0,0.0,0.0,0.0,0.0,0.0,0.0,0.0,0.0,0.0,0.0,0.0,0.0,0.0,0.0,0.0,0.0,0.0,0.0,0.0,0.0,0.0,0.0,0.0,0.0,0.0,0.0,0.0,0.0,0.0,0.0,0.0,-4.0307,-4.4671,-4.687,-4.4211,-4.8999,-5.1583,-4.9032,-5.0755,-5.2413,-5.3373,-5.2701,-5.2597,-5.3356,-5.3391,-5.2994,-5.2201,-5.2942,-5.2977,-5.2166,-5.1498,-5.079,-4.9999,-4.8387,-4.721,-4.6448,-4.5614,-4.5055,-4.4874,-4.4843,-4.4768,-4.4541,-4.4526,-4.4125,-4.3541,-4.3556,-4.3556,-4.3387,-4.2078,-4.2001,-4.2218,0.0,0.0,0.0,0.0,0.0,0.0,0.0,0.0,0.0,0.0,0.0,0.0,0.0,0.0,0.0,0.0,0.0,0.0,0.0,0.0,0.0,0.0,0.0,0.0,-3.0088,-2.9977,0.0,0.0,0.0,0.0,0.0,0.0,0.0,0.0,0.0,0.0,0.0,0.0,0.0,0.0,-2.1754,-2.1183,-1.9932,0.0,0.0,0.0,0.0,0.0,0.0,0.0,0.0,0.0,0.0,0.0,0.0,0.0,0.0,0.0,0.0,0.0,0.0,0.0,0.0,0.0,0.0,0.0,0.0,0.0,0.0,0.0,0.0,0.0,0.0,0.0,0.0,-4.3053,-4.3115,-4.5765,-4.8253,-4.9712,-5.1053,-5.2166,-5.3014,-5.2929,-5.3107,-5.3943,-5.3432,-5.3166,-5.3391,-5.2856,-5.2201,-5.1442,-5.2149,-5.1925,-5.0631,-5.0475,-4.9695,-4.8297,-4.7293,-4.639,-4.5541,-4.5173,-4.4964,-4.4843,-4.4198,-4.3923,-4.3818,-4.334,-4.3048,-4.2925,-4.3387,-4.3279,-4.2771,-4.1925,-4.1,-3.9873,0.0,0.0,0.0,0.0,0.0,0.0,0.0,0.0,0.0,0.0,0.0,0.0,0.0,0.0,0.0,0.0,0.0,0.0,0.0,0.0,0.0,0.0,0.0,-2.8981,-2.8901,0.0,0.0,0.0,0.0,0.0,0.0,0.0,0.0,0.0,0.0,0.0,0.0,0.0,0.0,0.0,0.0,-1.9709,-1.8985,-1.8731,-1.8272,-1.7843,-1.8542,-1.9356,-1.9976,-1.9911,0.0,0.0,0.0,0.0,0.0,0.0,0.0,0.0,0.0,0.0,0.0,0.0,0.0,0.0,0.0,0.0,0.0,0.0,0.0,0.0,0.0,0.0,0.0,0.0,-4.2219,-4.3964,-4.4499,-4.6639,-4.8798,-5.071,-5.0956,-5.1444,-5.2816,-5.2635,-5.2626,-5.3134,-5.2592,-5.2104,-5.1795,-5.1331,-5.0746,-5.0007,-5.0695,-5.0678,-4.9818,-4.9215,-4.8462,-4.744,-4.6378,-4.5567,-4.5039,-4.4595,-4.4381,0.0,-4.3522,-4.3171,-4.314,-4.2756,-4.236,0.0,0.0,0.0,0.0,0.0,-3.9207,-3.7728,0.0,0.0,0.0,0.0,0.0,0.0,0.0,0.0,0.0,0.0,0.0,0.0,0.0,0.0,0.0,0.0,0.0,0.0,0.0,0.0,0.0,0.0,-2.7573,-2.8008,-2.7908,0.0,0.0,0.0,0.0,0.0,0.0,0.0,0.0,0.0,0.0,0.0,0.0,0.0,0.0,0.0,0.0,0.0,-1.7509,-1.7704,-1.7063,-1.6299,-1.7892,-1.8843,-1.9354,-1.9808,0.0,0.0,0.0,0.0,0.0,0.0,0.0,0.0,0.0,0.0,0.0,0.0,0.0,0.0,0.0,0.0,0.0,0.0,0.0,0.0,0.0,0.0,0.0,0.0,-4.2725,-4.4009,-4.4997,-4.7021,-4.845,-4.8787,-4.9373,-4.9859,-5.0187,-5.0844,-5.1298,-5.1486,-5.0854,-5.0171,-4.9522,0.0,0.0,0.0,0.0,-4.9231,-4.9155,-4.7733,-4.6977,-4.691,-4.5388,-4.4657,-4.4626,-4.38,-4.3464,-4.3417,-4.2771,-4.2494,-4.2479,-4.2329,-4.1812,-4.0985,-4.0974,-4.0959,-4.0674,-3.8424,-3.6914,0.0,0.0,0.0,0.0,0.0,0.0,0.0,0.0,0.0,0.0,0.0,0.0,0.0,0.0,0.0,0.0,0.0,0.0,0.0,0.0,0.0,-2.6374,-2.5718,-2.6578,-2.6734,0.0,0.0,0.0,0.0,0.0,0.0,0.0,0.0,0.0,0.0,0.0,0.0,0.0,0.0,0.0,0.0,0.0,0.0,-1.6707,-1.6739,-1.6345,-1.5933,-1.6911,-1.7527,-1.8026,-1.8366,-1.978,-2.1237,-2.0925,0.0,0.0,0.0,0.0,0.0,0.0,0.0,0.0,0.0,0.0,0.0,0.0,0.0,0.0,0.0,0.0,0.0,0.0,0.0,0.0,-4.1681,-4.3092,-4.4509,-4.5701,-4.5757,-4.6213,-4.7787,-4.7501,-4.7747,-4.9103,-4.9542,-4.975,-4.975,-4.9718,-4.9624,-4.9488,-4.8401,0.0,-4.8401,-4.7974,-4.7486,-4.6945,-4.605,-4.5244,-4.4577,0.0,0.0,-4.306,-4.2848,-4.2802,-4.2756,-4.2078,-4.1715,-4.151,-4.0959,-4.0121,-3.9194,-3.9175,-3.8911,-3.8335,-3.6339,-3.4954,-3.3833,0.0,0.0,0.0,0.0,0.0,0.0,0.0,0.0,0.0,0.0,0.0,0.0,0.0,0.0,0.0,0.0,0.0,0.0,0.0,0.0,-2.5688,-2.5216,-2.5719,0.0,0.0,0.0,0.0,0.0,0.0,0.0,0.0,0.0,0.0,0.0,0.0,0.0,0.0,0.0,0.0,0.0,0.0,0.0,-1.3965,-1.4741,-1.5169,-1.5367,-1.6026,-1.6678,-1.7394,-1.787,-1.8995,-2.0226,-2.0537,-2.1517,-2.2604,0.0,0.0,0.0,0.0,0.0,0.0,0.0,0.0,0.0,0.0,0.0,0.0,0.0,0.0,-3.7371,0.0,0.0,-4.082,-4.2073,-4.3039,-4.3846,-4.4533,-4.439,-4.468,-4.579,-4.5857,-4.6051,-4.6498,-4.7385,-4.7868,-4.7868,-4.8065,-4.7971,-4.7614,-4.6884,-4.6646,-4.706,-4.6663,-4.6321,-4.6024,-4.5321,-4.4526,-4.3802,-4.3058,-4.2505,-4.2109,-4.2022,-4.1751,-4.1413,-4.102,-4.0726,-4.0593,-3.9838,-3.9213,-3.8547,-3.7346,-3.6705,-3.6316,-3.4657,-3.3498,-3.2506,0.0,0.0,0.0,0.0,0.0,0.0,0.0,0.0,0.0,0.0,0.0,0.0,0.0,0.0,0.0,0.0,0.0,0.0,0.0,-2.508,-2.4562,-2.3361,-2.3405,0.0,0.0,0.0,0.0,0.0,0.0,0.0,0.0,0.0,0.0,0.0,0.0,0.0,0.0,0.0,0.0,0.0,0.0,0.0,-1.0471,-1.1924,-1.3236,-1.438,-1.4888,-1.5672,-1.6473,-1.7214,-1.8089,-1.9136,-2.0052,-2.1214,-2.2174,-2.2034,-2.312,0.0,0.0,0.0,0.0,0.0,0.0,0.0,0.0,0.0,-3.4827,-3.6513,-3.7644,-3.8616,-3.9829,-4.0363,-4.1013,-4.2282,-4.2726,-4.2929,-4.2974,-4.318,-4.3346,-4.3431,-4.424,-4.4465,-4.3729,-4.5102,-4.5967,-4.5816,-4.622,-4.6186,-4.5402,-4.5368,-4.5368,-4.5368,-4.5368,-4.5252,-4.5036,-4.4447,-4.3792,-4.2956,-4.2386,-4.1781,-4.126,-4.1087,-4.071,-4.0191,-3.9859,-3.9652,-3.9501,-3.8732,-3.8361,-3.8042,-3.5769,-3.4843,-3.4542,-3.3295,-3.2355,-3.1588,0.0,0.0,0.0,0.0,0.0,0.0,0.0,0.0,0.0,0.0,0.0,0.0,0.0,0.0,0.0,0.0,0.0,0.0,0.0,-2.4847,-2.251,-1.7492,-1.7284,0.0,0.0,0.0,0.0,0.0,0.0,0.0,0.0,0.0,0.0,0.0,0.0,0.0,0.0,0.0,0.0,0.0,0.0,0.0,-0.7308,-0.8085,-0.9964,-1.2308,-1.3043,-1.3693,-1.4302,-1.5405,-1.6471,-1.7626,-1.9067,-1.9998,-2.0728,-2.1428,0.0,-2.3542,-2.3178,-2.4673,-2.6775,-2.8622,-3.0603,-3.2885,0.0,0.0,-3.8461,-3.9352,-4.0134,-4.0626,-4.0336,-4.081,-4.1399,-4.2077,-4.2174,-4.2302,-4.2585,-4.2358,-4.196,-4.1304,-4.2319,-4.2846,-4.2189,-4.3461,-4.4121,-4.3451,-4.4624,-4.5043,-4.4322,-4.4289,-4.4289,-4.4289,-4.4289,-4.3668,-4.243,-4.2366,-4.168,-4.042,-4.0365,-4.0264,-4.0188,-4.0188,-4.0071,-3.9965,-3.9219,-3.8476,-3.7933,-3.7623,-3.7195,-3.6552,-3.4924,-3.3916,-3.3268,-3.2324,-3.1585,-3.0999,0.0,0.0,0.0,0.0,0.0,0.0,0.0,0.0,0.0,0.0,0.0,0.0,0.0,0.0,0.0,0.0,0.0,0.0,-2.4716,-2.4556,-2.1912,-1.6184,-1.6057,-1.3443,-0.7709,0.0,0.0,0.0,0.0,0.0,0.0,0.0,0.0,0.0,0.0,0.0,0.0,0.0,0.0,0.0,0.0,0.0,-0.5217,-0.5563,-0.7313,-0.9767,-1.0409,-1.166,0.0,0.0,-1.467,-1.6054,-1.762,-1.8718,-1.9636,-2.1041,-2.2638,0.0,-2.5608,-2.7083,-2.8615,-3.0173,-3.1893,-3.3984,-3.6607,-3.7451,-3.8223,-3.9936,-4.0545,-4.0613,-4.0247,-4.0751,-4.1147,0.0,-4.1246,-4.1422,-4.1675,-4.1355,-4.088,-4.0196,-4.0925,-4.1527,-4.161,-4.2672,-4.3397,-4.353,-4.4156,-4.4415,-4.4114,-4.4097,-4.3896,-4.3461,-4.3444,-4.2617,-4.0876,-4.0876,-4.018,-3.8827,-3.9206,-3.8994,-3.8265,-3.8901,-3.8983,-3.8467,-3.8502,-3.8157,-3.7458,-3.703,-3.6716,-3.6365,-3.4878,-3.3788,-3.3044,-3.1822,-3.1196,-3.0895,0.0,0.0,0.0,0.0,0.0,0.0,0.0,0.0,0.0,0.0,0.0,0.0,0.0,0.0,0.0,0.0,0.0,0.0,0.0,-2.1706,-1.8212,-1.0668,-1.056,0.0,-0.2088,-0.2151,0.0,0.0,0.0,0.0,0.0,0.0,0.0,0.0,0.0,0.0,0.0,0.0,0.0,0.0,0.0,0.0,-0.2017,-0.3144,-0.5043,-0.7211,-0.8511,-1.0444,0.0,0.0,-1.3745,-1.5442,-1.693,-1.7968,-1.908,-2.073,-2.2633,-2.4577,-2.6745,-2.8256,-2.9572,-3.105,-3.2708,-3.448,-3.6426,-3.701,-3.7673,-3.9458,-3.997,-4.0019,-3.9738,-4.0535,-4.1081,-4.0625,-4.1008,-4.1387,-4.1211,-4.0797,-4.0329,-3.9699,-3.979,-4.0317,-4.1313,-4.2146,-4.2825,-4.349,-4.3823,-4.3981,-4.3981,-4.3781,-4.343,-4.2879,-4.2475,-4.1617,-4.0132,-3.9766,-3.9077,-3.808,-3.8447,-3.7948,-3.6889,-3.7722,-3.7751,-3.718,-3.7659,-3.7494,-3.6851,-3.6402,-3.6207,-3.6066,-3.4394,-3.3374,-3.2667,-3.097,-3.0533,-3.0647,0.0,0.0,0.0,0.0,0.0,0.0,0.0,0.0,0.0,0.0,0.0,0.0,0.0,0.0,0.0,0.0,0.0,0.0,0.0,-1.4985,-0.937,0.2592,0.2837,0.546,1.1275,1.1583,1.0967,0.0,0.0,0.0,0.0,0.0,0.0,0.0,0.0,0.0,0.0,0.0,0.0,0.0,0.0,0.0,0.3303,-0.0605,-0.3013,-0.4725,-0.7817,0.0,0.0,0.0,-1.4351,-1.6427,-1.7461,-1.828,0.0,-2.0634,-2.2322,-2.3882,-2.5149,-2.6807,-2.8712,-3.0649,-3.2737,-3.4654,-3.6148,-3.7128,-3.7714,-3.8007,-3.867,-3.9107,-3.8623,-4.0245,-4.1533,-4.1116,-4.2194,-4.2635,-4.1461,-4.0978,-4.0507,-4.0059,-3.9049,-3.9266,0.0,-4.1836,-4.215,-4.2493,-4.3214,-4.3628,-4.3628,-4.2949,-4.2551,-4.2518,-4.1269,-4.0524,-4.0372,-3.914,-3.8527,-3.8381,-3.776,-3.7105,-3.6492,-3.6522,-3.6537,-3.6522,-3.6537,-3.6178,-3.5564,-3.5549,-3.5534,-3.5329,-3.3058,-3.2123,-3.1847,-2.9626,-2.9318,-2.992,0.0,0.0,0.0,0.0,0.0,0.0,0.0,0.0,0.0,0.0,0.0,0.0,0.0,0.0,0.0,0.0,0.0,0.0,0.0,-1.3595,-0.7832,0.4091,0.4909,0.774,1.3388,1.3676,1.3664,1.3429,0.0,0.0,0.0,0.0,0.0,0.0,0.0,0.0,0.0,0.0,0.0,0.0,0.0,0.7623,0.5097,0.13,-0.2013,-0.5111,0.0,0.0,0.0,0.0,-1.3477,-1.5382,-1.6706,-1.7861,-1.9136,-2.1705,-2.3417,-2.4738,-2.598,-2.7896,-2.9734,-3.0438,-3.2294,-3.4057,-3.4555,-3.5425,-3.6534,-3.7791,-3.7873,-3.7792,-3.7975,-3.9074,-3.9753,-3.9317,-4.0518,-4.1232,-4.044,-4.0696,-4.0442,-3.8937,-3.978,0.0,0.0,0.0,0.0,-4.2472,-4.3026,-4.3295,-4.3295,-4.3065,-4.2489,-4.1551,-4.1007,-3.9919,-3.8081,-3.7883,-3.7359,-3.6461,-3.5669,-3.5145,-3.4966,-3.5332,-3.4999,-3.4228,-3.5548,-3.5251,-3.3858,-3.4317,-3.4243,-3.3735,-3.2493,-3.1734,-3.1074,-2.9522,-2.8778,-2.8582,0.0,0.0,0.0,0.0,0.0,0.0,0.0,0.0,0.0,0.0,0.0,0.0,0.0,0.0,0.0,0.0,0.0,0.0,0.0,0.0,-0.0834,0.9151,0.9798,1.173,1.5575,1.5636,1.5696,1.586,0.0,0.0,0.0,0.0,0.0,0.0,0.0,0.0,0.0,0.0,0.0,0.0,1.4969,1.0977,0.7433,0.2923,-0.1363,0.0,0.0,0.0,0.0,-1.3044,-1.4624,-1.6515,-1.7201,-1.8499,-2.0167,-2.222,-2.3936,-2.54,-2.646,-2.8181,-2.9798,-3.0294,-3.1501,-3.2586,-3.293,-3.3757,-3.4864,-3.6133,-3.6272,-3.6327,-3.6727,-3.7906,-3.8763,-3.8567,-3.9811,-4.0743,-4.0489,-4.075,-4.0605,-3.9608,-4.0464,-4.1091,0.0,0.0,0.0,-4.252,-4.3033,-4.3092,-4.257,-4.2293,-4.1738,-4.0825,-4.0339,-3.9328,-3.7824,-3.7387,-3.6536,-3.5279,-3.4228,-3.3917,-3.414,-3.3967,-3.3613,-3.3096,-3.4286,-3.4124,-3.3051,-3.3495,-3.3279,-3.2523,-3.1561,-3.0759,-2.997,-2.8569,-2.7786,-2.7411,0.0,0.0,0.0,0.0,0.0,0.0,0.0,0.0,0.0,0.0,0.0,0.0,0.0,0.0,0.0,0.0,0.0,0.0,0.0,0.0,0.0,1.7458,1.737,1.7517,1.82,1.7965,1.7653,1.7283,1.8659,0.0,0.0,0.0,0.0,0.0,0.0,0.0,0.0,0.0,2.4585,2.2036,1.7622,0.0,1.0034,0.3939,0.0,0.0,0.0,0.0,0.0,-1.609,-1.7531,-1.9674,-1.8926,-2.0261,-2.2066,-2.2391,-2.3955,-2.5786,-2.6491,-2.7586,-2.8823,-2.9933,-3.0291,-3.0597,-3.1419,-3.2243,-3.2874,-3.3161,-3.4045,-3.4718,0.0,0.0,-3.8571,-3.8867,-4.0054,-4.1124,-4.1627,-4.1121,-4.1039,0.0,0.0,0.0,0.0,0.0,0.0,-4.2443,0.0,-4.3055,-4.1695,-4.0934,-4.0529,-4.0496,-3.9189,-3.8746,-3.9289,-3.7559,-3.6013,-3.4817,-3.3593,-3.3299,-3.3785,-3.2547,-3.2311,-3.2871,-3.293,-3.293,-3.2871,-3.2901,-3.2494,-3.1725,-3.0211,-2.92,-2.8475,-2.7041,-2.6533,-2.6521,0.0,0.0,0.0,0.0,0.0,0.0,0.0,0.0,0.0,0.0,0.0,0.0,0.0,0.0,0.0,0.0,0.0,0.0,0.0,0.0,0.0,0.0,0.0,0.0,0.0,0.0,0.0,0.0,0.0,2.2101,2.2949,2.4452,0.0,0.0,0.0,0.0,0.0,2.7979,2.6433,2.3792,0.0,1.3883,0.8786,0.0,0.0,0.0,0.0,0.0,0.0,-1.8084,-1.9622,-2.2104,-2.1886,-2.2555,-2.3562,-2.4484,-2.5189,-2.5827,-2.6526,-2.7735,-2.8685,-2.8021,-2.9094,-3.0061,-2.9276,-3.0253,-3.1622,-3.2525,-3.2752,-3.3113,-3.4156,-3.5795,0.0,-3.738,-3.9368,0.0,-4.1141,-4.2038,0.0,-4.1837,0.0,-4.2703,-4.1739,-4.227,0.0,0.0,-4.2205,-4.235,-4.1997,-4.1307,-4.0681,-4.0135,-3.9249,-3.8404,-3.7613,-3.6519,-3.5115,-3.349,-3.3054,-3.242,-3.1628,-3.1638,-3.1474,-3.1287,-3.2203,-3.2072,-3.1273,-3.1693,-3.1205,-3.0122,-2.9164,-2.8396,-2.768,-2.6833,-2.6533,-2.6471,0.0,0.0,0.0,0.0,0.0,0.0,0.0,0.0,0.0,0.0,0.0,0.0,0.0,0.0,0.0,0.0,0.0,0.0,0.0,0.0,0.0,0.0,0.0,0.0,0.0,0.0,0.0,0.0,0.0,0.0,0.0,2.6481,2.8082,2.9214,3.0062,3.0018,2.9291,0.0,0.0,0.0,0.0,0.0,0.0,0.0,0.0,0.0,0.0,0.0,0.0,-2.2995,-2.3127,-2.3549,-2.4119,-2.4432,-2.4764,-2.5509,-2.6065,-2.6545,-2.6931,-2.7877,-2.8554,-2.779,-2.8536,-2.9143,-2.8181,-2.8945,-3.0016,-3.0609,-3.0965,-3.156,-3.2856,-3.4629,-3.6229,0.0,0.0,0.0,-4.1819,-4.2429,-4.2715,0.0,-4.3003,0.0,-4.182,-4.1846,-4.1741,0.0,-4.1978,-4.2057,-4.1437,-4.0801,-4.0227,-3.9768,-3.9068,-3.8286,-3.7297,-3.6285,-3.5183,-3.3957,-3.3387,-3.2538,-3.1562,-3.1482,-3.1177,-3.0611,0.0,-3.125,-3.0611,-3.0959,-3.0306,-2.9093,-2.8684,-2.792,-2.704,-2.6658,-2.6533,-2.6445,0.0,0.0,0.0,0.0,0.0,0.0,0.0,0.0,0.0,0.0,0.0,0.0,0.0,0.0,0.0,0.0,0.0,0.0,0.0,0.0,0.0,0.0,0.0,0.0,0.0,0.0,0.0,0.0,0.0,0.0,0.0,0.0,0.0,0.0,0.0,0.0,0.0,0.0,0.0,0.0,0.0,0.0,0.0,0.0,0.0,0.0,0.0,0.0,0.0,-2.8926,-2.72,-2.4847,-2.5952,-2.6138,-2.5908,-2.6075,-2.663,-2.7195,-2.7342,-2.775,-2.8119,-2.8011,-2.8073,-2.7997,-2.7396,-2.786,-2.8388,-2.8323,-2.9189,-3.029,-3.1399,-3.3472,-3.5505,-3.7011,0.0,-4.0024,-4.2555,-4.2442,-4.2375,-4.328,-4.3015,-4.2722,-4.2434,-4.1102,-4.0421,-4.097,-4.1884,-4.1797,-4.0514,-3.9756,-3.9329,-3.9234,-3.8681,-3.8105,-3.7482,-3.6364,-3.5537,-3.497,-3.3805,-3.2919,-3.2367,-3.17,-3.1105,-3.0568,0.0,0.0,-3.0568,-3.0568,-2.9856,-2.8634,-2.8556,-2.7736,-2.6589,-2.6521,-2.6533,-2.6433,0.0,0.0,0.0,0.0,0.0,0.0,0.0,0.0,0.0,0.0,-1.4014,-1.4143,0.0,0.0,0.0,0.0,0.0,0.0,0.0,0.0,0.0,0.0,0.0,0.0,0.0,0.0,0.0,0.0,0.0,0.0,0.0,0.0,0.0,0.0,0.0,0.0,0.0,0.0,0.0,0.0,0.0,0.0,0.0,0.0,0.0,0.0,0.0,0.0,0.0,0.0,-3.0415,-2.804,-2.8491,-2.804,-2.7386,-2.7648,-2.6948,-2.6213,-2.6518,-2.6688,-2.6595,-2.5995,-2.6303,-2.6549,-2.5841,-2.6533,-2.7379,-2.7508,-2.8755,-3.0005,-3.0526,-3.2471,-3.4355,-3.5508,-3.6848,-3.8606,-4.1098,-4.1732,-4.2265,0.0,-4.3255,-4.2819,-4.1664,-4.1402,0.0,0.0,0.0,-4.0384,-3.9708,-3.9044,-3.8428,-3.7844,-3.7717,-3.7185,-3.6207,-3.5489,-3.467,-3.3813,-3.2489,-3.1801,-3.1671,-3.1032,-3.0684,-3.0568,0.0,0.0,-3.0568,-3.0568,-3.0129,-2.9359,-2.8762,-2.8051,-2.7297,-2.6714,-2.6533,-2.6382,0.0,0.0,0.0,0.0,0.0,0.0,0.0,0.0,-1.426,-1.4344,-1.4185,-1.4485,-1.5648,-1.6918,0.0,0.0,0.0,0.0,0.0,0.0,0.0,0.0,0.0,0.0,0.0,0.0,1.5827,1.9111,0.0,0.0,0.0,0.0,0.0,0.0,0.0,0.0,0.0,0.0,0.0,0.0,0.0,0.0,0.0,0.0,0.0,0.0,0.0,0.0,0.0,0.0,-3.1791,-2.978,-3.0393,-2.9346,-2.7858,-2.7996,-2.731,-2.6551,-2.6941,-2.672,-2.6392,-2.624,-2.628,-2.6209,-2.5699,-2.6089,-2.6605,-2.6775,-2.784,-2.9003,-2.9875,-3.1781,-3.3772,-3.5487,-3.7067,-3.8891,-4.1336,-4.2135,-4.2495,-4.2644,-4.2736,-4.2112,-4.0263,-3.9901,-3.9412,0.0,0.0,-3.8168,-3.8918,-3.8002,-3.7101,-3.6421,-3.639,-3.6142,-3.5623,-3.506,-3.441,-3.3684,-3.2797,-3.2079,-3.1511,-3.1206,-3.0887,-3.0568,-3.0568,0.0,-3.0568,-3.0568,-3.019,-2.956,-2.8762,-2.8117,-2.7378,-2.6371,-2.6013,-2.5795,0.0,0.0,0.0,0.0,0.0,0.0,0.0,-1.4215,-1.4403,-1.4361,-1.4631,-1.5188,-1.6093,-1.7066,-1.8262,0.0,0.0,0.0,0.0,0.0,0.0,0.0,0.0,0.0,0.0,0.0,0.0,1.3531,1.5583,0.0,0.0,0.0,0.0,0.0,1.9126,0.0,0.0,0.0,0.0,0.0,0.0,0.0,0.0,0.0,0.0,0.0,0.0,0.0,-3.1765,-3.3268,-3.2334,-3.0755,-3.1617,-3.0321,-2.841,-2.8131,-2.7611,-2.7178,-2.7235,-2.6729,-2.6252,-2.6619,-2.6365,-2.5994,-2.5891,-2.5886,-2.6021,-2.6343,-2.7093,-2.8133,-2.9453,-3.1127,-3.3012,-3.5232,-3.6877,-3.8802,-4.1238,-4.2264,-4.256,-4.2156,-4.225,0.0,-3.9257,-3.8606,0.0,0.0,0.0,0.0,-3.7749,-3.6801,-3.5947,-3.541,-3.5394,-3.5322,-3.525,-3.455,-3.4084,-3.3744,-3.2987,-3.2232,-3.1526,-3.138,-3.1047,-3.0568,-3.0568,0.0,0.0,-3.0568,-3.019,-2.9484,-2.8698,-2.7906,-2.7037,-2.5883,-2.5336,-2.5033,0.0,0.0,0.0,0.0,0.0,0.0,0.0,-1.4788,-1.5204,-1.544,-1.5723,-1.6306,-1.7226,-1.7999,-1.8797,0.0,0.0,0.0,0.0,0.0,0.0,0.0,0.0,0.0,0.0,0.0,0.0,-0.0896,-0.0357,0.0,0.0,0.0,0.0,0.0,0.0,0.4245,0.4297,0.0,0.0,0.0,0.0,0.0,0.0,0.0,0.0,0.0,0.0,-3.2184,-3.3315,-3.3526,-3.2428,-3.1054,-3.1696,-3.0984,-2.968,-2.8506,-2.7981,-2.7498,-2.6438,-2.5852,-2.5583,-2.5621,-2.5313,-2.5156,-2.561,-2.548,-2.5508,-2.6333,-2.718,-2.8185,-2.9453,-3.0404,-3.1549,0.0,0.0,-3.6594,-3.9268,-4.0861,-4.1835,-4.2075,0.0,0.0,-3.9372,-3.9151,0.0,0.0,0.0,0.0,-3.5631,-3.5552,-3.5458,-3.5394,-3.5394,-3.5194,-3.469,-3.3683,-3.3155,-3.3255,-3.1599,-3.1078,-3.1496,-3.0916,-3.0626,-3.0568,0.0,0.0,0.0,-3.0568,-3.0129,-2.9233,-2.8505,-2.7393,-2.6165,-2.5436,-2.4858,-2.4353,0.0,0.0,0.0,0.0,0.0,0.0,0.0,-1.507,-1.5595,-1.5703,-1.5995,-1.6691,-1.7934,-1.8922,-1.9531,0.0,0.0,0.0,0.0,0.0,0.0,0.0,0.0,0.0,0.0,0.0,-0.8956,-0.562,-0.4533,0.0,0.0,0.0,0.0,0.0,0.0,-0.0748,-0.1381,0.0,0.0,0.0,0.0,0.0,0.0,0.0,0.0,0.0,0.0,0.0,-3.1603,-3.2201,-3.1541,-3.0491,-3.0615,-3.0567,-3.0191,-2.8793,-2.7857,-2.7195,-2.6825,-2.6457,-2.6113,-2.5914,-2.594,-2.6037,-2.6056,-2.5868,-2.5924,-2.6691,-2.7046,-2.7725,-2.945,-2.9654,-3.0501,0.0,0.0,0.0,-3.8183,-3.9849,-4.0694,-4.059,-4.0803,0.0,0.0,0.0,0.0,0.0,0.0,0.0,-3.4631,-3.4276,-3.413,-3.413,-3.413,-3.4006,-3.3826,-3.3396,-3.2936,-3.2434,-3.1734,-3.122,-3.0945,-3.0684,-3.0568,-3.0568,0.0,0.0,0.0,-3.0568,-3.0036,-2.912,-2.8138,-2.708,-2.5933,-2.4616,-2.3928,-2.3594,0.0,0.0,0.0,0.0,0.0,-1.5442,-1.4901,-1.5486,-1.5998,-1.6003,-1.6161,-1.6844,-1.8354,-1.9476,-2.0091,-2.0114,0.0,0.0,0.0,0.0,0.0,0.0,0.0,0.0,0.0,0.0,-1.6618,-1.3009,-1.176,-1.1103,0.0,0.0,-0.7602,-0.7717,0.0,0.0,0.0,0.0,0.0,0.0,0.0,0.0,0.0,0.0,0.0,0.0,0.0,0.0,0.0,0.0,0.0,-3.0163,-3.0018,-3.021,0.0,-2.903,-2.8183,-2.7613,-2.7448,-2.7063,-2.6677,-2.643,-2.6538,-2.666,-2.6588,-2.6227,-2.6139,-2.7053,-2.6939,-2.7299,-2.9199,-2.9376,-3.0082,0.0,0.0,-3.5469,-3.747,-3.9324,-4.028,-3.9772,0.0,-3.9759,0.0,-3.696,0.0,0.0,0.0,0.0,0.0,-3.3283,-3.2927,-3.2993,-3.2787,-3.2787,-3.2993,-3.2888,-3.2578,-3.2089,-3.1823,-3.1379,-3.0807,-3.0438,-3.0292,-3.0277,0.0,0.0,0.0,-3.0016,-2.9432,-2.8412,-2.7435,-2.6357,-2.5198,-2.3679,-2.2957,-2.2638,0.0,0.0,0.0,0.0,0.0,0.0,0.0,-1.6181,-1.6497,-1.6496,-1.6371,-1.6844,-1.8354,-1.9476,-2.05,-2.1485,0.0,0.0,0.0,0.0,0.0,0.0,0.0,0.0,0.0,0.0,-2.5895,-2.5921,-2.5485,-2.5684,-2.6432,-2.4817,-2.4073,-2.407,0.0,0.0,0.0,0.0,0.0,0.0,0.0,0.0,0.0,0.0,0.0,0.0,0.0,0.0,0.0,0.0,0.0,0.0,0.0,0.0,0.0,0.0,-2.9229,-2.9151,-2.8177,-2.7461,-2.6992,-2.6975,-2.6691,-2.6556,-2.7085,-2.6419,-2.6033,-2.7261,-2.6954,-2.7028,-2.8719,-2.9664,-3.0504,-3.1555,-3.3912,0.0,-3.7053,-3.9521,-4.0864,0.0,0.0,-4.1094,-3.7652,-3.6629,0.0,0.0,0.0,0.0,0.0,-3.2618,-3.2064,-3.2301,-3.1602,-3.1571,-3.2317,-3.1852,-3.1966,-3.2586,-3.1724,-3.1278,-3.1263,-3.009,-2.9639,0.0,0.0,0.0,0.0,-2.8695,-2.8024,-2.6849,-2.6398,-2.5208,-2.3604,-2.2577,-2.1873,-2.1416,0.0,0.0,0.0,0.0,0.0,0.0,0.0,-1.683,-1.7615,-1.7674,-1.7897,-1.8659,-2.0175,-2.1087,-2.2163,-2.3563,0.0,0.0,0.0,0.0,0.0,0.0,0.0,0.0,0.0,0.0,-2.6113,-2.6654,-2.6154,-2.6046,-2.6275,-2.5676,-2.5232,-2.489,-2.3506,-2.2629,0.0,0.0,0.0,0.0,0.0,0.0,0.0,0.0,0.0,0.0,0.0,0.0,0.0,0.0,0.0,0.0,0.0,0.0,0.0,0.0,0.0,-2.8768,-2.8146,-2.7992,-2.7866,-2.7223,-2.7432,-2.7656,-2.7175,-2.6774,-2.6657,-2.7241,-2.721,-2.7636,-2.9602,-2.9846,-3.057,-3.3188,-3.4352,0.0,0.0,0.0,0.0,-3.8298,-3.8238,-3.7845,0.0,0.0,0.0,0.0,0.0,0.0,0.0,-3.1544,-3.1006,-3.1523,-3.1334,-3.1318,-3.1555,-3.1388,-3.1279,-3.1139,-3.0608,-3.0188,-2.9885,-2.9285,0.0,0.0,0.0,0.0,0.0,-2.7317,-2.6636,-2.5878,-2.5087,-2.4099,-2.2976,-2.2006,-2.1548,-2.1404,0.0,0.0,0.0,0.0,0.0,0.0,0.0,-1.7345,-1.8123,-1.8178,-1.8784,-1.9708,-2.1108,-2.2186,-2.3524,-2.512,0.0,0.0,0.0,0.0,0.0,0.0,0.0,0.0,0.0,-2.6471,-2.6825,-2.7046,-2.6814,-2.6562,-2.6272,-2.5779,-2.5388,-2.5038,-2.3996,-2.3523,0.0,0.0,0.0,0.0,0.0,0.0,-2.8617,0.0,0.0,0.0,0.0,0.0,0.0,0.0,0.0,0.0,0.0,0.0,0.0,0.0,-2.9293,-2.8785,-2.8264,-2.8187,-2.8093,-2.7428,-2.7687,-2.7944,-2.7304,-2.7405,-2.7673,-2.7722,-2.7861,-2.8491,-3.0064,-2.9937,-3.0621,-3.3706,-3.455,-3.5495,0.0,0.0,0.0,-3.832,0.0,0.0,0.0,0.0,0.0,0.0,0.0,0.0,0.0,-3.0359,-2.955,-2.9643,-3.0164,-3.0559,-3.0828,-3.0828,-3.0791,-3.0775,-3.0335,-2.9917,-2.9505,-2.8737,0.0,0.0,0.0,0.0,0.0,-2.5763,-2.5244,-2.4708,-2.3787,-2.3002,-2.2342,-2.1198,-2.0791,-2.0791,0.0,0.0,0.0,0.0,0.0,0.0,0.0,0.0,0.0,-1.8277,-1.9154,-2.0207,-2.1372,-2.2907,-2.4553,-2.6229,0.0,0.0,0.0,0.0,0.0,0.0,0.0,0.0,-2.5354,-2.7299,-2.7975,-2.7218,-2.7546,-2.7315,-2.65,-2.5611,-2.5178,-2.5119,-2.3973,-2.3877,0.0,0.0,0.0,0.0,-2.6805,-2.7465,0.0,0.0,0.0,0.0,0.0,0.0,0.0,0.0,0.0,0.0,0.0,0.0,0.0,0.0,0.0,0.0,0.0,-2.8165,-2.7886,-2.7669,-2.7717,-2.7777,-2.7635,-2.8316,0.0,-2.857,-2.8868,-2.9479,-3.0356,-3.024,-3.0865,-3.346,-3.4633,-3.6029,0.0,-3.9237,0.0,0.0,-3.7772,0.0,0.0,0.0,0.0,0.0,0.0,0.0,0.0,-2.9098,-2.7931,-2.7184,-2.8316,-2.9295,-2.9959,-2.9959,-3.0275,-3.0923,-3.0429,-3.0022,-2.9659,-2.829,0.0,0.0,0.0,0.0,0.0,-2.4202,-2.3825,-2.3523,-2.2591,-2.2107,-2.1674,-2.0336,-1.9836,-1.978,0.0,0.0,0.0,0.0,0.0,0.0,0.0,0.0,0.0,0.0,-2.0298,-2.1167,-2.3235,-2.4149,-2.5527,0.0,0.0,0.0,0.0,0.0,0.0,0.0,0.0,0.0,-2.8598,-2.9236,-2.8547,-2.6457,-2.7513,-2.7252,-2.5835,-2.6516,-2.7147,-2.7618,-2.6685,-2.6514,0.0,0.0,0.0,0.0,-2.7554,-2.7684,0.0,0.0,0.0,0.0,-2.9108,-2.9672,0.0,0.0,0.0,0.0,0.0,0.0,0.0,0.0,-2.9588,-2.952,-2.9594,0.0,-2.838,-2.877,-2.89,-2.9012,0.0,-2.9726,-2.9836,-2.9674,-2.9925,-3.0654,-3.2163,-3.2164,-3.2763,-3.521,-3.5929,-3.6786,-3.8604,-3.9154,0.0,-3.7871,-3.6752,-3.5483,0.0,0.0,0.0,0.0,0.0,0.0,0.0,-2.8439,-2.7745,-2.7558,-2.7583,-2.7668,-2.7826,-2.7826,-2.7905,-2.8079,-2.7381,-2.7265,-2.7527,-2.5994,0.0,0.0,0.0,0.0,-2.327,-2.263,-2.2448,-2.2573,-2.1981,-2.1563,-2.1192,-2.0528,-2.0043,-1.978,0.0,0.0,0.0,0.0,0.0,0.0,0.0,0.0,0.0,0.0,0.0,0.0,0.0,0.0,0.0,0.0,0.0,0.0,0.0,0.0,0.0,0.0,0.0,-2.9952,-2.9575,-3.0377,-2.9945,-2.8234,-2.9247,-2.892,-2.737,-2.8017,-2.8504,-2.8829,-2.8312,-2.8206,-2.8412,-2.8412,-2.8555,-2.8799,-2.8437,0.0,0.0,0.0,0.0,0.0,-2.8791,-2.9278,0.0,-2.9938,-3.0127,-3.0415,0.0,0.0,0.0,0.0,-3.063,-3.0597,-3.0686,-2.994,-2.9267,-2.9851,-3.003,-2.9991,-2.9672,-3.0318,-3.0725,-2.9843,-3.036,-3.1372,-3.2503,-3.2475,-3.3103,-3.575,-3.6406,0.0,0.0,0.0,-3.7965,-3.6594,-3.5563,0.0,0.0,0.0,0.0,0.0,0.0,0.0,0.0,-2.6939,-2.6072,-2.5772,-2.5532,-2.595,-2.7099,-2.7099,-2.7099,-2.7115,-2.6691,-2.6443,-2.6283,-2.5257,0.0,0.0,0.0,0.0,-2.1719,-2.1115,-2.0953,-2.1063,-2.0589,-2.0341,-2.0233,-1.9783,-1.9523,-1.942,0.0,0.0,0.0,0.0,0.0,0.0,0.0,0.0,0.0,0.0,0.0,0.0,0.0,0.0,0.0,0.0,0.0,0.0,0.0,0.0,0.0,0.0,0.0,-3.0729,-3.0058,-3.1339,-3.156,-3.0664,-3.1404,-3.0892,-2.9219,-2.9479,-2.9558,-2.9496,-2.9619,-2.9549,-2.9337,-2.9632,-2.9876,-3.0029,-2.9532,0.0,0.0,0.0,0.0,0.0,0.0,0.0,0.0,-2.916,-2.945,-3.0001,-3.0678,0.0,0.0,0.0,0.0,0.0,-3.1769,-3.1164,-3.0618,-3.0948,-3.1148,-3.093,-2.9811,-3.0838,-3.1573,-3.0024,-3.0795,-3.1959,-3.2596,-3.2449,0.0,0.0,0.0,0.0,-3.8368,-3.8112,-3.7247,-3.5724,0.0,0.0,0.0,0.0,0.0,0.0,0.0,0.0,0.0,-2.5337,-2.4238,-2.3686,-2.3499,-2.4409,-2.6519,-2.6493,-2.6467,-2.6467,-2.6425,-2.5998,-2.5198,-2.471,-2.3774,0.0,0.0,0.0,-2.0319,-1.989,-1.97,-1.9655,-1.929,-1.9222,-1.9264,-1.8933,-1.8912,-1.8987,0.0,0.0,0.0,0.0,0.0,0.0,0.0,0.0,0.0,0.0,0.0,0.0,0.0,0.0,0.0,0.0,0.0,0.0,0.0,0.0,0.0,-3.2964,-3.3084,-3.3084,-3.2956,-3.3193,-3.2508,-3.0838,-3.1668,-3.0779,-2.8415,-2.9773,-3.0398,-3.0457,-3.176,-3.1567,-3.0398,-3.2031,-3.1835,-3.0457,-3.1039,0.0,0.0,0.0,0.0,0.0,0.0,0.0,0.0,-2.9355,-2.9647,-3.029,-3.0748,0.0,0.0,0.0,0.0,0.0,-3.2477,-3.279,-3.2848,-3.2274,-3.2174,-3.2265,-3.2475,-3.2581,-3.2535,-3.2087,-3.2241,-3.2887,-3.4323,-3.427,-3.456,0.0,0.0,-3.941,0.0,0.0,-3.8382,0.0,0.0,0.0,0.0,0.0,0.0,0.0,0.0,0.0,0.0,0.0,-2.4547,-2.4425,-2.3753,-2.3603,-2.3967,-2.3676,-2.3528,-2.3528,-2.328,-2.3304,-2.3514,-2.2098,-2.1571,0.0,0.0,-1.9917,-1.9822,-1.9741,-1.97,-1.9696,-1.9728,-1.9573,-1.9315,-1.9408,-1.9282,-1.8987,0.0,0.0,0.0,0.0,0.0,0.0,0.0,0.0,0.0,0.0,0.0,0.0,0.0,0.0,0.0,0.0,0.0,0.0,0.0,0.0,0.0,-3.3462,-3.4035,-3.4128,-3.3605,-3.3605,-3.2994,-3.1701,-3.2083,-3.1193,-2.9212,-3.0387,-3.1502,-3.2581,-3.2834,-3.2796,-3.2581,-3.2983,-3.2741,-3.2049,0.0,0.0,0.0,0.0,0.0,0.0,0.0,0.0,0.0,0.0,-2.9195,-2.9697,-3.0342,0.0,0.0,0.0,0.0,0.0,-3.2458,-3.28,-3.2849,-3.2411,-3.3169,-3.3725,-3.2563,-3.2802,-3.2976,-3.1861,-3.2037,0.0,0.0,0.0,-3.5954,-3.8371,0.0,-3.8973,-3.9097,-3.7252,0.0,0.0,0.0,0.0,0.0,0.0,0.0,0.0,0.0,0.0,0.0,0.0,-2.3612,-2.3409,-2.2851,-2.2264,-2.1665,-2.1372,-2.1774,-2.288,-2.2713,-2.2554,-2.2467,-2.1433,-2.0752,-2.0345,0.0,-1.9008,-1.8723,-1.8723,-1.8723,-1.8737,-1.8822,-1.8648,-1.8414,-1.8746,-1.8721,-1.8602,0.0,0.0,0.0,0.0,0.0,0.0,0.0,0.0,0.0,0.0,0.0,0.0,0.0,0.0,0.0,0.0,0.0,0.0,0.0,0.0,-3.4333,-3.3764,-3.4759,-3.4779,-3.3679,-3.3661,-3.3232,-3.242,-3.242,-3.1782,-3.0578,-3.1301,-3.2596,-3.4312,-3.3902,-3.397,-3.438,-3.392,-3.3692,-3.3651,0.0,0.0,0.0,0.0,0.0,0.0,0.0,0.0,0.0,0.0,0.0,0.0,0.0,0.0,0.0,-3.1685,-3.1618,-3.1244,-3.181,-3.2052,-3.2146,-3.22,-3.3436,-3.4203,-3.2453,-3.2798,-3.3157,-3.2004,-3.2336,0.0,0.0,-3.4477,0.0,-3.8813,-3.851,-3.7739,-3.727,0.0,0.0,0.0,0.0,0.0,0.0,0.0,0.0,0.0,0.0,0.0,0.0,0.0,-2.2756,-2.2493,-2.1871,-2.1147,-2.0339,-1.9794,-2.0319,-2.1881,-2.1862,-2.1564,-2.1044,-2.0463,-1.9749,-1.8863,-1.8384,-1.7896,-1.7475,-1.7611,-1.7597,-1.7489,-1.7612,-1.746,-1.7205,-1.7678,-1.7832,-1.7905,0.0,0.0,0.0,0.0,0.0,0.0,0.0,0.0,0.0,0.0,0.0,0.0,0.0,0.0,0.0,0.0,0.0,0.0,0.0,0.0,-3.5133,-3.5064,-3.5855,-3.5496,-3.3825,-3.3807,-3.335,-3.2482,-3.2482,-3.2401,-3.2229,-3.2737,-3.3617,-3.4768,-3.5468,-3.5393,-3.4805,-3.5471,-3.5357,-3.4652,-3.4217,0.0,0.0,0.0,0.0,0.0,0.0,0.0,0.0,0.0,0.0,0.0,0.0,0.0,-3.0063,-3.0391,-3.0373,-3.0289,-3.0344,-3.067,-3.122,-3.1999,-3.2306,-3.2672,-3.3514,-3.3219,-3.3082,-3.4197,-3.4477,-3.4319,0.0,-3.3724,-3.4287,-3.5403,-3.6288,-3.6481,0.0,0.0,0.0,0.0,0.0,0.0,0.0,0.0,0.0,0.0,0.0,0.0,0.0,0.0,0.0,-2.2773,-2.1478,-2.0744,-2.0666,-1.9356,-1.8762,-1.8919,-1.8919,-1.8827,-1.864,-1.7918,-1.75,-1.7314,-1.6623,-1.6281,-1.6281,-1.6837,-1.6729,-1.6275,-1.6766,-1.6547,-1.6001,-1.6522,-1.6738,-1.6763,0.0,0.0,0.0,0.0,0.0,0.0,0.0,0.0,0.0,0.0,0.0,0.0,0.0,0.0,0.0,0.0,0.0,0.0,0.0,0.0,-3.5284,-3.45,-3.5735,-3.568,-3.3957,-3.3921,-3.3508,-3.2691,-3.2041,-3.2083,-3.2823,-3.2985,-3.3906,-3.5507,-3.5792,-3.5775,-3.5454,-3.57,-3.551,-3.4968,-3.4253,-3.4038,0.0,0.0,0.0,0.0,0.0,0.0,0.0,0.0,-2.881,-2.8864,0.0,0.0,-2.9348,-3.0476,-3.0031,-2.9332,-2.9867,-3.0475,-3.1011,-3.1235,-3.1657,-3.2295,-3.308,-3.339,-3.3375,-3.2938,-3.363,-3.4215,0.0,0.0,-3.5456,-3.5847,-3.5502,0.0,0.0,0.0,0.0,0.0,0.0,0.0,0.0,0.0,0.0,0.0,0.0,0.0,0.0,0.0,0.0,-2.2141,-2.1191,-2.0235,-1.928,-1.8399,-1.77,-1.7177,-1.8064,-1.8454,-1.8393,-1.7764,-1.7372,-1.7166,-1.6649,-1.6272,-1.6132,-1.6362,-1.6322,-1.6086,-1.5918,-1.5868,-1.5927,-1.6078,-1.6238,-1.6515,0.0,0.0,0.0,0.0,0.0,0.0,0.0,0.0,0.0,0.0,0.0,0.0,0.0,0.0,0.0,0.0,0.0,0.0,-3.3311,-3.4697,-3.5308,-3.4855,-3.5687,-3.5613,-3.45,-3.4203,-3.366,-3.2798,-3.1968,-3.2038,-3.2895,-3.3494,-3.4488,-3.5793,-3.6041,-3.613,-3.6058,-3.5625,-3.549,-3.5523,-3.4481,-3.4127,0.0,0.0,0.0,0.0,0.0,0.0,0.0,0.0,0.0,0.0,0.0,0.0,0.0,0.0,-2.9315,-2.8764,-2.9334,-3.0033,-3.0704,-3.108,-3.1441,-3.1917,-3.284,-3.3359,-3.3508,-3.2923,-3.3098,-3.333,-3.3362,0.0,0.0,0.0,0.0,0.0,0.0,0.0,0.0,0.0,0.0,0.0,0.0,0.0,0.0,0.0,0.0,0.0,0.0,0.0,0.0,0.0,-2.1271,-2.0283,-1.9111,-1.8402,-1.7691,-1.6967,-1.7898,-1.813,-1.7682,-1.7227,-1.6851,-1.659,-1.6193,-1.5834,-1.5548,-1.5752,-1.5712,-1.5505,-1.4894,-1.4764,-1.4951,-1.4969,-1.5199,-1.5631,0.0,0.0,0.0,0.0,0.0,0.0,0.0,0.0,0.0,0.0,0.0,0.0,0.0,0.0,0.0,0.0,0.0,0.0,-3.4213,-3.454,-3.5255,-3.6517,-3.5814,-3.544,-3.5479,-3.4643,-3.3734,-3.2816,-3.2535,-3.2402,-3.2475,-3.4519,-3.5475,-3.5511,-3.6317,-3.6692,-3.6586,-3.535,-3.5439,-3.6343,-3.5117,-3.4817,-3.508,0.0,0.0,0.0,0.0,0.0,0.0,0.0,-2.9047,0.0,0.0,0.0,0.0,0.0,-2.8076,-2.8705,-2.863,-2.921,-3.0188,-3.1799,-3.16,-3.1419,-3.3031,-3.3135,-3.3312,-3.4866,-3.3315,-3.1737,-3.1841,-3.0653,0.0,-2.9789,0.0,0.0,0.0,0.0,0.0,0.0,0.0,0.0,0.0,0.0,0.0,0.0,0.0,0.0,0.0,0.0,0.0,0.0,-2.172,0.0,-2.0582,-1.954,-1.8813,-1.8393,-1.8253,-1.75,-1.621,-1.5898,-1.5566,-1.5314,-1.4963,-1.462,-1.4341,-1.4938,-1.4892,-1.4333,-1.3732,-1.3185,-1.2746,-1.3077,-1.347,-1.3959,0.0,0.0,0.0,0.0,0.0,0.0,0.0,0.0,0.0,0.0,0.0,0.0,0.0,0.0,0.0,0.0,0.0,0.0,-3.3466,-3.4142,-3.4572,-3.4755,-3.5114,-3.5014,-3.4326,-3.4594,-3.4229,-3.313,-3.2841,-3.2854,-3.3202,-3.4376,-3.4889,-3.4816,-3.5627,-3.5326,-3.4233,-3.4436,-3.4403,-3.4215,-3.4381,-3.4189,-3.3738,0.0,0.0,0.0,0.0,0.0,0.0,0.0,0.0,0.0,0.0,0.0,0.0,-2.8933,-2.9162,-2.9574,-2.9034,-2.9763,-3.0836,-3.1296,-3.1854,-3.2396,-3.288,-3.2667,-3.2541,0.0,-3.1639,-3.0387,-3.0414,-3.0514,0.0,0.0,0.0,0.0,0.0,0.0,0.0,0.0,0.0,0.0,0.0,0.0,0.0,0.0,0.0,0.0,0.0,0.0,0.0,0.0,0.0,0.0,-1.9617,-1.9171,-1.8695,-1.8253,-1.8207,-1.7992,-1.7608,-1.7502,-1.7163,-1.6605,-1.6077,-1.5491,-1.4897,-1.4653,-1.4459,-1.4266,-1.3565,-1.3433,-1.3545,-1.3132,-1.3207,-1.3538,0.0,0.0,0.0,0.0,0.0,0.0,0.0,0.0,0.0,0.0,0.0,0.0,0.0,0.0,0.0,0.0,0.0,0.0,0.0,-3.3873,-3.4504,-3.5131,-3.524,-3.5127,-3.478,-3.5096,-3.4932,-3.4262,-3.3723,-3.343,-3.3365,-3.4323,-3.4531,-3.4158,-3.4946,-3.4539,-3.3312,-3.3467,-3.3432,-3.331,-3.3743,-3.3656,-3.3202,0.0,0.0,0.0,0.0,0.0,0.0,0.0,0.0,0.0,0.0,0.0,0.0,-2.9791,-3.0061,-3.048,-2.9973,-3.07,-3.1564,-3.1564,-3.21,-3.2441,-3.182,-3.193,-3.2107,0.0,-3.0695,-2.9816,-2.9816,-2.9934,0.0,0.0,0.0,0.0,0.0,0.0,0.0,0.0,0.0,0.0,0.0,0.0,0.0,0.0,0.0,0.0,0.0,0.0,0.0,0.0,0.0,0.0,-2.0085,-1.9954,-1.9608,-1.9038,-1.9038,-1.9038,-1.9023,-1.8453,-1.7812,-1.7151,-1.6513,-1.5985,-1.5508,-1.4897,-1.454,-1.4292,-1.3696,-1.3442,-1.3326,-1.2881,-1.2845,-1.3006,0.0,0.0,0.0,0.0,0.0,0.0,0.0,0.0,0.0,0.0,-2.9554,0.0,0.0,0.0,0.0,0.0,0.0,0.0,0.0,0.0,-3.47,-3.6646,-3.5829,-3.5597,-3.6142,-3.5939,-3.5765,-3.5711,-3.4883,-3.4032,-3.3194,-3.4283,-3.4288,-3.3442,-3.4268,-3.418,-3.3371,-3.2582,-3.2634,-3.3315,-3.3258,-3.3186,-3.3134,-3.3204,0.0,0.0,0.0,0.0,0.0,0.0,0.0,0.0,-3.0415,-3.0552,-3.104,-3.0346,-3.0709,-3.1293,-3.1093,-3.1602,-3.2214,-3.2214,-3.2214,-3.1827,-3.0246,-3.0993,-3.1761,-3.0921,0.0,-2.9681,-2.9681,-2.9075,0.0,0.0,0.0,0.0,0.0,0.0,0.0,0.0,0.0,0.0,0.0,0.0,0.0,0.0,0.0,0.0,0.0,0.0,0.0,0.0,0.0,0.0,-2.1258,-2.1258,-2.0879,0.0,-2.0243,-2.0273,-2.0181,-1.8961,-1.7994,-1.7253,-1.6498,-1.6159,-1.6064,-1.5494,-1.4972,-1.4498,-1.4086,-1.3387,-1.2565,-1.254,-1.2553,-1.2524,0.0,0.0,0.0,0.0,0.0,0.0,0.0,0.0,0.0,0.0,0.0,0.0,0.0,0.0,0.0,0.0,0.0,0.0,0.0,0.0,-3.4045,-3.543,-3.5619,-3.5726,-3.5877,-3.6413,-3.6399,-3.5783,-3.4717,-3.3987,-3.3661,-3.3915,-3.358,-3.2822,-3.3634,-3.3546,-3.2786,-3.261,-3.2561,-3.2669,-3.3212,-3.3107,-3.2634,-3.3158,-3.2755,0.0,0.0,0.0,0.0,0.0,0.0,0.0,-3.0647,-3.1045,-3.1373,-3.004,-3.0507,-3.133,-3.0726,-3.0994,-3.1445,-3.1445,-3.162,-3.1341,-2.9565,-2.981,-3.0153,-2.8961,-2.8801,-2.8866,-2.8866,0.0,0.0,0.0,0.0,0.0,0.0,0.0,0.0,0.0,0.0,0.0,0.0,0.0,0.0,0.0,0.0,0.0,0.0,0.0,0.0,0.0,0.0,-2.085,-2.0161,-2.013,-1.9641,0.0,-1.9762,-2.0027,-1.9518,-1.9765,-1.9178,-1.7946,-1.7158,-1.6552,-1.6068,-1.5833,-1.5694,-1.5512,-1.4575,-1.4089,-1.3799,-1.3092,-1.282,-1.2874,0.0,0.0,0.0,0.0,0.0,0.0,0.0,0.0,0.0,0.0,0.0,0.0,0.0,0.0,0.0,0.0,0.0,0.0,0.0,0.0,-3.4022,-3.5522,-3.6553,-3.7053,-3.6942,-3.7359,-3.7359,-3.6942,-3.5867,-3.4894,-3.4044,-3.4436,-3.389,-3.2641,-3.3845,-3.3687,-3.2489,-3.2489,-3.2473,-3.2423,-3.2827,-3.2757,-3.2441,-3.2809,-3.2616,-3.2127,-3.1655,0.0,0.0,0.0,0.0,0.0,0.0,0.0,-3.1645,-3.0745,-3.1016,-3.1452,-3.0946,-3.1023,-3.1167,-3.0768,-3.0802,-3.0497,-2.8782,-2.9086,-2.9408,-2.8408,-2.8287,-2.8396,0.0,0.0,0.0,0.0,0.0,0.0,0.0,0.0,0.0,0.0,0.0,0.0,0.0,0.0,0.0,0.0,0.0,0.0,0.0,-2.2038,0.0,0.0,-2.065,-1.9935,-1.9411,-1.9276,-1.8812,-1.8113,-1.8849,-1.917,-1.9152,-1.9532,-1.9316,-1.8579,-1.7705,-1.7166,-1.6817,-1.6394,-1.6146,-1.5942,-1.5017,-1.4458,-1.4026,-1.3491,-1.3096,-1.2933,0.0,0.0,0.0,0.0,0.0,0.0,0.0,0.0,0.0,0.0,0.0,0.0,0.0,0.0,0.0,0.0,0.0,0.0,0.0,0.0,0.0,-3.5987,-3.7606,-3.8368,-3.8192,-3.8192,-3.8192,-3.8192,-3.7099,-3.5918,-3.4699,-3.5172,-3.4526,-3.3048,-3.4252,-3.4005,-3.2616,-3.2475,-3.2422,-3.2406,-3.2406,-3.2406,-3.2406,-3.2406,-3.2319,-3.2249,-3.2371,-3.2213,-3.1965,-3.205,0.0,0.0,0.0,0.0,-3.18,-3.1671,-3.1617,-3.1542,-3.1389,-3.1312,-3.1104,-3.0277,-3.0108,0.0,-2.8349,-2.8697,-2.9162,-2.8628,-2.8461,-2.8477,0.0,0.0,0.0,0.0,0.0,0.0,0.0,0.0,0.0,0.0,0.0,0.0,0.0,0.0,0.0,0.0,0.0,0.0,-2.2163,-2.1515,-2.1073,-2.0911,-1.9804,-1.9067,-1.8735,-1.8399,-1.8053,-1.7653,-1.776,-1.8186,-1.8852,-1.8927,-1.8985,-1.8988,-1.8149,-1.776,-1.7639,-1.697,-1.6599,-1.6347,-1.5546,-1.4809,-1.4199,-1.3905,-1.3543,-1.314,0.0,0.0,0.0,0.0,0.0,0.0,0.0,0.0,0.0,0.0,-3.0699,0.0,0.0,0.0,0.0,0.0,0.0,0.0,-3.339,0.0,0.0,-3.5833,-3.7388,-3.8225,-3.8192,-3.8192,-3.8192,-3.8192,-3.6656,-3.6071,-3.6371,-3.5402,-3.4836,-3.4571,-3.4163,-3.3828,-3.358,-3.2873,-3.2507,-3.2406,-3.2406,-3.2406,-3.2406,-3.2406,-3.2406,-3.2441,-3.3019,-3.2791,-3.2248,-3.2765,-3.2466,0.0,0.0,0.0,-3.18,-3.18,-3.1709,-3.1579,-3.15,0.0,-3.1043,0.0,-3.0108,-2.9888,0.0,0.0,-2.9104,0.0,-2.961,0.0,0.0,0.0,0.0,0.0,0.0,0.0,0.0,0.0,0.0,0.0,0.0,0.0,0.0,0.0,0.0,0.0,0.0,0.0,-2.1299,-2.1126,-2.0594,-1.9685,-1.8643,-1.7955,-1.7637,-1.733,-1.6891,-1.627,-1.6848,-1.7486,-1.8123,-1.8371,-1.8637,-1.8822,-1.8347,-1.7909,-1.7516,-1.734,-1.7286,-1.7149,-1.6127,-1.5632,-1.5453,-1.4608,-1.4242,-1.4187,0.0,0.0,0.0,0.0,0.0,0.0,0.0,0.0,0.0,0.0,0.0,-3.147,0.0,0.0,0.0,-3.2898,-3.3135,-3.3316,-3.3386,-3.4582,-3.5423,-3.5783,-3.6906,-3.7721,-3.8174,-3.7739,-3.7522,-3.7522,-3.6248,-3.5921,-3.6504,-3.5865,-3.5349,-3.4925,-3.5031,-3.4535,-3.3618,-3.3265,-3.3055,-3.3003,-3.3003,-3.3283,-3.3634,-3.3196,-3.3301,-3.367,-3.3511,-3.3212,-3.2983,-3.3621,-3.3286,-3.2553,-3.2458,0.0,0.0,0.0,-3.1746,-3.1671,-3.1555,-3.1385,-3.1065,0.0,-3.0108,-2.9922,-2.9161,-2.9313,-2.9638,-2.9661,0.0,0.0,0.0,0.0,0.0,0.0,0.0,0.0,0.0,0.0,0.0,0.0,0.0,0.0,0.0,0.0,0.0,0.0,0.0,-2.144,-2.1049,-2.02,-1.9486,-1.9024,-1.8,-1.7378,-1.7237,-1.6791,-1.6314,-1.587,-1.62,-1.6653,-1.727,-1.7249,-1.7586,-1.8247,-1.814,-1.7855,-1.7419,-1.7337,-1.7308,-1.7212,-1.6182,-1.5788,-1.57,-1.4731,-1.4373,-1.4373,0.0,0.0,0.0,0.0,0.0,0.0,0.0,0.0,0.0,0.0,0.0,0.0,0.0,0.0,0.0,0.0,-3.3286,-3.3393,-3.3393,-3.4154,-3.4969,-3.5783,-3.6562,-3.7359,-3.8174,-3.7395,-3.6946,-3.6862,-3.5654,-3.5345,-3.5847,-3.5451,-3.5146,-3.4934,-3.568,-3.5081,-3.3476,-3.3494,-3.3494,-3.3459,-3.3283,-3.3687,-3.4337,-3.374,-3.388,-3.4372,-3.4125,-3.3895,-3.3787,-3.4422,-3.3963,-3.309,-3.2942,-3.2766,0.0,0.0,0.0,-3.1521,-3.1252,0.0,-3.0807,-3.0168,-2.9995,-2.9837,0.0,0.0,-3.0121,0.0,0.0,0.0,0.0,0.0,0.0,0.0,0.0,0.0,0.0,0.0,0.0,0.0,0.0,0.0,0.0,0.0,0.0,0.0,0.0,-2.0904,-2.0665,-1.9395,-1.8568,-1.8408,-1.7527,-1.7076,-1.7076,-1.6485,-1.608,-1.5799,-1.5799,-1.6024,-1.6473,-1.6327,-1.6632,-1.727,-1.7595,-1.7585,-1.735,-1.7253,-1.7115,-1.6947,-1.6139,-1.5744,-1.5534,-1.4686,-1.4373,-1.4384,0.0,0.0,0.0,0.0,0.0,0.0,0.0,0.0,0.0,0.0,0.0,0.0,-3.1677,-3.2519,-3.3086,-3.3086,-3.3286,-3.3393,-3.3393,-3.4154,-3.4969,-3.5783,-3.6562,0.0,-3.8174,-3.7395,-3.6811,-3.6434,-3.4795,-3.4111,-3.4318,-3.3453,-3.3731,-3.4947,-3.5545,-3.4951,-3.3476,-3.3512,-3.3512,-3.3424,-3.2739,-3.2915,-3.3546,-3.3512,-3.3529,-3.3739,-3.5101,-3.5081,-3.4536,-3.5144,-3.4337,-3.309,-3.2942,-3.2421,-3.1852,0.0,0.0,0.0,-3.0335,-3.014,0.0,-2.9848,-2.9625,-2.9622,0.0,0.0,0.0,0.0,0.0,0.0,0.0,0.0,0.0,0.0,0.0,0.0,0.0,0.0,0.0,0.0,0.0,0.0,0.0,0.0,0.0,0.0,0.0,-2.0517,-1.9817,-1.8958,-1.822,-1.7581,-1.7199,-1.7018,-1.7018,-1.6459,-1.608,-1.5799,-1.5799,-1.5829,-1.5845,-1.6107,-1.6049,-1.5767,-1.6656,-1.7116,-1.7199,-1.7199,-1.6947,-1.6466,-1.5964,-1.5534,-1.5062,-1.4558,-1.4373,-1.4337,0.0,0.0,0.0,0.0,0.0,0.0,0.0,0.0,0.0,0.0,0.0,0.0,0.0,-3.2502,-3.2988,-3.3256,-3.3364,-3.3628,-3.4154,-3.4443,-3.5186,-3.6508,-3.6834,-3.7359,-3.8174,-3.7395,-3.6543,-3.5631,-3.4476,-3.3723,-3.3439,-3.3066,-3.3085,-3.3471,-3.4674,-3.4893,-3.4352,-3.4549,-3.4666,-3.4669,-3.4614,-3.5056,-3.5688,-3.5179,-3.5265,-3.5644,-3.5675,-3.5776,-3.5849,-3.6041,-3.574,-3.5059,-3.3659,-3.3259,-3.302,-3.1739,-3.0965,-3.0402,-2.965,0.0,0.0,-2.863,-2.8762,-2.9099,-2.9361,-2.9824,-3.0277,0.0,0.0,0.0,0.0,0.0,0.0,0.0,0.0,0.0,0.0,0.0,0.0,0.0,0.0,0.0,0.0,0.0,0.0,0.0,0.0,0.0,-1.9688,-1.8915,-1.8203,-1.7531,-1.7386,-1.7224,-1.6993,-1.6633,-1.6313,-1.6052,-1.587,-1.5799,-1.5814,-1.5683,-1.5619,-1.5594,-1.5729,-1.6139,-1.6702,-1.7055,-1.6905,-1.6466,-1.5976,-1.549,-1.5062,-1.4558,-1.4373,-1.4326,0.0,0.0,0.0,0.0,0.0,0.0,0.0,0.0,0.0,-3.0915,0.0,0.0,0.0,0.0,-3.3637,-3.3798,-3.4063,-3.4317,-3.4588,-3.486,-3.5602,-3.6924,-3.7011,-3.7308,-3.7949,-3.6922,-3.5858,-3.4764,-3.3618,-3.2788,-3.2222,-3.2144,-3.2162,-3.2307,-3.3347,-3.3735,-3.3755,-3.4438,-3.4766,-3.4766,-3.5118,-3.5745,-3.6357,-3.5966,-3.6264,-3.6799,-3.623,-3.6429,-3.6922,-3.6572,-3.6128,-3.5513,-3.393,-3.3158,-3.2604,-3.1089,-3.0377,-2.9897,-2.9167,-2.8732,-2.834,0.0,-2.7971,-2.8281,-2.8506,0.0,0.0,0.0,0.0,0.0,0.0,0.0,0.0,0.0,0.0,0.0,0.0,0.0,0.0,0.0,0.0,0.0,0.0,0.0,0.0,0.0,0.0,0.0,-1.9596,-1.8802,-1.8027,-1.7257,-1.7314,-1.715,-1.6763,-1.6623,-1.6409,-1.612,-1.5898,-1.5799,-1.5799,-1.5448,-1.5303,-1.5319,-1.5182,-1.5594,-1.6428,-1.6781,-1.6654,-1.6238,-1.592,-1.54,-1.4834,-1.4512,-1.4326,-1.414,0.0,0.0,0.0,0.0,0.0,0.0,0.0,0.0,-3.1686,-3.1626,0.0,0.0,0.0,0.0,0.0,-3.4666,-3.5367,-3.5494,-3.4733,-3.5403,-3.62,-3.6979,-3.7015,-3.7174,-3.7487,-3.6024,-3.4817,-3.394,-3.2278,-3.1196,-3.0725,-3.0568,-3.0907,-3.1543,-3.1543,-3.1508,-3.1568,-3.3106,-3.3697,-3.3755,-3.4128,-3.4679,-3.5382,-3.5692,-3.632,-3.6987,-3.6766,-3.7154,-3.7659,-3.6644,-3.5489,-3.4353,-3.3592,-3.2052,-3.041,-2.9941,-2.9677,-2.9454,0.0,0.0,0.0,-2.7381,0.0,0.0,-2.7886,0.0,0.0,0.0,0.0,0.0,0.0,0.0,0.0,0.0,0.0,0.0,0.0,0.0,0.0,0.0,0.0,0.0,0.0,0.0,0.0,0.0,0.0,-2.0983,-1.9509,-1.8594,-1.7663,-1.6769,-1.6892,-1.6773,-1.6328,-1.6355,-1.6262,-1.5996,-1.5885,-1.5799,-1.5799,-1.5448,-1.5118,-1.4805,-1.5004,-1.5554,-1.6336,-1.6375,-1.6157,-1.5788,-1.5788,-1.522,-1.4373,-1.4373,-1.415,-1.3716,0.0,0.0,0.0,0.0,0.0,0.0,-3.171,-3.2514,-3.2994,0.0,0.0,0.0,-3.3247,-3.437,-3.5214,-3.5462,-3.5675,-3.5946,-3.629,-3.6526,-3.6898,-3.7345,-3.7345,-3.7201,-3.6943,-3.6482,-3.5737,-3.4531,-3.3441,0.0,0.0,0.0,-3.0626,-3.0824,-3.0824,-3.0792,-3.0931,-3.3178,-3.4124,-3.4218,-3.5087,-3.5742,-3.6173,-3.6255,-3.6475,-3.6766,-3.6742,-3.7089,-3.7379,-3.6198,-3.5926,-3.5678,-3.3506,-3.1647,-3.0218,-2.9778,-2.9335,-2.8841,-2.8124,0.0,0.0,0.0,0.0,0.0,0.0,0.0,0.0,0.0,0.0,0.0,0.0,0.0,0.0,0.0,0.0,0.0,0.0,0.0,0.0,0.0,0.0,0.0,0.0,0.0,0.0,0.0,-2.2327,-2.1737,-2.0262,-1.8854,-1.8001,-1.7722,-1.7113,-1.6722,-1.6591,-1.6328,-1.6151,-1.6067,-1.5885,-1.5799,-1.5799,-1.5448,-1.5118,-1.4777,-1.4593,-1.4761,-1.516,-1.6036,-1.6157,-1.5788,-1.5788,-1.522,-1.4373,-1.4373,-1.415,-1.3716,0.0,0.0,0.0,0.0,0.0,0.0,-3.2489,-3.321,-3.364,0.0,0.0,0.0,-3.4616,-3.5501,-3.6058,-3.5996,-3.6332,-3.6651,-3.6979,-3.7117,-3.7272,-3.7415,-3.7266,-3.6904,-3.6381,-3.6069,0.0,0.0,0.0,0.0,0.0,0.0,0.0,-3.0974,-3.0974,-3.0808,-3.0642,-3.2734,-3.3623,-3.3751,-3.5148,-3.5854,-3.6045,-3.6318,-3.6651,0.0,0.0,-3.7051,-3.7466,-3.6078,-3.5412,-3.4795,-3.2667,-3.1165,-3.0085,-2.9542,-2.9121,-2.8716,-2.8249,-2.752,-2.6749,-2.5933,0.0,0.0,-2.5234,-2.6135,0.0,0.0,0.0,0.0,0.0,0.0,0.0,0.0,0.0,0.0,0.0,0.0,0.0,0.0,0.0,0.0,0.0,0.0,0.0,0.0,-2.2763,-2.2021,-2.0293,-1.9017,-1.8179,-1.7765,-1.7325,-1.6907,-1.6448,-1.6246,-1.6095,-1.6067,-1.5885,-1.5799,-1.5799,-1.5448,-1.5118,-1.4777,-1.4461,-1.4413,-1.4663,-1.563,-1.5802,-1.5444,-1.5704,-1.522,-1.4373,-1.4373,-1.4046,-1.3515,0.0,0.0,0.0,0.0,0.0,0.0,-3.3198,-3.3551,-3.3859,0.0,-3.4234,-3.4958,-3.6371,-3.706,-3.7241,-3.6789,-3.7254,-3.7453,-3.7262,-3.7435,-3.7429,-3.7193,-3.6808,-3.6381,-3.582,-3.5189,0.0,0.0,0.0,0.0,0.0,0.0,0.0,0.0,0.0,0.0,-3.0567,-3.2023,-3.2652,-3.2812,-3.4593,-3.5379,0.0,0.0,-3.6646,-3.7267,-3.6559,-3.6911,-3.7437,-3.592,-3.4386,0.0,-3.1672,-3.086,-3.0148,-2.9406,-2.8983,-2.8747,-2.8747,-2.7628,-2.6426,-2.6349,-2.5364,0.0,-2.4989,-2.5499,-2.5849,0.0,0.0,0.0,0.0,0.0,0.0,0.0,0.0,0.0,0.0,0.0,0.0,0.0,0.0,0.0,0.0,-2.3708,-2.3925,-2.3414,-2.2957,-2.1897,-1.9988,-1.9153,-1.834,-1.7477,-1.7587,-1.7143,-1.6095,-1.6123,-1.6111,-1.594,-1.5841,-1.5799,-1.5799,-1.5418,-1.5088,-1.4777,-1.4429,-1.4393,-1.4637,-1.5201,-1.523,-1.4983,-1.5584,-1.522,-1.4373,-1.4326,-1.3847,-1.3208,-3.1558,0.0,0.0,0.0,0.0,0.0,0.0,-3.3687,-3.4186,-3.4636,-3.5435,-3.6477,-3.7785,-3.7593,-3.7923,-3.934,-3.8508,-3.8126,-3.8659,-3.8197,-3.7434,-3.6392,-3.6249,-3.5924,-3.5258,-3.5124,-3.4964,0.0,0.0,0.0,0.0,0.0,0.0,0.0,0.0,0.0,-3.033,-3.1609,0.0,-3.2524,-3.4286,-3.5165,-3.5379,-3.5299,-3.5701,-3.626,-3.5543,-3.5605,-3.5852,-3.474,-3.3887,-3.3117,0.0,0.0,-3.0696,-2.9923,-2.92,-2.8636,-2.8508,-2.7859,-2.7057,-2.6518,-2.5749,0.0,-2.4356,-2.4739,-2.5137,0.0,0.0,0.0,0.0,0.0,0.0,0.0,0.0,0.0,0.0,0.0,0.0,0.0,0.0,0.0,0.0,-2.3887,-2.4131,-2.3289,-2.2205,-2.1253,-2.042,-1.9589,-1.8968,-1.843,-1.7749,-1.697,-1.6095,-1.5998,-1.5856,-1.5697,-1.577,-1.5799,-1.577,-1.5163,-1.4856,-1.4777,-1.417,-1.4156,-1.4602,-1.4828,-1.4913,-1.4983,-1.5584,-1.522,-1.4384,-1.4046,-1.361,-1.317,-3.1652,0.0,0.0,0.0,0.0,0.0,0.0,-3.3697,-3.4561,-3.5844,-3.7186,-3.8066,-3.8125,-3.8167,-3.8671,-3.9787,-3.8903,-3.8442,-3.8978,-3.8494,-3.7638,-3.6505,-3.6282,-3.5811,-3.5011,-3.4994,-3.4947,0.0,0.0,0.0,0.0,0.0,0.0,0.0,0.0,-3.0551,-3.0098,-3.1426,-3.2043,-3.228,-3.3875,0.0,-3.4754,-3.4754,-3.4991,-3.5253,-3.5005,-3.4864,-3.4804,-3.432,-3.3773,0.0,-3.2487,-3.1946,-3.1291,0.0,-2.9495,-2.9007,-2.8633,-2.7951,-2.7319,-2.698,-2.6087,0.0,0.0,-2.4741,-2.4834,-2.4222,0.0,0.0,0.0,0.0,0.0,0.0,0.0,0.0,0.0,0.0,0.0,0.0,0.0,0.0,0.0,-2.3643,-2.3584,-2.2674,-2.2117,-2.1394,-2.0369,-2.0017,-1.9572,-1.9014,-1.8717,-1.7955,-1.6671,-1.6585,-1.6259,-1.5712,-1.577,-1.5799,-1.577,-1.5102,-1.4808,-1.4777,-1.4105,-1.3945,-1.4224,-1.4638,-1.4673,-1.4571,-1.5183,-1.5006,-1.4326,-1.3962,-1.3573,-1.317,-3.1845,-3.2173,0.0,0.0,0.0,0.0,0.0,0.0,-3.4915,-3.7068,-3.8703,-3.9394,-3.8754,-3.9058,-3.9562,-4.0192,-3.9316,-3.8889,-3.9247,-3.8723,-3.7921,-3.6924,-3.658,-3.6022,-3.5131,-3.5098,-3.5048,0.0,0.0,0.0,0.0,0.0,0.0,0.0,0.0,-3.1193,-3.0222,-3.1499,0.0,-3.2224,0.0,-3.4,-3.4101,-3.43,-3.4399,-3.4497,-3.461,-3.4366,-3.3979,-3.407,-3.3751,-3.3198,-3.2645,-3.2163,0.0,0.0,0.0,0.0,0.0,0.0,0.0,0.0,0.0,-2.5188,0.0,0.0,0.0,0.0,0.0,0.0,0.0,0.0,0.0,0.0,0.0,0.0,0.0,0.0,0.0,0.0,0.0,0.0,0.0,-2.3172,-2.2816,-2.1873,-2.2049,-2.1565,-2.0126,-2.017,-1.995,-1.9336,-1.9513,-1.8858,-1.7221,-1.7147,-1.6679,-1.5799,-1.5799,-1.5799,-1.577,-1.5163,-1.4856,-1.4777,-1.417,-1.394,-1.4023,-1.45,-1.4536,-1.4385,-1.4917,-1.4834,-1.4326,-1.3858,-1.3467,-1.3122,-3.2441,-3.3216,-3.3627,0.0,0.0,0.0,0.0,0.0,-3.5139,-3.7899,-3.8985,-4.0041,-4.1285,-4.0866,-4.1104,-4.2467,-4.0721,-3.9866,-4.0557,-3.9328,-3.8187,-3.7253,-3.7186,-3.6787,-3.5893,-3.5876,-3.5448,-3.4546,0.0,0.0,0.0,0.0,0.0,0.0,-3.169,-3.1324,-3.1438,0.0,-3.2392,0.0,-3.3133,-3.3658,0.0,-3.3848,-3.4101,-3.4448,-3.425,-3.3848,-3.3414,0.0,-3.3356,-3.3293,0.0,-3.2071,-3.0885,-3.0592,0.0,0.0,0.0,0.0,0.0,0.0,-2.6319,0.0,0.0,0.0,-2.326,-2.3038,0.0,0.0,0.0,0.0,0.0,0.0,0.0,0.0,0.0,0.0,0.0,0.0,0.0,0.0,0.0,0.0,-2.2411,-2.1131,-2.1329,-2.1028,-1.9899,-1.9696,-1.9502,-1.9304,-1.9124,-1.8434,-1.7221,-1.6969,-1.6473,-1.5799,-1.5799,-1.5799,-1.5799,-1.5418,-1.5088,-1.4777,-1.4461,-1.4466,-1.4655,-1.4398,-1.4651,-1.522,-1.5145,-1.4834,-1.4326,-1.3552,-1.3266,-1.3122,-3.3377,-3.3785,-3.4016,0.0,0.0,0.0,0.0,0.0,-3.7987,-3.8349,-4.05,-4.2155,-4.2484,-4.2217,-4.249,-4.3545,-4.2406,-4.1347,-4.0742,-4.0124,-3.9168,-3.7849,-3.7799,-3.7201,-3.5828,-3.5745,-3.5284,-3.425,-3.4101,0.0,0.0,0.0,0.0,0.0,-3.1573,0.0,-3.1418,0.0,-3.2368,0.0,0.0,0.0,0.0,-3.3503,-3.3607,-3.3797,-3.3658,-3.3503,-3.3309,0.0,-3.2988,0.0,0.0,0.0,0.0,-3.0138,0.0,0.0,0.0,0.0,0.0,0.0,0.0,0.0,-2.4375,0.0,-2.3001,0.0,0.0,0.0,0.0,0.0,0.0,0.0,-2.1363,0.0,0.0,0.0,0.0,0.0,0.0,0.0,0.0,0.0,0.0,0.0,0.0,-2.0275,-1.9339,-1.9317,-1.9417,-1.9588,-1.9672,-1.9229,-1.8249,-1.8138,-1.7497,-1.6338,-1.6398,-1.6144,-1.5551,-1.5255,-1.4951,-1.461,-1.4292,-1.4312,-1.4543,-1.4307,-1.4578,-1.5121,-1.4812,-1.4512,-1.4176,-1.3457,-1.3084,-1.2803,-3.4133,-3.4242,-3.4371,-3.4629,0.0,0.0,0.0,0.0,-3.9502,-3.899,-4.1581,-4.344,-4.3456,-4.3272,-4.3439,-4.4215,-4.343,-4.2305,-4.0912,-4.0662,-3.9927,-3.856,-3.8388,-3.7689,-3.62,-3.6133,-3.5419,-3.4121,0.0,0.0,0.0,0.0,0.0,0.0,0.0,-3.1451,-3.1656,0.0,-3.255,-3.2598,-3.3103,-3.3309,-3.3309,-3.3309,-3.3309,-3.3309,-3.3309,-3.3182,-3.2972,-3.2972,-3.2395,0.0,-3.1674,0.0,0.0,0.0,0.0,0.0,-2.8308,0.0,0.0,0.0,0.0,0.0,0.0,0.0,0.0,0.0,0.0,0.0,0.0,0.0,-2.1568,-2.1179,0.0,-2.0594,0.0,0.0,0.0,0.0,0.0,0.0,0.0,0.0,0.0,0.0,-1.995,0.0,-1.8774,-1.8869,-1.9132,-1.9609,-1.9803,-1.9587,-1.9019,-1.8936,-1.819,-1.6742,-1.6864,-1.6398,-1.5418,-1.5225,-1.4907,-1.4501,-1.4292,-1.4265,-1.4423,-1.4346,-1.4659,-1.5103,-1.4598,-1.4326,-1.4071,-1.3457,-1.2997,-1.2627,-3.4721,-3.4905,-3.4905,-3.5118,0.0,0.0,0.0,0.0,0.0,-4.007,-4.1615,-4.3081,-4.4473,-4.4009,-4.3876,-4.4589,-4.3346,-4.2204,-4.1425,-4.0746,-4.0034,-3.9272,-3.8936,-3.8412,-3.7658,-3.7405,-3.622,-3.4109,0.0,0.0,0.0,0.0,0.0,0.0,-3.1728,-3.2004,-3.2594,-3.3087,-3.3261,-3.3277,-3.3293,-3.3309,-3.3309,0.0,-3.3309,-3.3309,-3.3309,0.0,0.0,-3.2159,-3.1569,0.0,0.0,0.0,0.0,0.0,0.0,0.0,0.0,0.0,0.0,-2.651,0.0,0.0,0.0,0.0,-2.2142,0.0,0.0,0.0,0.0,-2.1033,-2.0466,-1.9613,-1.9924,0.0,0.0,0.0,0.0,0.0,0.0,0.0,0.0,0.0,0.0,-1.9847,-2.0028,0.0,-1.8375,-1.8254,-1.8528,-1.9207,-1.8959,-1.8892,-1.9019,-1.882,-1.8092,-1.6879,-1.6955,-1.6473,-1.5507,-1.5477,-1.5134,-1.4501,-1.4624,-1.4612,-1.4495,-1.4613,-1.4992,-1.5426,-1.4677,-1.4222,-1.3931,-1.3409,-1.2997,-1.2627,-3.4706,-3.4802,-3.5001,-3.5359,-3.5439,0.0,0.0,-3.8103,0.0,0.0,-4.3098,0.0,0.0,-4.5202,-4.4953,-4.4705,-4.381,-4.2734,-4.1491,-4.1007,-4.0219,-3.9035,-3.9096,-3.8561,-3.7213,-3.6701,-3.5827,-3.4405,0.0,0.0,0.0,0.0,0.0,0.0,0.0,-3.1643,0.0,0.0,0.0,0.0,0.0,-3.3203,-3.3309,0.0,0.0,-3.3245,-3.2787,-3.242,0.0,-3.151,-3.0748,-2.9987,-2.9937,-2.9422,-2.8735,-2.8293,-2.7745,0.0,0.0,0.0,-2.5618,-2.5618,0.0,0.0,0.0,0.0,0.0,0.0,0.0,0.0,0.0,-2.0496,-1.9973,-1.9474,-1.9259,-1.8811,0.0,0.0,0.0,0.0,0.0,0.0,0.0,0.0,0.0,-1.8022,-1.8304,-1.8243,0.0,-1.7774,-1.8201,-1.8731,-1.8655,-1.8783,-1.9117,-1.9081,-1.8793,-1.8303,-1.837,-1.7556,-1.5968,-1.6422,-1.6023,-1.4984,-1.5421,-1.5568,-1.5466,-1.5356,-1.543,-1.5627,-1.4721,-1.4269,-1.4035,-1.3228,-1.2657,-1.2274,-3.4631,-3.475,-3.4949,-3.5294,-3.5633,0.0,0.0,0.0,0.0,0.0,-4.3069,0.0,-4.4577,0.0,-4.4216,0.0,-4.3277,-4.2187,-4.0664,-4.0541,-3.9732,-3.7875,-3.8274,-3.7881,-3.6406,-3.6169,-3.5427,-3.4163,0.0,-3.2691,0.0,0.0,0.0,0.0,0.0,-3.0784,-3.1531,-3.2124,-3.2453,0.0,0.0,-3.2992,0.0,0.0,-3.2877,-3.2798,0.0,-3.1577,-3.1158,-3.0639,-2.9931,-2.919,-2.919,-2.8686,-2.8008,-2.7565,-2.7078,-2.6611,-2.6215,-2.5508,0.0,-2.4908,-2.4319,0.0,-2.3302,0.0,0.0,0.0,0.0,0.0,0.0,-1.9646,-1.9277,-1.9019,-1.8591,-1.8051,0.0,-1.7353,0.0,0.0,0.0,0.0,0.0,0.0,-1.8166,-1.7014,-1.7343,-1.7377,0.0,0.0,-1.772,-1.8108,-1.8319,-1.8592,-1.8983,-1.9207,-1.9153,-1.882,-1.9089,-1.8178,-1.6335,-1.6961,-1.6536,-1.5312,-1.5847,-1.6068,-1.6002,-1.5802,-1.5768,-1.5703,-1.4731,-1.4316,-1.4082,-1.3142,-1.2363,-1.1828,-3.4631,-3.4698,-3.4831,0.0,-3.5881,0.0,0.0,0.0,-4.0447,0.0,-4.1601,-4.2469,-4.2541,-4.1869,-4.1759,-4.2423,-4.173,-4.0623,-3.9124,-3.9471,0.0,0.0,-3.6573,-3.6456,-3.5383,-3.5658,-3.5024,-3.3389,0.0,0.0,0.0,0.0,0.0,0.0,-2.9407,0.0,-2.9913,-3.1591,-3.2089,-3.189,-3.2687,-3.2604,-3.1961,-3.2013,0.0,-3.1887,-3.1181,-3.0373,-2.958,-2.9549,-2.9033,-2.8411,-2.8348,-2.7959,-2.7464,-2.7297,-2.6453,-2.5563,-2.537,-2.4824,-2.4279,-2.4213,0.0,0.0,0.0,0.0,-2.1302,0.0,0.0,0.0,0.0,0.0,-1.8435,-1.8297,-1.7885,-1.7592,-1.737,-1.7622,-1.7619,0.0,0.0,0.0,0.0,-1.7404,-1.7288,-1.6749,-1.7075,-1.706,0.0,0.0,0.0,-1.7475,-1.7909,-1.8293,-1.8592,-1.9147,-1.9146,-1.856,-1.9134,-1.8416,-1.6598,-1.7166,-1.6709,-1.5531,-1.5964,-1.6135,-1.6041,-1.6041,-1.5932,-1.5659,-1.4674,-1.4212,-1.4035,-1.3094,-1.2166,-1.1326,-3.4481,-3.4631,-3.4765,0.0,-3.5428,-3.5983,0.0,0.0,0.0,0.0,-4.1117,-4.1596,-4.181,-4.1246,-4.0908,-4.1031,-3.9687,0.0,0.0,0.0,0.0,-3.4953,-3.5351,-3.5462,-3.511,-3.4781,-3.4644,-3.4728,0.0,0.0,-3.1975,0.0,0.0,0.0,0.0,-2.932,-2.9668,-3.0352,-3.0778,-3.1072,-3.1792,-3.1677,0.0,0.0,-3.076,-3.0242,-3.0154,-2.9884,-2.9518,-2.9007,-2.8632,-2.8299,-2.7845,-2.7565,-2.7195,-2.6308,-2.5673,-2.5079,-2.4227,-2.4059,-2.3948,-2.307,-2.307,-2.3106,0.0,0.0,0.0,0.0,0.0,0.0,0.0,0.0,0.0,-1.7777,-1.718,-1.674,-1.6662,-1.6731,0.0,-1.6643,0.0,0.0,0.0,-1.6442,-1.6093,-1.5769,-1.6607,0.0,0.0,0.0,0.0,-1.7141,-1.7253,-1.7639,-1.8383,-1.8539,-1.8797,-1.9154,-1.9512,-1.9021,-1.7782,-1.8588,-1.823,-1.704,-1.7213,-1.713,-1.6853,-1.6422,-1.5855,-1.5198,-1.4536,-1.38,-1.3055,-1.2569,-1.1977,-1.1326,-3.4414,-3.4767,0.0,-3.4861,0.0,0.0,-3.6981,-3.8083,0.0,-3.9707,-4.0024,0.0,-3.9579,-3.8924,-3.8545,-3.8462,-3.7345,0.0,-3.6248,0.0,0.0,-3.3261,-3.3894,-3.4209,-3.3898,-3.3456,0.0,-3.4015,0.0,0.0,-3.1022,0.0,0.0,0.0,0.0,-2.828,-2.8623,-2.9458,-3.0133,-3.0645,-3.1078,0.0,0.0,-3.0284,-2.9785,-2.9146,-2.8855,-2.8935,-2.9002,-2.8342,-2.8057,-2.7795,-2.7225,-2.6782,-2.6347,-2.5618,-2.5119,-2.4617,-2.3606,-2.3529,-2.3441,-2.2295,-2.2237,-2.2276,-2.169,-2.0761,-1.9982,0.0,0.0,0.0,0.0,0.0,0.0,-1.6831,-1.6541,-1.6321,-1.6105,0.0,0.0,0.0,-1.5713,0.0,0.0,-1.5331,-1.507,-1.5185,0.0,0.0,0.0,0.0,0.0,-1.6888,-1.732,-1.7712,-1.8016,-1.8623,-1.9002,-1.9147,-1.9573,-1.928,-1.83,-1.9038,-1.865,-1.7441,-1.7623,-1.7393,-1.6863,-1.6225,-1.5656,-1.5017,-1.4258,-1.3324,-1.2323,-1.2067,-1.156,-1.0998,-3.4414,-3.5044,0.0,0.0,0.0,0.0,0.0,-3.8752,0.0,-3.8517,0.0,-3.7942,-3.6817,-3.5989,-3.5546,-3.5672,0.0,-3.4299,-3.3607,-3.3918,-3.3259,-3.1486,-3.2367,-3.272,-3.2318,-3.1983,-3.1961,0.0,0.0,0.0,0.0,0.0,0.0,0.0,0.0,0.0,0.0,-2.8586,-2.9464,-3.004,-3.0229,-2.9884,-2.9227,-2.9327,-2.895,-2.8268,-2.763,-2.7795,-2.8186,-2.758,-2.7297,-2.7093,-2.6549,-2.5906,-2.5342,-2.5119,-2.4627,-2.3997,-2.3263,-2.305,-2.2713,-2.1546,-2.1253,-2.1062,-2.0394,-1.9764,-1.9112,-1.8487,-1.779,0.0,0.0,0.0,0.0,-1.5951,-1.6191,0.0,0.0,0.0,0.0,0.0,0.0,0.0,0.0,0.0,0.0,0.0,0.0,0.0,0.0,0.0,0.0,0.0,-1.7592,0.0,-1.7759,0.0,-1.9194,-1.8784,-1.9427,-1.9275,-1.8523,-1.8958,-1.8493,-1.7401,-1.7531,-1.7173,-1.6423,-1.582,-1.5299,-1.4823,-1.3847,-1.2842,-1.1868,-1.166,-1.1133,-1.0466,-3.4414,0.0,0.0,0.0,0.0,-3.6547,-3.6547,-3.7784,-3.815,-3.663,-3.6256,-3.5962,-3.5414,-3.4209,-3.3707,-3.4288,-3.3501,0.0,0.0,0.0,0.0,-3.0802,-3.0675,-3.0855,-3.1217,-3.0899,-3.1039,0.0,0.0,0.0,0.0,0.0,0.0,0.0,0.0,0.0,-2.6884,-2.7148,0.0,-2.752,-2.8092,-2.7883,-2.7284,-2.7827,-2.7615,-2.7004,-2.6886,-2.7195,-2.758,-2.6916,-2.6654,-2.6496,-2.5783,-2.5453,-2.5119,-2.4624,-2.3949,-2.325,-2.2701,-2.2188,-2.1509,-2.026,-1.9912,-1.9715,-1.9029,-1.8317,-1.7733,-1.7601,-1.7076,-1.6534,-1.6431,0.0,0.0,0.0,0.0,0.0,0.0,0.0,0.0,0.0,0.0,-1.4476,0.0,0.0,0.0,0.0,0.0,0.0,0.0,0.0,0.0,0.0,0.0,0.0,0.0,0.0,0.0,-1.8542,-1.9072,-1.92,-1.8979,-1.8977,-1.8698,-1.8229,-1.745,-1.6769,-1.6126,-1.5567,-1.4755,-1.38,-1.3248,-1.255,-1.1774,-1.1642,-1.0889,-0.9917,-3.4835,0.0,0.0,0.0,0.0,0.0,0.0,-3.5994,0.0,-3.5751,-3.5258,-3.4622,-3.3791,-3.2811,-3.2335,-3.2674,-3.1989,-3.1575,-3.1664,-3.1027,-3.0582,-3.0341,-3.0036,-3.0134,-3.0729,-3.0115,-3.0191,-3.1002,0.0,0.0,-2.8396,0.0,0.0,0.0,0.0,-2.6358,0.0,0.0,0.0,-2.7278,-2.7262,-2.7045,-2.6722,-2.7043,-2.6953,-2.6549,-2.6254,-2.6254,-2.6347,-2.6108,-2.596,-2.5728,-2.5063,-2.4523,-2.4113,-2.3787,-2.3041,-2.218,-2.1655,-2.1041,-2.0214,-1.9036,-1.8875,-1.8776,-1.7767,-1.7435,-1.7279,-1.6965,-1.6648,-1.6384,-1.6384,-1.6384,0.0,0.0,0.0,0.0,0.0,0.0,-1.4455,0.0,0.0,0.0,0.0,0.0,0.0,0.0,0.0,0.0,0.0,0.0,0.0,0.0,0.0,0.0,0.0,0.0,0.0,-1.8361,-1.8898,-1.9124,-1.9101,-1.8808,-1.8486,-1.8068,-1.7008,-1.6244,-1.5676,-1.4789,-1.3931,-1.32,-1.2666,-1.2058,-1.1434,-1.0939,-1.0226,-0.951,0.0,-3.4809,0.0,0.0,-3.5769,0.0,-3.3804,-3.438,-3.499,-3.4777,-3.4196,-3.3412,-3.2425,-3.1598,-3.1119,-3.1119,-3.0539,-3.0219,-3.0305,-3.0018,-2.9907,-2.9988,-2.9665,-2.9687,-3.0213,-2.9398,-2.9315,0.0,0.0,0.0,0.0,0.0,0.0,0.0,0.0,0.0,0.0,0.0,-2.6701,-2.7115,-2.653,-2.6343,-2.6287,-2.6292,-2.6215,-2.6014,-2.5577,-2.53,-2.5161,-2.5149,-2.5079,-2.4854,-2.4116,-2.3472,-2.3015,-2.2898,-2.1987,-2.1014,-2.0603,-1.9849,-1.8987,-1.8043,-1.7941,-1.782,-1.6797,-1.6909,-1.7011,-1.6488,-1.6384,-1.6384,-1.6384,-1.6259,0.0,0.0,0.0,0.0,0.0,0.0,0.0,0.0,0.0,0.0,-1.3623,0.0,0.0,0.0,0.0,0.0,0.0,0.0,0.0,0.0,0.0,0.0,-1.7175,0.0,-1.8764,0.0,-1.8683,-1.8898,-1.8822,-1.85,-1.8108,-1.7585,-1.6459,-1.5632,-1.4971,-1.3884,-1.3152,-1.2686,-1.2274,-1.161,-1.0897,-1.0218,-0.9614,-0.9106,0.0,0.0,0.0,0.0,0.0,0.0,0.0,-3.3572,-3.3441,-3.2861,-3.2208,-3.1743,-3.1627,-3.0524,-2.9798,-2.9798,-2.9232,-2.8973,-2.9242,-2.9226,-2.9302,-2.9651,-2.9352,-2.919,-2.9245,-2.8871,-2.842,0.0,0.0,-2.7637,0.0,0.0,0.0,0.0,0.0,0.0,0.0,-2.5181,-2.5208,-2.5249,-2.5184,-2.5086,-2.4973,-2.4962,-2.4878,-2.4778,-2.4721,-2.4593,-2.4328,-2.388,-2.3983,-2.4165,-2.2955,-2.251,-2.2382,-2.185,-2.0798,-1.9761,-1.9713,-1.8794,-1.7833,-1.7512,-1.7112,-1.6684,-1.6477,-1.6488,-1.6488,-1.6431,-1.6384,-1.6384,-1.6384,-1.5894,-1.5468,0.0,0.0,0.0,0.0,0.0,-1.278,-1.3142,0.0,0.0,0.0,0.0,0.0,0.0,0.0,0.0,0.0,0.0,0.0,-1.6494,0.0,-1.6667,-1.7804,-1.746,0.0,-1.7557,-1.8226,-1.8344,-1.7908,-1.7868,-1.7585,-1.7034,-1.6058,-1.4994,-1.392,-1.3238,-1.2676,-1.2175,-1.2126,-1.1301,-1.0115,-1.0012,-0.9517,-0.8752,0.0,0.0,0.0,0.0,0.0,0.0,0.0,-3.1833,-3.1333,-3.0335,-3.0629,-3.0814,-3.0422,-2.9595,-2.9001,-2.8757,-2.8527,-2.8369,-2.8307,-2.8158,-2.8092,-2.8223,-2.8229,-2.8247,-2.8247,-2.8121,-2.7949,0.0,0.0,0.0,0.0,0.0,0.0,0.0,0.0,-2.5941,-2.6579,-2.5788,-2.5635,-2.5918,-2.5074,-2.4734,-2.4677,-2.4677,-2.4549,-2.4421,-2.4421,-2.4081,-2.3516,-2.2605,-2.2898,-2.3476,-2.2635,-2.1915,-2.1322,-2.0961,-1.9782,-1.858,-1.8458,-1.7757,-1.7011,-1.6955,-1.6694,-1.6477,-1.6431,-1.6384,-1.6384,-1.6384,-1.6077,-1.5778,-1.5778,-1.5294,-1.4883,0.0,0.0,0.0,0.0,0.0,0.0,-1.1644,0.0,-1.1135,0.0,0.0,0.0,0.0,0.0,0.0,0.0,0.0,0.0,-1.6499,0.0,-1.6236,-1.734,-1.7156,-1.717,-1.7323,-1.7828,-1.7988,-1.7787,-1.7557,-1.6769,-1.5588,-1.4858,-1.405,-1.3238,-1.2666,-1.2274,-1.2026,-1.136,-1.0694,-1.0064,-0.9666,-0.904,-0.8302,-3.0605,0.0,-3.0175,0.0,-3.0651,-3.0064,-3.0149,-2.977,-2.917,-2.8191,-2.8771,-2.9199,-2.9073,-2.8541,-2.8039,-2.7812,-2.7641,-2.7499,-2.7381,-2.7162,-2.7069,-2.7129,-2.7339,0.0,-2.7447,-2.7447,-2.7366,-2.7176,-2.7366,0.0,0.0,0.0,0.0,0.0,-2.5536,-2.5986,-2.6742,-2.5773,-2.5593,-2.5928,-2.4954,-2.4549,-2.4492,-2.4492,-2.4421,-2.4189,-2.3989,-2.3508,-2.2781,-2.1575,-2.1594,-2.2043,-2.1575,-2.0786,-2.0049,-1.977,-1.8643,-1.7512,-1.739,-1.6965,-1.6524,-1.6524,-1.6477,-1.6343,-1.6208,-1.6177,-1.611,-1.593,-1.5505,-1.5118,-1.505,-1.4519,-1.4112,0.0,0.0,0.0,0.0,0.0,0.0,0.0,-1.047,-1.0572,-1.1114,-1.1881,0.0,0.0,0.0,0.0,0.0,0.0,0.0,0.0,0.0,0.0,0.0,0.0,-1.6608,-1.6795,-1.7214,-1.7366,-1.7188,-1.6697,-1.572,-1.4422,-1.392,-1.342,-1.2881,-1.2323,-1.1977,-1.1719,-1.0753,-1.0182,-0.9814,-0.9204,-0.8567,-0.7919,-2.7558,-2.7558,-2.7766,-2.86,-2.8235,-2.7877,-2.8105,-2.7608,-2.7046,-2.6518,-2.6299,-2.6572,-2.7722,-2.7243,-2.6821,-2.6821,-2.6259,-2.6064,-2.6323,-2.6307,-2.6466,0.0,0.0,-2.6837,-2.6837,-2.6837,-2.6538,-2.5914,0.0,0.0,-2.4791,0.0,0.0,-2.5402,-2.4829,-2.4633,-2.4647,-2.4633,-2.4633,-2.4633,-2.4633,-2.4492,-2.4292,-2.4292,-2.4203,-2.3995,-2.3339,-2.2808,-2.2209,-2.0949,-2.0145,-1.9574,-1.9167,-1.8901,-1.8623,-1.81,-1.7301,-1.6637,-1.6627,-1.6534,-1.6384,-1.6384,-1.6384,-1.626,-1.5804,-1.5701,-1.5526,-1.4887,-1.4591,-1.446,-1.4273,-1.3743,-1.326,-1.307,0.0,0.0,0.0,0.0,0.0,-1.0681,-1.0865,-1.0814,-1.017,0.0,0.0,0.0,0.0,0.0,0.0,0.0,0.0,-1.5914,-1.5668,0.0,-1.6106,-1.5471,-1.5367,-1.5832,-1.6299,-1.6256,-1.5788,-1.5062,-1.4376,-1.3815,-1.3658,-1.3344,-1.2881,-1.2323,-1.1769,-1.115,-1.06,-0.9932,-0.9159,-0.8633,-0.8203,-0.7765,-2.6798,-2.6432,-2.6337,-2.6824,-2.6314,-2.5946,-2.6512,-2.6214,-2.5788,-2.5153,-2.504,-2.5011,-2.4964,-2.5713,-2.6078,0.0,-2.5758,-2.5564,0.0,-2.5404,-2.5486,-2.5575,-2.5968,-2.6185,-2.6185,-2.6185,-2.6031,-2.577,0.0,0.0,0.0,-2.4749,-2.4824,-2.5249,-2.5183,-2.5375,-2.5721,-2.5203,-2.4985,-2.4945,-2.4445,-2.3969,-2.3505,-2.3505,-2.2968,-2.2228,-2.2038,-2.1403,-2.0494,-1.9582,-1.8916,-1.8322,-1.7678,-1.7723,-1.7968,-1.7656,-1.7123,-1.6581,-1.6477,-1.6431,-1.6384,-1.6384,-1.5899,-1.5345,-1.5205,-1.4651,-1.4122,-1.4129,-1.366,-1.3371,-1.3571,-1.2964,-1.2482,-1.2421,0.0,0.0,0.0,0.0,0.0,-1.0902,-1.0616,-1.0499,0.0,-1.1585,0.0,0.0,0.0,0.0,0.0,0.0,0.0,0.0,-1.5739,0.0,-1.6299,-1.546,-1.5103,-1.5322,-1.5788,-1.5908,-1.5632,-1.4652,-1.4061,-1.3768,-1.3334,-1.2822,-1.2323,-1.1719,-1.1158,-1.06,-1.0079,-0.9361,-0.8633,-0.8474,-0.7717,-0.6691,-2.5405,-2.5014,-2.4737,-2.5165,-2.4813,-2.4514,-2.4735,-2.4659,-2.428,-2.3728,-2.3775,-2.3771,-2.3403,-2.4337,0.0,-2.5075,-2.5201,-2.5244,-2.5005,-2.4821,-2.4835,-2.5005,-2.5114,-2.5316,-2.5503,0.0,0.0,-2.5271,-2.5199,-2.4964,-2.4476,-2.4432,-2.44,-2.4429,-2.4741,-2.513,-2.5448,-2.4706,-2.4429,-2.4318,-2.3454,-2.2858,-2.2452,-2.2253,-2.1793,-2.1078,-2.0831,-2.0167,-1.9277,-1.8612,-1.7968,-1.7357,-1.6864,-1.6965,-1.7179,-1.7123,-1.6853,-1.6534,-1.6431,-1.6249,-1.6115,-1.5879,-1.5245,-1.4527,-1.409,-1.3357,-1.2752,-1.2948,-1.2618,-1.2362,-1.2538,-1.2265,-1.1996,-1.1934,0.0,-1.1658,-1.1405,0.0,0.0,0.0,0.0,0.0,0.0,-1.137,0.0,0.0,0.0,0.0,0.0,0.0,0.0,-1.6678,-1.5772,0.0,-1.5892,-1.5124,-1.4795,-1.4834,-1.5085,-1.5107,-1.496,-1.4061,-1.3457,-1.316,-1.2754,-1.2274,-1.1719,-1.1158,-1.0702,-1.03,-0.951,-0.889,-0.8315,-0.7824,-0.7015,-0.6154,-2.3628,-2.3292,0.0,0.0,-2.3628,0.0,-2.3003,-2.2919,-2.2751,-2.2258,-2.2604,-2.2848,-2.2848,-2.3245,-2.3682,-2.4111,0.0,0.0,0.0,-2.4452,-2.4452,-2.4824,-2.4297,0.0,-2.4667,-2.4553,-2.4509,-2.4492,-2.4292,-2.3917,-2.3314,-2.378,-2.3734,-2.3148,-2.3695,-2.393,-2.3859,-2.3179,-2.2915,-2.2865,-2.175,-2.1307,-2.1259,-2.0788,-2.0583,-2.0445,-1.9785,-1.916,-1.8498,-1.7923,-1.7237,-1.657,-1.6581,-1.6477,-1.6431,-1.6524,-1.6477,-1.6374,-1.6343,-1.6022,-1.5505,-1.4949,-1.4449,-1.3734,-1.2629,-1.1913,-1.1456,-1.1374,-1.1431,-1.1501,-1.1301,-1.1563,-1.1717,-1.1622,-1.16,-1.1372,-1.0704,0.0,0.0,0.0,0.0,0.0,0.0,-1.1446,-1.138,0.0,0.0,0.0,0.0,0.0,-1.589,-1.5818,-1.5706,-1.5409,-1.4997,-1.4542,-1.4321,-1.4373,-1.4222,-1.4071,-1.392,-1.3296,-1.2676,-1.2026,-1.2026,-1.1719,-1.1108,-1.06,-1.0352,-1.019,-0.9047,-0.8474,-0.8096,-0.6848,-0.6253,-0.5937,0.0,0.0,-2.2426,-2.2546,-2.2234,-2.2053,-2.2342,-2.2378,-2.233,-2.2209,-2.2321,-2.2371,-2.2371,-2.2775,-2.2962,-2.2627,-2.3438,-2.3748,-2.3376,-2.3567,-2.3619,-2.3363,-2.3166,-2.3236,-2.3589,-2.3589,-2.3616,-2.3623,-2.3446,-2.3327,-2.3148,-2.328,-2.3267,-2.3062,-2.2352,-2.2048,-2.2024,-2.1501,-2.1272,-2.1259,-2.0964,-2.0544,-2.0112,-1.9995,-1.939,-1.8619,-1.8444,-1.7997,-1.7342,-1.7148,-1.6846,-1.6581,-1.6477,-1.6431,-1.6431,-1.6431,-1.6431,-1.6301,-1.5949,-1.5477,-1.4974,-1.4464,-1.3415,-1.2167,-1.1069,-1.0685,-1.0653,-1.0754,-1.0676,-1.0726,-1.1219,-1.1256,-1.1336,-1.1586,-1.1409,-1.1136,-1.0982,-1.0748,0.0,0.0,-1.096,-1.1085,-1.1475,-1.1578,-1.1597,0.0,0.0,0.0,0.0,0.0,-1.4471,-1.5313,-1.5113,-1.4954,-1.4997,-1.4542,-1.4321,-1.4373,-1.3847,-1.3542,-1.3369,-1.2735,-1.2058,-1.141,-1.141,-1.1108,-1.06,-1.0446,-0.9925,-0.9138,-0.8732,-0.7931,-0.6966,-0.6578,-0.5764,-0.4846,-2.227,-2.2029,-2.1909,-2.2149,-2.1957,-2.1861,-2.2149,-2.2197,-2.2197,-2.2197,-2.2197,-2.2039,-2.1653,-2.1801,-2.1705,-2.109,-2.2339,-2.2949,-2.226,-2.2344,-2.2254,-2.204,-2.1768,-2.1781,-2.2134,-2.2134,-2.2103,-2.2101,-2.2043,-2.1866,-2.1558,-2.1866,-2.1866,-2.1546,-2.1209,-2.1076,-2.1064,-2.0485,-2.025,-2.0169,-1.9668,-1.9229,-1.8915,-1.8678,-1.8213,-1.7671,-1.7603,-1.7248,-1.6909,-1.6751,-1.6637,-1.6446,-1.6182,-1.5884,-1.5664,-1.5462,-1.5543,-1.5548,-1.4865,-1.4262,-1.3733,-1.2948,-1.1974,-1.1006,-1.0252,-1.0058,-1.0104,-1.0113,-1.0163,-1.0331,-1.0672,-1.0806,-1.0909,-1.1085,-1.0967,-1.0799,-1.0646,-1.0602,0.0,-1.0828,-1.0982,-1.1202,-1.1593,-1.1622,-1.1575,-1.1597,0.0,0.0,-1.1981,-1.2304,-1.3089,-1.4378,-1.4374,-1.4344,-1.4306,-1.3801,-1.3557,-1.3563,-1.2861,-1.256,-1.2706,-1.2039,-1.1401,-1.0854,-1.0854,-1.0549,-1.0035,-0.9769,-0.9354,-0.8718,-0.7978,-0.723,-0.6534,-0.5819,-0.5113,-0.4405,-2.1079,-2.1163,-2.1296,-2.1753,-2.1825,-2.1861,-2.1945,-2.1957,-2.1957,-2.1957,-2.1884,-2.1594,-2.0889,-2.077,-2.0439,-1.9632,-2.1174,-2.1933,-2.1231,-2.0888,-2.0718,-2.0765,-2.0304,-2.0201,-2.0645,-2.0487,-2.0466,-2.055,-2.055,-2.025,-1.9714,-2.025,-2.025,-1.9714,-2.0121,-2.027,-2.0258,-1.9587,-1.932,-1.9228,-1.8275,-1.789,-1.7857,-1.7431,-1.7278,-1.7211,-1.7078,-1.6909,-1.6751,-1.6637,-1.6482,-1.6208,-1.5749,-1.5235,-1.469,-1.4034,-1.4115,-1.4263,-1.3511,-1.2899,-1.2205,-1.1124,-1.0565,-1.0162,-0.9851,-0.9799,-0.974,-0.9614,-0.9833,-1.0046,-1.0089,-1.0331,-1.055,-1.0646,-1.058,-1.0433,-1.0096,0.0,-1.0473,-1.0473,-1.0798,-1.1177,-1.1465,-1.1549,-1.1417,-1.1026,-1.1321,0.0,0.0,-1.1077,-1.1791,-1.2963,-1.3334,-1.3405,-1.3217,-1.2693,-1.2472,-1.2452,-1.1724,-1.1575,-1.195,-1.1351,-1.0804,-1.03,-1.03,-0.9984,-0.9458,-0.8988,-0.8672,-0.8402,-0.7122,-0.6475,-0.615,-0.4952,-0.4405,-0.4073,-2.0105,-2.0033,-2.0057,-2.0141,-2.0153,-2.031,-2.0791,-2.0863,-2.0863,-2.0863,-2.0629,-2.0476,-2.0323,-2.0076,-1.9679,-1.9057,-1.9297,-1.9479,-1.934,-1.9692,-1.968,-1.9239,-1.917,-1.9216,-1.953,-1.9249,-1.9356,-1.9831,-1.9831,-1.9773,-1.9714,-1.9843,-1.9773,-1.9632,-1.8789,-1.8389,-1.8367,-1.7888,-1.7655,-1.7655,-1.7476,-1.7387,-1.7387,-1.7311,-1.7211,-1.7011,-1.7011,-1.6842,-1.6637,-1.6637,-1.6273,-1.5729,-1.5184,-1.4676,-1.4024,-1.2653,-1.2316,-1.2449,-1.2745,-1.2075,-1.1124,-1.0522,-1.0205,-0.9999,-0.9851,-0.9799,-0.974,-0.9614,-0.965,-0.9775,-1.0046,-1.0141,-1.0353,-1.0909,-1.0536,-1.0084,-0.9788,0.0,-0.9782,-0.9826,-1.0262,-1.0774,-1.1112,-1.115,-1.1011,-1.0689,-1.0711,-1.0697,-1.0652,-1.0803,-1.0876,-1.0777,-1.1448,-1.1808,-1.1913,-1.1792,-1.1765,-1.1774,-1.1516,-1.1216,-1.0821,-1.0643,-1.0241,-0.9718,-0.9718,-0.9406,-0.8935,-0.883,-0.819,-0.7176,-0.675,-0.5932,-0.4944,-0.4625,-0.3849,-0.2959,-1.8987,-1.9155,-1.936,-1.936,-1.9588,-1.9865,-2.0129,-2.0418,-2.061,-2.0586,-2.0483,-2.0272,-1.9828,-1.9483,-1.8977,-1.8306,-1.8104,-1.8047,-1.8047,-1.8431,-1.8453,-1.8059,-1.8047,-1.8104,-1.8249,-1.8081,-1.8148,-1.8418,-1.8418,-1.8418,-1.8418,-1.8418,-1.8418,-1.8361,-1.7876,-1.7617,-1.7606,-1.7366,-1.7278,-1.7278,-1.72,-1.7145,-1.7145,-1.7043,-1.6976,-1.6877,-1.6499,-1.6303,-1.6161,-1.5516,-1.5138,-1.4764,-1.397,-1.3387,-1.2794,-1.1835,-1.1369,-1.1214,-1.1456,-1.1089,-1.0557,-1.0205,-0.9999,-0.9844,-0.9732,-0.9681,-0.9673,-0.9614,-0.9614,-0.9553,-0.9439,-0.9414,-0.939,-0.9395,-0.9378,0.0,0.0,-0.9325,-0.9538,-0.9869,-1.0034,-1.0253,-1.0763,-1.0814,-1.0748,-1.0602,-1.0587,-1.0514,-1.0338,-1.0379,-1.0287,-0.9916,-1.0685,-1.096,-1.0736,-1.0973,-1.1074,-1.104,-1.0618,-1.0474,-1.0482,-0.9821,-0.9562,-0.9562,-0.8928,-0.8718,-0.8778,-0.8143,-0.7498,-0.6799,-0.5987,-0.5277,-0.4618,-0.3846,-0.3181,-0.2681,-1.8181,-1.853,-1.8843,-1.8963,-1.9324,-1.96,-1.96,-1.9961,-2.0189,-2.0033,-1.9989,-1.963,-1.8834,-1.849,-1.7988,-1.7289,-1.7049,-1.694,-1.694,-1.7258,-1.7368,-1.7278,-1.7278,-1.7278,-1.7278,-1.7278,-1.7224,-1.7092,-1.7224,-1.7213,-1.7103,-1.7224,-1.7278,-1.7278,-1.7278,-1.7278,-1.7278,-1.7278,-1.7278,-1.7211,-1.7078,-1.6946,-1.6794,-1.6704,-1.6536,-1.6294,-1.5769,-1.5502,-1.5294,-1.4365,-1.3937,-1.3686,-1.2788,-1.2165,-1.1696,-1.1251,-1.082,-1.047,-1.047,-1.0316,-1.0213,-1.0007,-0.9844,-0.9732,-0.9614,-0.9614,-0.9614,-0.9614,-0.951,-0.9302,-0.8883,-0.8778,-0.8639,-0.8117,0.0,0.0,0.0,-0.869,-0.9046,-0.9494,-0.9359,-0.951,-1.0023,-1.0073,-1.0038,-0.9967,-0.996,-0.991,-0.9785,-0.9825,-0.971,-0.9621,-1.0182,-1.0344,-0.9888,-1.0226,-1.0372,-1.0344,-0.9821,-0.9821,-1.019,-0.9249,-0.904,-0.9354,-0.8349,-0.8084,-0.8349,-0.7456,-0.6864,-0.6308,-0.5277,-0.4618,-0.4119,-0.3067,-0.2625,-0.2406,-1.8109,-1.8229,-1.8422,-1.8903,-1.9023,-1.9047,-1.9047,-1.9083,-1.8939,-1.8434,-1.8168,-1.7721,-1.6903,-1.6542,-1.6276,-1.5997,-1.5946,-1.5883,-1.5883,-1.6339,-1.6787,-1.7256,-1.7278,-1.7278,-1.7278,-1.7278,-1.7049,-1.6568,-1.7049,-1.7038,-1.659,-1.706,-1.7278,-1.7278,-1.7278,-1.7278,-1.7278,-1.7278,-1.7211,-1.7011,-1.7011,-1.6642,-1.6158,-1.6158,-1.5756,-1.5079,-1.465,-1.4305,-1.4007,-1.3588,-1.3143,-1.2715,-1.214,-1.1688,-1.126,-1.0726,-1.0419,-1.0316,-1.0316,-1.0162,-0.9999,-0.9851,-0.9732,-0.9614,-0.9614,-0.9614,-0.9614,-0.9614,-0.9197,-0.8823,-0.883,-0.8778,-0.8705,-0.8423,0.0,0.0,-0.7773,-0.7588,-0.7599,-0.7773,-0.7929,-0.816,-0.8546,-0.8577,-0.8417,-0.811,-0.8092,-0.8353,-0.8864,-0.8917,-0.9113,-0.9562,-0.9666,-0.9666,-0.9614,-0.9666,-0.9666,-0.9666,-0.9614,-0.9614,-0.9614,-0.9086,-0.883,-0.883,-0.819,-0.7664,-0.7246,-0.7139,-0.6263,-0.5062,-0.4952,-0.4064,-0.2847,-0.2736,-0.235,-0.1853,-1.6644,-1.6691,-1.6798,-1.7003,-1.7303,-1.752,-1.752,-1.7796,-1.7891,-1.7561,-1.7438,-1.7205,-1.6685,-1.6423,-1.6221,-1.6131,-1.5928,-1.5785,-1.5785,-1.5949,-1.6448,-1.7245,-1.7278,-1.7278,-1.7278,-1.6961,-1.671,-1.6514,-1.6426,-1.6284,-1.6046,-1.6295,-1.6383,-1.6383,-1.6383,-1.633,-1.6266,-1.6266,-1.6148,-1.602,-1.5914,-1.5541,-1.5012,-1.4958,-1.4518,-1.3962,-1.3489,-1.3274,-1.303,-1.2332,-1.1997,-1.172,-1.1224,-1.0875,-1.0624,-1.0308,-1.0154,-1.011,-1.0007,-0.9955,-0.9851,-0.9799,-0.9681,-0.9614,-0.9614,-0.9614,-0.951,-0.9197,-0.8935,-0.8567,-0.7877,-0.7771,-0.7591,-0.7093,0.0,-0.7645,-0.7313,-0.7274,-0.7378,-0.7755,-0.7566,-0.7589,-0.8033,-0.8082,-0.8033,-0.7931,-0.7925,-0.7978,-0.8243,-0.8243,-0.8508,-0.9086,-0.9093,-0.9249,-0.9614,-0.9614,-0.9614,-0.9614,-0.9249,-0.9093,-0.9093,-0.8137,-0.7931,-0.819,-0.7241,-0.6923,-0.7025,-0.6204,-0.5496,-0.4842,-0.3956,-0.3292,-0.2681,-0.2294,-0.202,-0.1797,-1.6008,-1.6032,-1.6092,-1.626,-1.6584,-1.6871,-1.6871,-1.7183,-1.7315,-1.6966,-1.6942,-1.6775,-1.6358,-1.6093,-1.5898,-1.58,-1.5516,-1.5378,-1.5378,-1.552,-1.5968,-1.6787,-1.6819,-1.6819,-1.6819,-1.6481,-1.623,-1.6077,-1.5913,-1.5698,-1.5557,-1.5709,-1.5785,-1.5723,-1.5723,-1.5672,-1.5558,-1.5558,-1.5455,-1.5341,-1.5226,-1.4769,-1.4126,-1.4021,-1.3537,-1.2842,-1.2382,-1.2225,-1.2061,-1.1285,-1.1074,-1.0972,-1.0573,-1.0316,-1.0162,-0.9999,-0.9947,-0.9844,-0.9577,-0.9472,-0.9524,-0.9688,-0.9517,-0.9347,-0.9347,-0.919,-0.8981,-0.8613,-0.8402,-0.8037,-0.7241,-0.7085,-0.6928,-0.6287,-0.6712,-0.7031,-0.682,-0.6815,-0.6977,-0.7343,-0.7031,-0.6977,-0.7343,-0.7343,-0.7343,-0.7343,-0.7343,-0.745,-0.7664,-0.7818,-0.8084,-0.8508,-0.8508,-0.8718,-0.9086,-0.9249,-0.9347,-0.9354,-0.8771,-0.8508,-0.8508,-0.7509,-0.7295,-0.761,-0.649,-0.6164,-0.6367,-0.5328,-0.4673,-0.4177,-0.3239,-0.2683,-0.235,-0.1964,-0.1797,-0.1797,-1.6476,-1.6572,-1.6786,-1.7303,-1.74,-1.74,-1.74,-1.74,-1.7219,-1.6644,-1.6572,-1.6322,-1.556,-1.5244,-1.4971,-1.4697,-1.4512,-1.4373,-1.4373,-1.4832,-1.5312,-1.5753,-1.5774,-1.5785,-1.5785,-1.5774,-1.5596,-1.5105,-1.5535,-1.5524,-1.5116,-1.5546,-1.5712,-1.5599,-1.5599,-1.5496,-1.5382,-1.5382,-1.5278,-1.5164,-1.5164,-1.4522,-1.3457,-1.3457,-1.28,-1.1737,-1.1404,-1.1162,-1.0939,-1.0589,-1.0522,-1.047,-1.0316,-1.0162,-0.9947,-0.9851,-0.9799,-0.9636,-0.8988,-0.8778,-0.8928,-0.9458,-0.919,-0.8771,-0.8771,-0.8349,-0.7925,-0.7871,-0.745,-0.7085,-0.7085,-0.7085,-0.6869,-0.6282,-0.6712,-0.6869,-0.6282,-0.6178,-0.6178,-0.6178,-0.6178,-0.6178,-0.6178,-0.6178,-0.6178,-0.6178,-0.6178,-0.6445,-0.7085,-0.761,-0.7871,-0.7871,-0.7871,-0.7871,-0.7871,-0.8508,-0.8771,-0.8771,-0.819,-0.7871,-0.7871,-0.7348,-0.7085,-0.7031,-0.6055,-0.5395,-0.5054,-0.468,-0.3849,-0.2905,-0.2905,-0.2464,-0.1797,-0.1797,-0.1797,-0.1741,-1.5996,-1.6032,-1.608,-1.6236,-1.626,-1.626,-1.626,-1.626,-1.6109,-1.5624,-1.5567,-1.5326,-1.48,-1.4651,-1.4569,-1.4523,-1.4419,-1.4373,-1.4373,-1.4515,-1.4657,-1.481,-1.5465,-1.5785,-1.5785,-1.5498,-1.5247,-1.5105,-1.4908,-1.4686,-1.4486,-1.459,-1.4618,-1.4483,-1.4483,-1.4376,-1.4268,-1.3867,-1.365,-1.3501,-1.3103,-1.2535,-1.1939,-1.1939,-1.1532,-1.0865,-1.0759,-1.0688,-1.0613,-1.0407,-1.0368,-1.0316,-1.0058,-0.9903,-0.9844,-0.9673,-0.9673,-0.9517,-0.8935,-0.8778,-0.8718,-0.8455,-0.8296,-0.819,-0.819,-0.8031,-0.7765,-0.7402,-0.7187,-0.6977,-0.6549,-0.6445,-0.6391,-0.6232,-0.6337,-0.6391,-0.6232,-0.6178,-0.6178,-0.6178,-0.6178,-0.6178,-0.6178,-0.6178,-0.6178,-0.6178,-0.6178,-0.6445,-0.7085,-0.6869,-0.6923,-0.7348,-0.7348,-0.7348,-0.7348,-0.7871,-0.819,-0.8137,-0.761,-0.7348,-0.7295,-0.6712,-0.6445,-0.6445,-0.5609,-0.5164,-0.4995,-0.3846,-0.3183,-0.285,-0.2352,-0.202,-0.1797,-0.1797,-0.1572,-0.1286,-1.5792,-1.5792,-1.5792,-1.5792,-1.5792,-1.5792,-1.5792,-1.5792,-1.5659,-1.5289,-1.5244,-1.5108,-1.4743,-1.4558,-1.4512,-1.4512,-1.4477,-1.4373,-1.4373,-1.4373,-1.4373,-1.4373,-1.4941,-1.5258,-1.5258,-1.4963,-1.481,-1.481,-1.4526,-1.4326,-1.4222,-1.4222,-1.4093,-1.3915,-1.3915,-1.3868,-1.3668,-1.317,-1.2861,-1.2764,-1.2197,-1.171,-1.1326,-1.1326,-1.0972,-1.0522,-1.0522,-1.047,-1.0419,-1.0324,-1.0213,-1.0058,-0.9851,-0.9636,-0.9368,-0.9302,-0.9086,-0.8823,-0.8296,-0.8143,-0.7984,-0.7396,-0.7396,-0.7557,-0.7557,-0.7396,-0.7133,-0.6815,-0.6766,-0.6657,-0.6287,-0.6178,-0.6178,-0.6178,-0.6178,-0.6178,-0.6178,-0.6178,-0.6178,-0.6178,-0.6178,-0.6178,-0.6178,-0.6178,-0.6178,-0.6178,-0.6178,-0.6337,-0.6712,-0.6391,-0.6391,-0.6712,-0.6766,-0.6766,-0.6766,-0.7079,-0.7343,-0.7557,-0.7031,-0.6766,-0.6712,-0.6223,-0.5955,-0.59,-0.5007,-0.4505,-0.4281,-0.3125,-0.2573,-0.2408,-0.1964,-0.1685,-0.1515,-0.1515,-0.1224,-0.0822,-1.5792,-1.5792,-1.5792,-1.5792,-1.5792,-1.5792,-1.5792,-1.5792,-1.5748,-1.5513,-1.5513,-1.5379,-1.5108,-1.4834,-1.4697,-1.4662,-1.4523,-1.4373,-1.4373,-1.4373,-1.4373,-1.4373,-1.4373,-1.4373,-1.4373,-1.4373,-1.4373,-1.4373,-1.4373,-1.4326,-1.4222,-1.4222,-1.4046,-1.3821,-1.3821,-1.3716,-1.3515,-1.2967,-1.2716,-1.2618,-1.2098,-1.161,-1.1226,-1.1226,-1.0922,-1.0522,-1.0522,-1.0419,-1.0265,-1.0213,-0.9947,-0.9688,-0.9636,-0.9204,-0.8725,-0.8725,-0.8349,-0.7765,-0.7241,-0.7085,-0.6977,-0.6337,-0.6603,-0.7031,-0.7031,-0.6603,-0.6178,-0.6178,-0.6178,-0.6178,-0.6178,-0.6178,-0.6178,-0.6178,-0.6178,-0.6178,-0.6178,-0.6178,-0.6178,-0.6178,-0.6178,-0.6178,-0.6178,-0.6178,-0.6178,-0.6178,-0.6178,-0.6178,-0.6178,-0.6178,-0.6178,-0.6178,-0.6178,-0.6178,-0.6178,-0.6178,-0.65,-0.7031,-0.6445,-0.6178,-0.6119,-0.5786,-0.5563,-0.5454,-0.4294,-0.3569,-0.3234,-0.246,-0.2018,-0.1797,-0.1741,-0.1459,-0.1122,-0.1066,-0.077,-0.0374,-1.5792,-1.5792,-1.5792,-1.5792,-1.5792,-1.5792,-1.5792,-1.5792,-1.5748,-1.5513,-1.5513,-1.5334,-1.4846,-1.4743,-1.4662,-1.4477,-1.4419,-1.4373,-1.4373,-1.4373,-1.4373,-1.4373,-1.4373,-1.4373,-1.4373,-1.4373,-1.4373,-1.4373,-1.4373,-1.4326,-1.4222,-1.4222,-1.4046,-1.3821,-1.3821,-1.3515,-1.2967,-1.2393,-1.195,-1.156,-1.1065,-1.0769,-1.0667,-1.0667,-1.0624,-1.0522,-1.0522,-1.0419,-1.0213,-0.951,-0.9145,-0.8935,-0.8461,-0.819,-0.8084,-0.8084,-0.7978,-0.7765,-0.7241,-0.7085,-0.6977,-0.6337,-0.6287,-0.6391,-0.6391,-0.6282,-0.6178,-0.6178,-0.6178,-0.6178,-0.6178,-0.6178,-0.6178,-0.6178,-0.6178,-0.6178,-0.6178,-0.6178,-0.6178,-0.6178,-0.6178,-0.6178,-0.6178,-0.6178,-0.6178,-0.6178,-0.6178,-0.6178,-0.6178,-0.6178,-0.6178,-0.6178,-0.6178,-0.6178,-0.6178,-0.6178,-0.6287,-0.6391,-0.6287,-0.6009,-0.5732,-0.5622,-0.5399,-0.5011,-0.3901,-0.3345,-0.3231,-0.2296,-0.1853,-0.1741,-0.1403,-0.1178,-0.1066,-0.0673,-0.0279,0.011,-1.5792,-1.5792,-1.5792,-1.5792,-1.5792,-1.5792,-1.5792,-1.5792,-1.5748,-1.5513,-1.5513,-1.5334,-1.4926,-1.4789,-1.4605,-1.443,-1.4373,-1.4373,-1.4373,-1.4373,-1.4373,-1.4373,-1.4373,-1.4373,-1.4373,-1.4373,-1.4373,-1.4373,-1.4373,-1.4326,-1.4222,-1.414,-1.401,-1.3821,-1.3716,-1.3372,-1.2764,-1.2246,-1.171,-1.1267,-1.0718,-1.0522,-1.0522,-1.0522,-1.0522,-1.0522,-1.0522,-1.0368,-1.0051,-0.9458,-0.9242,-0.9086,-0.8508,-0.8137,-0.7871,-0.761,-0.7295,-0.7025,-0.6761,-0.6657,-0.6603,-0.6282,-0.6178,-0.6178,-0.6178,-0.6178,-0.6178,-0.6178,-0.6178,-0.6178,-0.6178,-0.6178,-0.6178,-0.6178,-0.6178,-0.6178,-0.6178,-0.6178,-0.6178,-0.6178,-0.6178,-0.6178,-0.6178,-0.6178,-0.6178,-0.6178,-0.6178,-0.6178,-0.6178,-0.6178,-0.6178,-0.6178,-0.6178,-0.6178,-0.6178,-0.6009,-0.59,-0.59,-0.59,-0.5791,-0.5563,-0.5011,-0.4625,-0.4291,-0.3236,-0.2792,-0.2681,-0.1849,-0.1459,-0.1403,-0.0954,-0.0673,-0.0449,-0.0224,0.0167,0.0545,-1.5792,-1.5792,-1.5792,-1.5792,-1.5792,-1.5792,-1.5792,-1.5792,-1.5748,-1.5558,-1.5558,-1.5424,-1.5108,-1.4834,-1.4569,-1.4419,-1.4373,-1.4373,-1.4373,-1.4373,-1.4373,-1.4373,-1.4373,-1.4373,-1.4373,-1.4373,-1.4373,-1.4373,-1.4373,-1.4326,-1.4222,-1.3999,-1.3821,-1.3668,-1.3467,-1.3064,-1.2521,-1.2049,-1.161,-1.1124,-1.0667,-1.0522,-1.0522,-1.0522,-1.0522,-1.0522,-1.0522,-1.0205,-0.9792,-0.9458,-0.9242,-0.9086,-0.8508,-0.8031,-0.7503,-0.7085,-0.6603,-0.6178,-0.6178,-0.6178,-0.6178,-0.6178,-0.6178,-0.6178,-0.6178,-0.6178,-0.6178,-0.6178,-0.6178,-0.6178,-0.6178,-0.6178,-0.6178,-0.6178,-0.6178,-0.6178,-0.6178,-0.6178,-0.6178,-0.6178,-0.6178,-0.6178,-0.6178,-0.6178,-0.6178,-0.6178,-0.6178,-0.6178,-0.6178,-0.6119,-0.6123,-0.6123,-0.6009,-0.5955,-0.5955,-0.5622,-0.5454,-0.5454,-0.5399,-0.5344,-0.5344,-0.4294,-0.3741,-0.363,-0.2629,-0.2183,-0.2071,-0.1401,-0.1066,-0.0954,-0.0449,-0.0112,0.0224,0.028,0.0549,0.0902,-1.5792,-1.5792,-1.5792,-1.5792,-1.5792,-1.5792,-1.5792,-1.5792,-1.5792,-1.5748,-1.5748,-1.5614,-1.5153,-1.4697,-1.4419,-1.4373,-1.4373,-1.4373,-1.4373,-1.4373,-1.4373,-1.4373,-1.4373,-1.4373,-1.4373,-1.4373,-1.4373,-1.4373,-1.4373,-1.4326,-1.4176,-1.3705,-1.3372,-1.3064,-1.2609,-1.208,-1.1519,-1.1418,-1.1074,-1.0624,-1.0522,-1.0522,-1.0522,-1.0522,-1.0522,-1.0522,-1.0522,-0.9999,-0.9211,-0.8554,-0.7925,-0.7348,-0.6761,-0.65,-0.6445,-0.6337,-0.6287,-0.6178,-0.6178,-0.6178,-0.6178,-0.6178,-0.6178,-0.6178,-0.6178,-0.6178,-0.6178,-0.6178,-0.6178,-0.6178,-0.6178,-0.6178,-0.6178,-0.6178,-0.6178,-0.6178,-0.6178,-0.6178,-0.6178,-0.6178,-0.6178,-0.6178,-0.6178,-0.6178,-0.6178,-0.6178,-0.6178,-0.6178,-0.6178,-0.5896,-0.5677,-0.5677,-0.5285,-0.5066,-0.5066,-0.5011,-0.5011,-0.5011,-0.4567,-0.4398,-0.4401,-0.3959,-0.3574,-0.313,-0.2462,-0.2015,-0.1679,-0.1233,-0.0842,-0.0449,-0.0056,0.0168,0.0224,0.0673,0.0823,0.0958,-1.5792,-1.5792,-1.5792,-1.5792,-1.5792,-1.5792,-1.5792,-1.5792,-1.5792,-1.5792,-1.5792,-1.5703,-1.5379,-1.488,-1.4512,-1.4419,-1.4373,-1.4373,-1.4373,-1.4373,-1.4373,-1.4373,-1.4373,-1.428,-1.4046,-1.4046,-1.3894,-1.3494,-1.3742,-1.38,-1.3752,-1.3054,-1.2667,-1.256,-1.2236,-1.1801,-1.1326,-1.1326,-1.0972,-1.0522,-1.0522,-1.0522,-1.0522,-1.0522,-1.0522,-1.0462,-1.0095,-0.9725,-0.9309,-0.8679,-0.8203,-0.7729,-0.7144,-0.682,-0.6657,-0.6287,-0.6178,-0.6178,-0.6178,-0.6178,-0.6178,-0.6178,-0.6178,-0.6178,-0.6178,-0.6178,-0.6178,-0.6178,-0.6178,-0.6178,-0.6178,-0.6178,-0.6178,-0.6178,-0.6178,-0.6178,-0.6178,-0.6178,-0.6178,-0.6178,-0.6178,-0.6119,-0.59,-0.5845,-0.5732,-0.5508,-0.5454,-0.5454,-0.5454,-0.5289,-0.5234,-0.5234,-0.5007,-0.4897,-0.4897,-0.4622,-0.4512,-0.4512,-0.4073,-0.3962,-0.4177,-0.3519,-0.3079,-0.2856,-0.1961,-0.1457,-0.1288,-0.0617,-0.0224,-0.0,0.0393,0.0617,0.0673,0.1176,0.1369,0.1382]},{"header":{"parameterUnit":"m.s-1","parameterCategory":1,"la1":30.6,"la2":28.766,"lo1":-90.7593,"lo2":-88.6598,"dy":0.0162,"dx":0.0183,"nx":116,"ny":114,"refTime":"2023-08-10T06:00:00:Z","depth":0,"parameterNumber":3,"parameterNumberName":"V-component_of_WINDS"},"data":[0.0,0.0,0.0,0.0,0.0,0.0,0.0,0.0,0.0,0.0,0.0,0.0,0.0,0.0,0.0,0.0,0.0,0.0,0.0,0.0,0.0,0.0,0.0,0.0,0.0,0.0,0.0,0.0,0.0,0.0,0.0,0.0,0.0,0.0,0.0,0.0,0.0,0.0,0.0,0.0,0.0,0.0,0.0,0.0,0.0,0.0,0.0,0.0,0.0,0.0,0.0,0.0,0.0,0.0,0.0,0.0,0.0,0.0,0.0,0.0,0.0,0.0,0.0,0.0,0.0,0.0,0.0,0.0,0.0,0.0,0.0,0.0,0.0,0.0,0.0,0.0,0.0,0.0,0.0,0.0,0.0,0.0,0.0,0.0,0.0,0.0,0.0,0.0,0.0,0.0,0.0,0.0,0.0,0.0,0.0,0.0,0.0,0.0,0.0,0.0,0.0,0.0,0.0,0.0,0.0,0.0,0.0,0.0,0.0,0.0,0.0,0.0,0.0,0.0,0.0,0.0,0.0,0.0,0.0,0.0,0.0,0.0,0.0,0.0,0.0,0.0,0.0,0.0,0.0,0.0,0.0,0.0,0.0,0.0,0.0,0.0,0.0,0.0,0.0,0.0,0.0,0.0,0.0,0.0,0.0,0.0,0.0,0.0,0.0,0.0,0.0,0.0,0.0,0.0,0.0,0.0,0.0,0.0,0.0,0.0,0.0,0.0,0.0,0.0,0.0,0.0,0.0,0.0,0.0,0.0,0.0,0.0,0.0,0.0,0.0,0.0,0.0,0.0,0.0,0.0,0.0,0.0,0.0,0.0,0.0,0.0,0.0,0.0,0.0,0.0,0.0,0.0,0.0,0.0,0.0,0.0,0.0,0.0,0.0,0.0,0.0,0.0,0.0,0.0,0.0,0.0,0.0,0.0,0.0,0.0,0.0,0.0,0.0,0.0,0.0,0.0,0.0,0.0,0.0,0.0,0.0,0.0,0.0,0.0,0.0,0.0,0.0,0.0,0.0,0.0,0.0,0.0,0.0,0.0,0.0,0.0,0.0,0.0,0.0,0.0,0.0,0.0,0.0,0.0,0.0,0.0,0.0,0.0,0.0,0.0,0.0,0.0,0.0,0.0,0.0,0.0,0.0,0.0,0.0,0.0,0.0,0.0,0.0,0.0,0.0,0.0,0.0,0.0,0.0,0.0,0.0,0.0,0.0,0.0,0.0,0.0,0.0,0.0,0.0,0.0,0.0,0.0,0.0,0.0,0.0,0.0,0.0,0.0,0.0,0.0,0.0,0.0,0.0,0.0,0.0,0.0,0.0,0.0,0.0,0.0,0.0,0.0,0.0,0.0,0.0,0.0,0.0,0.0,0.0,0.0,0.0,0.0,0.0,0.0,0.0,0.0,0.0,0.0,0.0,0.0,0.0,0.0,0.0,0.0,0.0,0.0,0.0,0.0,0.0,0.0,0.0,0.0,0.0,0.0,0.0,0.0,0.0,0.0,0.0,0.0,0.0,0.0,0.0,0.0,0.0,0.0,0.0,0.0,0.0,0.0,0.0,0.0,0.0,0.0,0.0,0.0,0.0,0.0,0.0,0.0,0.0,0.0,0.0,0.0,0.0,0.0,0.0,0.0,0.0,0.0,0.0,0.0,0.0,0.0,0.0,0.0,0.0,0.0,0.0,0.0,0.0,0.0,0.0,0.0,0.0,0.0,0.0,0.0,0.0,0.0,0.0,0.0,0.0,0.0,0.0,0.0,0.0,0.0,0.0,0.0,0.0,0.0,0.0,0.0,0.0,0.0,0.0,0.0,0.0,0.0,0.0,0.0,0.0,0.0,0.0,0.0,0.0,0.0,0.0,0.0,0.0,0.0,0.0,0.0,0.0,0.0,0.0,0.0,0.0,0.0,0.0,0.0,0.0,0.0,0.0,0.0,0.0,0.0,0.0,0.0,0.0,0.0,0.0,0.0,0.0,0.0,0.0,0.0,0.0,0.0,0.0,0.0,0.0,0.0,0.0,0.0,0.0,0.0,0.0,0.0,0.0,0.0,0.0,0.0,0.0,0.0,0.0,0.0,0.0,0.0,0.0,0.0,0.0,0.0,0.0,0.0,0.0,0.0,0.0,0.0,0.0,0.0,0.0,0.0,0.0,0.0,0.0,0.0,0.0,0.0,0.0,0.0,0.0,0.0,0.0,0.0,0.0,0.0,0.0,0.0,0.0,0.0,0.0,0.0,0.0,0.0,0.0,0.0,0.0,0.0,0.0,0.0,0.0,0.0,0.0,0.0,0.0,0.0,0.0,0.0,0.0,0.0,0.0,0.0,0.0,0.0,0.0,0.0,0.0,0.0,0.0,0.0,0.0,0.0,0.0,0.0,0.0,0.0,0.0,0.0,0.0,0.0,0.0,0.0,0.0,0.0,0.0,0.0,0.0,0.0,0.0,0.0,0.0,0.0,0.0,0.0,0.0,0.0,0.0,0.0,0.0,0.0,0.0,0.0,0.0,0.0,0.0,0.0,0.0,0.0,0.0,0.0,0.0,0.0,0.0,0.0,0.0,0.0,0.0,0.0,0.0,0.0,0.0,0.0,0.0,0.0,0.0,0.0,0.0,0.0,0.0,0.0,0.0,0.0,0.0,0.0,0.0,0.0,0.0,0.0,0.0,0.0,0.0,0.0,0.0,0.0,0.0,0.0,0.0,0.0,0.0,0.0,0.0,0.0,0.0,0.0,0.0,0.0,0.0,0.0,0.0,0.0,0.0,0.0,0.0,0.0,0.0,0.0,0.0,0.0,0.0,0.0,0.0,0.0,0.0,0.0,0.0,0.0,0.0,0.0,0.0,0.0,0.0,0.0,0.0,0.0,0.0,0.0,0.0,0.0,0.0,0.0,0.0,0.0,0.0,0.0,0.0,0.0,0.0,0.0,0.0,0.0,0.0,0.0,0.0,0.0,0.0,0.0,0.0,0.0,0.0,0.0,0.0,0.0,0.0,0.0,0.0,0.0,0.0,0.0,0.0,0.0,0.0,0.0,0.0,0.0,0.0,0.0,0.0,0.0,0.0,0.0,0.0,0.0,0.0,0.0,0.0,0.0,0.0,0.0,0.0,0.0,0.0,0.0,0.0,0.0,0.0,0.0,0.0,0.0,0.0,0.0,0.0,0.0,0.0,0.0,0.0,0.0,0.0,0.0,0.0,0.0,0.0,0.0,0.0,0.0,0.0,0.0,0.0,0.0,0.0,0.0,0.0,0.0,0.0,0.0,0.0,0.0,0.0,0.0,0.0,0.0,0.0,0.0,0.0,0.0,0.0,0.0,0.0,0.0,0.0,0.0,0.0,0.0,0.0,0.0,0.0,0.0,0.0,0.0,0.0,0.0,0.0,0.0,0.0,0.0,0.0,0.0,0.0,0.0,0.0,0.0,0.0,0.0,0.0,0.0,0.0,0.0,0.0,0.0,0.0,0.0,0.0,0.0,0.0,0.0,0.0,0.0,0.0,0.0,0.0,0.0,0.0,0.0,0.0,0.0,0.0,0.0,0.0,0.0,0.0,0.0,0.0,0.0,0.0,0.0,0.0,0.0,0.0,0.0,0.0,0.0,0.0,0.0,0.0,0.0,0.0,0.0,0.0,0.0,0.0,0.0,0.0,0.0,0.0,0.0,0.0,0.0,0.0,0.0,0.0,0.0,0.0,0.0,0.0,0.0,0.0,0.0,0.0,0.0,0.0,0.0,0.0,0.0,0.0,0.0,0.0,0.0,0.0,0.0,0.0,0.0,0.0,0.0,0.0,0.0,0.0,0.0,0.0,0.0,0.0,0.0,0.0,0.0,0.0,0.0,0.0,0.0,0.0,0.0,0.0,0.0,0.0,0.0,0.0,0.0,0.0,0.0,0.0,0.0,0.0,0.0,0.0,0.0,0.0,0.0,0.0,0.0,0.0,0.0,0.0,0.0,0.0,0.0,0.0,0.0,0.0,0.0,0.0,0.0,0.0,0.0,0.0,0.0,0.0,0.0,0.0,0.0,0.0,0.0,0.0,0.0,0.0,0.0,0.0,0.0,0.0,0.0,0.0,0.0,0.0,0.0,0.0,0.0,0.0,0.0,0.0,0.0,0.0,0.0,0.0,0.0,0.0,0.0,0.0,0.0,0.0,0.0,0.0,0.0,0.0,0.0,0.0,0.0,0.0,0.0,0.0,0.0,0.0,0.0,0.0,0.0,0.0,0.0,0.0,0.0,0.0,0.0,0.0,0.0,0.0,0.0,0.0,0.0,0.0,0.0,0.0,0.0,0.0,0.0,0.0,0.0,0.0,0.0,0.0,0.0,0.0,0.0,0.0,0.0,0.0,0.0,0.0,0.0,0.0,0.0,0.0,0.0,0.0,0.0,0.0,0.0,0.0,0.0,0.0,0.0,0.0,0.0,0.0,0.0,0.0,0.0,0.0,0.0,0.0,0.0,0.0,0.0,0.0,0.0,0.0,0.0,0.0,0.0,0.0,0.0,0.0,0.0,0.0,0.0,0.0,0.0,0.0,0.0,0.0,0.0,0.0,0.0,0.0,0.0,0.0,0.0,0.0,0.0,0.0,0.0,0.0,0.0,0.0,0.0,0.0,0.0,0.0,0.0,0.0,0.0,0.0,0.0,0.0,0.0,0.0,0.0,0.0,0.0,0.0,0.0,0.0,0.0,0.0,0.0,0.0,0.0,0.0,0.0,0.0,0.0,0.0,0.0,0.0,0.0,0.0,0.0,0.0,0.0,0.0,0.0,0.0,0.0,0.0,0.0,0.0,0.0,0.0,0.0,0.0,0.0,0.0,0.0,0.0,0.0,0.0,0.0,0.0,0.0,0.0,0.0,0.0,0.0,0.0,0.0,0.0,0.0,0.0,0.0,0.0,0.0,0.0,0.0,0.0,0.0,0.0,0.0,0.0,0.0,0.0,0.0,0.0,0.0,0.0,0.0,0.0,0.0,0.0,0.0,0.0,0.0,0.0,0.0,0.0,0.0,0.0,0.0,0.0,0.0,0.0,0.0,0.0,0.0,0.0,0.0,0.0,0.0,0.0,0.0,0.0,0.0,0.0,0.0,0.0,0.0,0.0,0.0,0.0,0.0,0.0,0.0,0.0,0.0,0.0,0.0,0.0,0.0,0.0,0.0,0.0,0.0,0.0,0.0,0.0,0.0,0.0,0.0,0.0,0.0,0.0,0.0,0.0,0.0,0.0,0.0,0.0,0.0,0.0,0.0,0.0,0.0,0.0,0.0,0.0,0.0,0.0,0.0,0.0,0.0,0.0,0.0,0.0,0.0,0.0,0.0,0.0,0.0,0.0,0.0,0.0,0.0,0.0,0.0,0.0,0.0,0.0,0.0,0.0,0.0,0.0,0.0,0.0,0.0,0.0,0.0,0.0,0.0,0.0,0.0,0.0,0.0,0.0,0.0,0.0,0.0,0.0,0.0,0.0,0.0,0.0,0.0,0.0,0.0,0.0,0.0,0.0,0.0,0.0,0.0,0.0,0.0,0.0,0.0,0.0,0.0,0.0,0.0,0.0,0.0,0.0,0.0,0.0,0.0,0.0,0.0,0.0,0.0,0.0,0.0,0.0,0.0,0.0,0.0,0.0,0.0,0.0,0.0,0.0,0.0,0.0,0.0,0.0,0.0,0.0,0.0,0.0,0.0,0.0,0.0,0.0,0.0,0.0,0.0,0.0,0.0,0.0,0.0,0.0,0.0,0.0,0.0,0.0,0.0,0.0,0.0,0.0,0.0,0.0,0.0,0.0,0.0,0.0,0.0,0.0,0.0,0.0,0.0,0.0,0.0,0.0,0.0,0.0,0.0,0.0,0.0,0.0,0.0,0.0,0.0,0.0,0.0,0.0,0.0,0.0,0.0,0.0,0.0,0.0,0.0,0.0,0.0,0.0,0.0,0.0,0.0,0.0,0.0,0.0,0.0,0.0,0.0,0.0,0.0,0.0,0.0,0.0,0.0,0.0,0.0,0.0,0.0,0.0,0.0,0.0,0.0,0.0,0.0,0.0,0.0,0.0,0.0,0.0,0.0,0.0,0.0,0.0,0.0,0.0,0.0,0.0,0.0,0.0,0.0,0.0,0.0,-2.4225,0.0,0.0,0.0,0.0,0.0,0.0,0.0,0.0,0.0,0.0,0.0,0.0,0.0,0.0,0.0,0.0,0.0,0.0,0.0,0.0,0.0,0.0,0.0,0.0,0.0,0.0,0.0,0.0,0.0,0.0,0.0,0.0,0.0,0.0,0.0,0.0,0.0,0.0,0.0,0.0,0.0,0.0,0.0,0.0,0.0,0.0,0.0,0.0,0.0,0.0,0.0,0.0,0.0,0.0,0.0,0.0,0.0,0.0,0.0,0.0,0.0,0.0,0.0,0.0,0.0,0.0,0.0,0.0,0.0,0.0,0.0,0.0,0.0,0.0,0.0,0.0,0.0,0.0,0.0,0.0,0.0,0.0,0.0,0.0,0.0,0.0,0.0,0.0,0.0,0.0,0.0,0.0,0.0,0.0,0.0,0.0,0.0,0.0,0.0,0.0,0.0,0.0,0.0,0.0,0.0,0.0,0.0,0.0,0.0,0.0,0.0,0.0,0.0,0.0,0.0,0.0,-2.6425,0.0,0.0,0.0,0.0,0.0,0.0,0.0,0.0,0.0,0.0,0.0,0.0,0.0,0.0,0.0,0.0,0.0,0.0,0.0,0.0,0.0,0.0,0.0,0.0,0.0,0.0,0.0,0.0,0.0,0.0,0.0,0.0,0.0,0.0,0.0,0.0,0.0,0.0,0.0,0.0,0.0,0.0,0.0,0.0,0.0,0.0,0.0,0.0,0.0,0.0,0.0,0.0,0.0,0.0,0.0,0.0,0.0,0.0,0.0,0.0,0.0,0.0,0.0,0.0,0.0,0.0,0.0,0.0,0.0,0.0,0.0,0.0,0.0,0.0,0.0,0.0,0.0,0.0,0.0,0.0,0.0,0.0,0.0,0.0,0.0,0.0,0.0,0.0,0.0,0.0,0.0,0.0,0.0,0.0,0.0,0.0,0.0,0.0,0.0,0.0,0.0,0.0,0.0,0.0,0.0,0.0,0.0,0.0,-2.5317,-2.6265,-2.7941,-2.7588,-2.885,-3.1077,-2.9017,-2.9578,-3.1766,0.0,0.0,0.0,0.0,0.0,0.0,0.0,0.0,0.0,0.0,0.0,0.0,0.0,0.0,0.0,0.0,0.0,0.0,0.0,0.0,0.0,0.0,0.0,0.0,0.0,0.0,0.0,0.0,0.0,0.0,0.0,0.0,0.0,0.0,0.0,0.0,0.0,0.0,0.0,-1.344,-1.4275,-1.5507,-1.7164,0.0,0.0,0.0,0.0,0.0,0.0,0.0,0.0,0.0,0.0,0.0,0.0,0.0,0.0,0.0,0.0,0.0,0.0,0.0,0.0,0.0,0.0,0.0,0.0,0.0,0.0,0.0,0.0,0.0,0.0,0.0,0.0,0.0,0.0,0.0,0.0,0.0,0.0,0.0,0.0,0.0,0.0,0.0,0.0,-2.0605,-2.1773,0.0,0.0,0.0,0.0,0.0,0.0,0.0,0.0,0.0,0.0,0.0,0.0,0.0,-2.3831,-2.3996,-2.5399,-2.6188,-2.6362,-2.7416,-2.8081,-2.8394,-2.8837,-3.0078,-3.1767,-3.1645,0.0,-3.2374,-3.2167,0.0,0.0,0.0,0.0,0.0,0.0,0.0,0.0,0.0,0.0,0.0,0.0,0.0,0.0,0.0,0.0,0.0,0.0,0.0,0.0,0.0,0.0,0.0,0.0,0.0,0.0,0.0,0.0,0.0,0.0,0.0,0.0,0.0,0.0,0.0,0.0,-1.1966,-1.3209,-1.4048,-1.4955,-1.6045,-1.7249,-1.9046,-2.0123,-2.0749,-2.1702,0.0,0.0,0.0,0.0,0.0,0.0,0.0,0.0,0.0,0.0,0.0,0.0,0.0,0.0,0.0,0.0,0.0,0.0,0.0,0.0,0.0,0.0,0.0,0.0,0.0,0.0,0.0,0.0,0.0,0.0,0.0,0.0,0.0,0.0,0.0,0.0,0.0,0.0,0.0,-2.0146,-2.152,-2.1111,-2.1234,-2.0993,0.0,0.0,0.0,0.0,0.0,0.0,0.0,0.0,0.0,-2.428,-2.4867,-2.55,-2.6178,-2.6894,-2.7481,-2.7939,-2.8251,-2.8969,-3.0068,-3.065,-3.1542,-3.2916,-3.3654,-3.3971,-3.3919,-3.3042,-3.1991,-3.0859,0.0,0.0,0.0,0.0,0.0,-3.0453,0.0,0.0,0.0,0.0,0.0,0.0,0.0,0.0,0.0,0.0,0.0,0.0,0.0,0.0,0.0,0.0,0.0,0.0,0.0,0.0,0.0,0.0,0.0,0.0,0.0,0.0,0.0,0.0,-1.2144,-1.3155,-1.4023,-1.5086,-1.5972,-1.6914,-1.8675,-2.0256,-2.1538,-2.2321,-2.229,0.0,0.0,0.0,0.0,0.0,0.0,0.0,0.0,0.0,0.0,0.0,0.0,0.0,0.0,0.0,0.0,0.0,0.0,0.0,0.0,0.0,0.0,0.0,0.0,0.0,0.0,0.0,0.0,0.0,0.0,0.0,0.0,0.0,0.0,0.0,0.0,0.0,0.0,-2.1533,-2.2553,-2.1043,-2.213,-2.2306,0.0,0.0,0.0,0.0,0.0,0.0,-2.3235,-2.3831,-2.4721,-2.594,-2.6371,-2.7013,-2.7921,-2.8022,-2.8333,-2.8828,-2.8867,-2.9552,-3.0928,-3.1635,-3.2497,-3.3441,-3.4382,-3.4818,-3.4851,-3.379,-3.2975,-3.2311,-3.1677,-3.1262,-3.1116,-3.1175,-3.1395,-3.1705,0.0,0.0,0.0,0.0,0.0,0.0,0.0,0.0,0.0,0.0,0.0,0.0,0.0,0.0,0.0,0.0,0.0,0.0,0.0,0.0,0.0,0.0,0.0,0.0,0.0,0.0,0.0,-0.983,-1.1009,-1.2041,-1.2925,-1.3625,-1.4744,-1.6111,-1.7497,-1.9685,-2.24,-2.2503,-2.3039,-2.3819,0.0,0.0,0.0,0.0,0.0,0.0,0.0,0.0,0.0,0.0,0.0,0.0,0.0,0.0,0.0,0.0,0.0,0.0,0.0,0.0,0.0,0.0,0.0,0.0,0.0,0.0,0.0,0.0,0.0,0.0,0.0,0.0,0.0,0.0,0.0,0.0,0.0,0.0,0.0,-2.3471,-2.4927,0.0,0.0,0.0,0.0,-2.3363,-2.3446,-2.4152,-2.5693,-2.5812,-2.6389,-2.7609,-2.8049,-2.8297,-2.8361,-2.8737,-2.8755,-2.8425,-2.9518,-2.9867,-2.96,-3.1325,-3.2383,-3.2663,-3.3444,-3.396,-3.4181,-3.4569,-3.4134,-3.3159,-3.2618,-3.2014,-3.1282,-3.0783,-3.1412,-3.2394,0.0,0.0,0.0,0.0,0.0,0.0,0.0,0.0,0.0,0.0,0.0,0.0,0.0,0.0,0.0,0.0,0.0,0.0,0.0,0.0,0.0,0.0,0.0,0.0,0.0,0.0,-0.7513,-0.8968,-1.0239,-1.1137,-1.1707,-1.2535,-1.3658,-1.5002,-1.6486,-1.844,-2.0733,-2.2395,-2.3366,-2.3758,-2.325,-2.3062,0.0,0.0,0.0,0.0,0.0,0.0,0.0,0.0,0.0,0.0,0.0,0.0,0.0,0.0,0.0,0.0,0.0,0.0,0.0,0.0,0.0,0.0,0.0,0.0,0.0,0.0,0.0,0.0,0.0,0.0,0.0,0.0,0.0,0.0,0.0,0.0,0.0,-2.4813,-2.6072,0.0,-2.4749,-2.4553,-2.4565,-2.4711,-2.5445,-2.6023,-2.6344,-2.7105,-2.7481,-2.7389,-2.8287,-2.8517,-2.7994,-2.8397,-2.8728,-2.9098,-2.9148,-2.9737,-3.0589,-3.1869,-3.2515,-3.2712,-3.4101,-3.4556,-3.4359,-3.4635,-3.4492,-3.4039,-3.3946,-3.3839,-3.3551,-3.3023,-3.3071,-3.3464,0.0,0.0,0.0,0.0,0.0,0.0,0.0,0.0,0.0,0.0,0.0,0.0,0.0,0.0,0.0,0.0,0.0,0.0,0.0,0.0,0.0,0.0,0.0,0.0,0.0,-0.5587,-0.6533,-0.7812,-0.8964,0.0,0.0,0.0,0.0,0.0,0.0,0.0,-1.9183,-2.1547,-2.3077,-2.3906,-2.3838,-2.3912,-2.4038,0.0,0.0,0.0,0.0,0.0,0.0,0.0,0.0,0.0,0.0,0.0,0.0,0.0,0.0,0.0,0.0,0.0,0.0,0.0,0.0,0.0,0.0,0.0,0.0,0.0,0.0,0.0,0.0,0.0,0.0,0.0,0.0,0.0,0.0,0.0,-2.6394,-2.5315,-2.7007,-2.7615,-2.5825,-2.6101,-2.6341,-2.638,-2.7004,-2.7325,-2.7205,-2.7957,-2.8086,-2.7398,-2.8287,-2.8462,-2.7774,-2.8375,-2.8852,-2.9196,-2.9778,-3.056,-3.1423,-3.2613,-3.3209,-3.33,-3.4434,-3.4754,-3.4531,-3.4726,-3.463,-3.4268,-3.4462,-3.4559,-3.4475,-3.3777,-3.3633,-3.3871,0.0,0.0,0.0,0.0,0.0,0.0,0.0,0.0,0.0,0.0,0.0,0.0,0.0,0.0,0.0,0.0,0.0,0.0,0.0,0.0,0.0,0.0,0.0,0.0,-0.4186,-0.5142,-0.5892,0.0,0.0,0.0,0.0,0.0,0.0,0.0,0.0,0.0,0.0,0.0,-2.2221,-2.4479,-2.4362,-2.4675,-2.5244,0.0,0.0,0.0,0.0,0.0,0.0,0.0,0.0,0.0,0.0,0.0,0.0,0.0,0.0,0.0,0.0,0.0,0.0,0.0,0.0,0.0,0.0,0.0,0.0,0.0,0.0,0.0,0.0,0.0,0.0,0.0,0.0,0.0,-2.3389,-2.5791,-2.706,-2.5141,-2.7863,-2.8888,-2.6761,-2.7558,-2.831,-2.8379,-2.8022,-2.7967,-2.837,-2.8388,-2.8177,-2.7756,-2.815,-2.8168,-2.7737,-2.884,-2.9176,-2.8867,-3.1423,-3.2447,-3.2072,-3.3446,-3.4261,-3.4433,-3.4409,-3.4507,-3.4799,-3.4787,-3.4475,-3.4018,-3.403,-3.403,-3.3897,-3.2875,-3.2815,-3.3582,0.0,0.0,0.0,0.0,0.0,0.0,0.0,0.0,0.0,0.0,0.0,0.0,0.0,0.0,0.0,0.0,0.0,0.0,0.0,0.0,0.0,0.0,0.0,0.0,-0.2302,-0.3283,0.0,0.0,0.0,0.0,0.0,0.0,0.0,0.0,0.0,0.0,0.0,0.0,0.0,0.0,-2.3431,-2.4802,-2.6212,0.0,0.0,0.0,0.0,0.0,0.0,0.0,0.0,0.0,0.0,0.0,0.0,0.0,0.0,0.0,0.0,0.0,0.0,0.0,0.0,0.0,0.0,0.0,0.0,0.0,0.0,0.0,0.0,0.0,0.0,0.0,0.0,-2.5997,-2.5397,-2.6823,-2.814,-2.8701,-2.9032,-2.9364,-2.9689,-2.9038,-2.8834,-2.9136,-2.856,-2.8269,-2.8388,-2.8104,-2.7756,-2.7352,-2.7728,-2.7609,-2.6921,-2.8267,-2.9273,-2.9887,-3.1451,-3.2634,-3.3545,-3.404,-3.4347,-3.4409,-3.4222,-3.4162,-3.4234,-3.3861,-3.3633,-3.3537,-3.3897,-3.3813,-3.3416,-3.2755,-3.2759,-3.3458,0.0,0.0,0.0,0.0,0.0,0.0,0.0,0.0,0.0,0.0,0.0,0.0,0.0,0.0,0.0,0.0,0.0,0.0,0.0,0.0,0.0,0.0,0.0,-0.0443,-0.1199,0.0,0.0,0.0,0.0,0.0,0.0,0.0,0.0,0.0,0.0,0.0,0.0,0.0,0.0,0.0,0.0,-2.4777,-2.6739,-2.675,-2.7089,-2.7607,-2.8013,-2.8832,-2.9756,-2.9659,0.0,0.0,0.0,0.0,0.0,0.0,0.0,0.0,0.0,0.0,0.0,0.0,0.0,0.0,0.0,0.0,0.0,0.0,0.0,0.0,0.0,0.0,0.0,0.0,-2.6126,-2.6941,-2.6738,-2.761,-2.8601,-2.9277,-2.9124,-2.9254,-2.9882,-2.9327,-2.9021,-2.915,-2.8555,-2.8143,-2.7976,-2.7725,-2.741,-2.7011,-2.7382,-2.7373,-2.6909,-2.8701,-2.9843,-3.0514,-3.2174,-3.3411,-3.4249,-3.4219,-3.4209,0.0,-3.3851,-3.3729,-3.3705,-3.3404,-3.3244,0.0,0.0,0.0,0.0,0.0,-3.3338,-3.4571,0.0,0.0,0.0,0.0,0.0,0.0,0.0,0.0,0.0,0.0,0.0,0.0,0.0,0.0,0.0,0.0,0.0,0.0,0.0,0.0,0.0,0.0,0.0541,0.0,-0.0304,0.0,0.0,0.0,0.0,0.0,0.0,0.0,0.0,0.0,0.0,0.0,0.0,0.0,0.0,0.0,0.0,0.0,-2.6962,-2.7789,-2.8119,-2.823,-2.9054,-2.9865,-3.0674,-3.1242,0.0,0.0,0.0,0.0,0.0,0.0,0.0,0.0,0.0,0.0,0.0,0.0,0.0,0.0,0.0,0.0,0.0,0.0,0.0,0.0,0.0,0.0,0.0,0.0,-2.6827,-2.75,-2.7574,-2.8114,-2.8539,-2.831,-2.8506,-2.8641,-2.8539,-2.8766,-2.8876,-2.8539,-2.8189,-2.781,-2.745,0.0,0.0,0.0,0.0,-2.7289,-2.7387,-2.9538,-3.0653,-3.0756,-3.3128,-3.4267,-3.4243,-3.4066,-3.3958,-3.3921,-3.3416,-3.32,-3.3188,-3.322,-3.2962,-3.2747,-3.2885,-3.2873,-3.2791,-3.2962,-3.4272,0.0,0.0,0.0,0.0,0.0,0.0,0.0,0.0,0.0,0.0,0.0,0.0,0.0,0.0,0.0,0.0,0.0,0.0,0.0,0.0,0.0,0.3472,0.2703,0.2325,0.2104,0.0,0.0,0.0,0.0,0.0,0.0,0.0,0.0,0.0,0.0,0.0,0.0,0.0,0.0,0.0,0.0,0.0,0.0,-2.7398,-2.7584,-2.8744,-3.0283,-3.0196,-3.1619,-3.3373,-3.2627,-3.3412,-3.4655,-3.3815,0.0,0.0,0.0,0.0,0.0,0.0,0.0,0.0,0.0,0.0,0.0,0.0,0.0,0.0,0.0,0.0,0.0,0.0,0.0,0.0,-2.6939,-2.7851,-2.8355,-2.8143,-2.7903,-2.7905,-2.8009,-2.7841,-2.7845,-2.835,-2.8172,-2.8004,-2.8004,-2.7701,-2.7507,-2.7431,-2.6692,0.0,-2.6692,-2.6456,-2.673,-2.7515,-2.8915,-3.0089,-3.1069,0.0,0.0,-3.3491,-3.3477,-3.344,-3.3404,-3.2875,-3.2738,-3.2871,-3.2435,-3.2201,-3.2166,-3.3164,-3.3233,-3.2886,-3.4485,-3.4651,-3.4279,0.0,0.0,0.0,0.0,0.0,0.0,0.0,0.0,0.0,0.0,0.0,0.0,0.0,0.0,0.0,0.0,0.0,0.0,0.0,0.0,0.4472,0.422,0.3786,0.0,0.0,0.0,0.0,0.0,0.0,0.0,0.0,0.0,0.0,0.0,0.0,0.0,0.0,0.0,0.0,0.0,0.0,0.0,-2.7409,-2.8019,-2.914,-3.0487,-3.1116,-3.2383,-3.3772,-3.3965,-3.4802,-3.5749,-3.5571,-3.4941,-3.399,0.0,0.0,0.0,0.0,0.0,0.0,0.0,0.0,0.0,0.0,0.0,0.0,0.0,0.0,-2.6411,0.0,0.0,-2.7534,-2.798,-2.8218,-2.8338,-2.8098,-2.7738,-2.738,-2.7242,-2.7282,-2.7262,-2.7389,-2.7496,-2.7637,-2.7637,-2.7332,-2.7141,-2.6939,-2.6525,-2.6391,-2.649,-2.64,-2.6878,-2.8066,-2.9151,-3.0317,-3.1388,-3.2594,-3.3059,-3.2899,-3.2979,-3.2913,-3.2647,-3.2483,-3.254,-3.258,-3.2117,-3.1896,-3.2059,-3.3333,-3.3634,-3.3423,-3.4506,-3.4688,-3.4555,0.0,0.0,0.0,0.0,0.0,0.0,0.0,0.0,0.0,0.0,0.0,0.0,0.0,0.0,0.0,0.0,0.0,0.0,0.0,0.5445,0.5614,0.6314,0.5835,0.0,0.0,0.0,0.0,0.0,0.0,0.0,0.0,0.0,0.0,0.0,0.0,0.0,0.0,0.0,0.0,0.0,0.0,0.0,-2.7278,-2.8611,-2.9554,-3.0317,-3.1568,-3.2492,-3.3405,-3.4716,-3.5501,-3.599,-3.674,-3.6375,-3.5315,-3.329,-3.1969,0.0,0.0,0.0,0.0,0.0,0.0,0.0,0.0,0.0,-2.7088,-2.739,-2.7602,-2.7927,-2.8279,-2.8131,-2.8187,-2.8789,-2.8549,-2.8279,-2.8175,-2.7641,-2.7086,-2.6615,-2.6714,-2.6718,-2.6275,-2.6833,-2.7212,-2.7122,-2.709,-2.68,-2.6478,-2.6458,-2.6458,-2.6458,-2.6458,-2.719,-2.8691,-2.9559,-3.0521,-3.1786,-3.2671,-3.2938,-3.2527,-3.2682,-3.2528,-3.2113,-3.2277,-3.2253,-3.213,-3.1928,-3.1763,-3.178,-3.3209,-3.3647,-3.3649,-3.4178,-3.4696,-3.5082,0.0,0.0,0.0,0.0,0.0,0.0,0.0,0.0,0.0,0.0,0.0,0.0,0.0,0.0,0.0,0.0,0.0,0.0,0.0,0.6426,0.7696,0.9897,0.9828,0.0,0.0,0.0,0.0,0.0,0.0,0.0,0.0,0.0,0.0,0.0,0.0,0.0,0.0,0.0,0.0,0.0,0.0,0.0,-2.7038,-2.891,-3.0216,-3.1048,-3.0916,-3.187,-3.3288,-3.3804,-3.434,-3.4969,-3.6049,-3.6078,-3.5189,-3.2684,0.0,-2.9863,-2.6899,-2.6343,-2.6893,-2.8249,-2.792,-2.7839,0.0,0.0,-2.9379,-2.9789,-3.0243,-3.0337,-2.9711,-2.9923,-3.0078,-2.9463,-2.9393,-2.9209,-2.8724,-2.7903,-2.7119,-2.6695,-2.6444,-2.5999,-2.5349,-2.6114,-2.638,-2.5979,-2.6681,-2.6931,-2.65,-2.648,-2.648,-2.648,-2.648,-2.7419,-2.9298,-2.939,-3.0422,-3.2296,-3.2396,-3.246,-3.2399,-3.2399,-3.2449,-3.2363,-3.2043,-3.1717,-3.127,-3.143,-3.121,-3.0943,-3.2425,-3.2752,-3.255,-3.4512,-3.4926,-3.4428,0.0,0.0,0.0,0.0,0.0,0.0,0.0,0.0,0.0,0.0,0.0,0.0,0.0,0.0,0.0,0.0,0.0,0.0,0.6912,0.7391,0.8853,1.1651,1.1559,1.259,1.4967,0.0,0.0,0.0,0.0,0.0,0.0,0.0,0.0,0.0,0.0,0.0,0.0,0.0,0.0,0.0,0.0,0.0,-2.7478,-2.9301,-3.0462,-3.0977,-3.0231,-3.0775,0.0,0.0,-3.2378,-3.2915,-3.4029,-3.3594,-3.236,-3.0473,-2.9503,0.0,-2.7582,-2.744,-2.7754,-2.8384,-2.8591,-2.8897,-3.0176,-3.0192,-3.0132,-3.0922,-3.1252,-3.1163,-3.0191,-3.043,-3.0586,0.0,-2.9421,-2.9139,-2.8776,-2.7894,-2.7058,-2.6605,-2.6704,-2.6456,-2.5624,-2.6022,-2.6334,-2.6415,-2.6663,-2.6687,-2.6506,-2.6496,-2.6376,-2.6114,-2.6104,-2.6889,-2.8489,-2.8489,-2.9461,-3.1441,-3.1749,-3.1577,-3.0987,-3.1783,-3.1992,-3.1851,-3.2022,-3.1735,-3.1292,-3.1072,-3.0809,-3.0649,-3.1405,-3.1924,-3.2331,-3.4125,-3.4646,-3.4312,0.0,0.0,0.0,0.0,0.0,0.0,0.0,0.0,0.0,0.0,0.0,0.0,0.0,0.0,0.0,0.0,0.0,0.0,0.0,0.9046,1.0835,1.4093,1.4077,0.0,1.7316,1.6619,0.0,0.0,0.0,0.0,0.0,0.0,0.0,0.0,0.0,0.0,0.0,0.0,0.0,0.0,0.0,0.0,-2.7974,-2.9913,-3.0543,-3.0326,-2.9683,-2.9908,0.0,0.0,-3.016,-3.0471,-3.1345,-3.0965,-2.9807,-2.8273,-2.7334,-2.6938,-2.7335,-2.7646,-2.794,-2.8328,-2.8938,-2.9579,-3.0027,-3.0239,-3.0507,-3.1246,-3.1228,-3.0846,-3.0217,-3.0132,-2.9984,-2.9515,-2.9116,-2.8711,-2.8589,-2.7777,-2.7074,-2.703,-2.6965,-2.6812,-2.6573,-2.6464,-2.663,-2.6781,-2.6723,-2.6688,-2.6688,-2.6567,-2.6354,-2.602,-2.6156,-2.6641,-2.7711,-2.8234,-2.918,-3.0563,-3.1134,-3.1005,-3.014,-3.1096,-3.1397,-3.1198,-3.1599,-3.1461,-3.0922,-3.0545,-3.0382,-3.0398,-3.0833,-3.1395,-3.2102,-3.3503,-3.406,-3.4037,0.0,0.0,0.0,0.0,0.0,0.0,0.0,0.0,0.0,0.0,0.0,0.0,0.0,0.0,0.0,0.0,0.0,0.0,0.0,1.1814,1.4292,1.8156,1.8435,1.9687,2.2248,2.2133,2.1877,0.0,0.0,0.0,0.0,0.0,0.0,0.0,0.0,0.0,0.0,0.0,0.0,0.0,0.0,0.0,-2.8442,-3.0834,-3.0594,-2.9012,-2.9429,0.0,0.0,0.0,-2.7716,-2.7612,-2.808,-2.8556,0.0,-2.6411,-2.4791,-2.3986,-2.5149,-2.5887,-2.6658,-2.8332,-2.8964,-2.9467,-3.0331,-3.0742,-3.0951,-3.0778,-2.9941,-2.9335,-2.9905,-2.8839,-2.8014,-2.8656,-2.8326,-2.8086,-2.8363,-2.751,-2.7194,-2.7919,-2.6838,-2.6485,0.0,-2.7559,-2.7112,-2.6682,-2.7003,-2.7262,-2.7262,-2.6837,-2.6589,-2.6568,-2.6928,-2.7205,-2.736,-2.9095,-2.9966,-3.0121,-3.0989,-3.1135,-3.062,-3.0645,-3.0658,-3.0645,-3.0658,-3.0357,-2.9842,-2.9829,-2.9817,-2.9908,-3.0962,-3.143,-3.1571,-3.2616,-3.3284,-3.3376,0.0,0.0,0.0,0.0,0.0,0.0,0.0,0.0,0.0,0.0,0.0,0.0,0.0,0.0,0.0,0.0,0.0,0.0,0.0,1.2134,1.435,1.8078,1.7853,1.8801,2.1321,2.116,2.0842,2.0482,0.0,0.0,0.0,0.0,0.0,0.0,0.0,0.0,0.0,0.0,0.0,0.0,0.0,-2.8449,-2.9663,-2.9776,-2.9717,-2.9363,0.0,0.0,0.0,0.0,-2.5616,-2.5984,-2.5481,-2.4925,-2.4384,-2.3583,-2.3622,-2.4204,-2.542,-2.6472,-2.7366,-2.8014,-2.8196,-2.8325,-2.8612,-2.8815,-2.893,-2.9129,-2.8669,-2.8093,-2.7845,-2.7487,-2.7194,-2.6896,-2.7073,-2.7162,-2.6767,-2.6555,-2.6515,-2.676,-2.7085,0.0,0.0,0.0,0.0,-2.7979,-2.7808,-2.7715,-2.7715,-2.7568,-2.7199,-2.6599,-2.6758,-2.7053,-2.7667,-2.7904,-2.8666,-2.9923,-2.993,-2.9884,-2.9732,-3.0176,-3.0025,-2.9363,-3.0495,-3.0241,-2.9045,-2.944,-2.9376,-2.9068,-2.9905,-3.0512,-3.1074,-3.1382,-3.1961,-3.2449,0.0,0.0,0.0,0.0,0.0,0.0,0.0,0.0,0.0,0.0,0.0,0.0,0.0,0.0,0.0,0.0,0.0,0.0,0.0,0.0,1.527,1.7959,1.786,1.8325,1.958,1.9657,1.9383,1.8817,0.0,0.0,0.0,0.0,0.0,0.0,0.0,0.0,0.0,0.0,0.0,0.0,-2.5161,-2.7689,-2.9004,-2.9681,-2.9734,0.0,0.0,0.0,0.0,-2.3899,-2.3864,-2.46,-2.3353,-2.2541,-2.2105,-2.2415,-2.2814,-2.348,-2.4891,-2.5823,-2.6479,-2.692,-2.7023,-2.7101,-2.7145,-2.7336,-2.7484,-2.7601,-2.6962,-2.6393,-2.644,-2.6052,-2.5656,-2.5527,-2.573,-2.5832,-2.5795,-2.5711,-2.5868,-2.6465,-2.7293,-2.8109,0.0,0.0,0.0,-2.868,-2.8618,-2.8387,-2.8043,-2.786,-2.7495,-2.6893,-2.6954,-2.7156,-2.7355,-2.7918,-2.8802,-2.9998,-2.9363,-2.9096,-2.9287,-2.9397,-2.9091,-2.8643,-2.9804,-2.9664,-2.8605,-2.8988,-2.9057,-2.9028,-2.956,-3.0227,-3.09,-3.1042,-3.1406,-3.1812,0.0,0.0,0.0,0.0,0.0,0.0,0.0,0.0,0.0,0.0,0.0,0.0,0.0,0.0,0.0,0.0,0.0,0.0,0.0,0.0,0.0,1.7921,1.8465,1.8299,1.7423,1.7887,1.773,1.691,1.6727,0.0,0.0,0.0,0.0,0.0,0.0,0.0,0.0,0.0,-1.6042,-2.0729,-2.4592,0.0,-2.6838,-3.043,0.0,0.0,0.0,0.0,0.0,-2.235,-2.254,-2.3342,-2.1772,-2.135,-2.1684,-2.2686,-2.2338,-2.1926,-2.3644,-2.4086,-2.4293,-2.534,-2.5643,-2.5674,-2.5785,-2.6226,-2.6502,-2.6142,-2.4849,-2.431,0.0,0.0,-2.3406,-2.4523,-2.4425,-2.4466,-2.526,-2.5076,-2.5396,0.0,0.0,0.0,0.0,0.0,0.0,-2.8899,0.0,-2.9041,-2.8123,-2.761,-2.7337,-2.7315,-2.7696,-2.751,-2.6626,-2.8951,-3.0218,-3.0266,-2.9202,-2.8946,-2.9369,-2.8292,-2.8087,-2.8574,-2.8626,-2.8626,-2.8574,-2.86,-2.9002,-2.9584,-2.9948,-3.0503,-3.1075,-3.1383,-3.1482,-3.1467,0.0,0.0,0.0,0.0,0.0,0.0,0.0,0.0,0.0,0.0,0.0,0.0,0.0,0.0,0.0,0.0,0.0,0.0,0.0,0.0,0.0,0.0,0.0,0.0,0.0,0.0,0.0,0.0,0.0,1.5119,1.4974,1.3975,0.0,0.0,0.0,0.0,0.0,-0.8688,-1.4352,-2.0411,0.0,-2.6528,-2.8296,0.0,0.0,0.0,0.0,0.0,0.0,-2.1744,-2.1226,-2.1253,-2.086,-2.1033,-2.1496,-2.1757,-2.2286,-2.295,-2.378,-2.4538,-2.4935,-2.4359,-2.4305,-2.4235,-2.3497,-2.3743,-2.4046,-2.3849,-2.2827,-2.2335,-2.3475,-2.2804,0.0,-2.3585,-2.4125,0.0,-2.4476,-2.4762,0.0,-2.5889,0.0,-2.7336,-2.8821,-2.946,0.0,0.0,-2.969,-2.9379,-2.9134,-2.8656,-2.8221,-2.7843,-2.7611,-2.752,-2.7579,-2.8918,-2.9465,-2.9113,-2.8988,-2.8557,-2.7859,-2.8114,-2.8092,-2.7803,-2.8742,-2.8625,-2.779,-2.8287,-2.8594,-2.8835,-2.942,-3.0054,-3.0742,-3.1279,-3.1482,-3.1407,0.0,0.0,0.0,0.0,0.0,0.0,0.0,0.0,0.0,0.0,0.0,0.0,0.0,0.0,0.0,0.0,0.0,0.0,0.0,0.0,0.0,0.0,0.0,0.0,0.0,0.0,0.0,0.0,0.0,0.0,0.0,1.2348,1.0499,0.8446,0.4963,0.0327,-0.5297,0.0,0.0,0.0,0.0,0.0,0.0,0.0,0.0,0.0,0.0,0.0,0.0,-2.0344,-2.0372,-2.0926,-2.1432,-2.1521,-2.1527,-2.198,-2.2261,-2.2571,-2.341,-2.3809,-2.3854,-2.3215,-2.3108,-2.2974,-2.2017,-2.221,-2.2414,-2.1732,-2.1083,-2.079,-2.1235,-2.1429,-2.1768,0.0,0.0,0.0,-2.4633,-2.4868,-2.5036,0.0,-2.5966,0.0,-2.7549,-2.8492,-2.9228,0.0,-2.9942,-2.9999,-2.9557,-2.8969,-2.8562,-2.8366,-2.7867,-2.7816,-2.8361,-2.8992,-2.9262,-2.9259,-2.9409,-2.9041,-2.817,-2.8347,-2.8072,-2.7562,0.0,-2.8137,-2.7562,-2.7876,-2.8385,-2.8967,-2.9317,-3.0072,-3.097,-3.1351,-3.1482,-3.1377,0.0,0.0,0.0,0.0,0.0,0.0,0.0,0.0,0.0,0.0,0.0,0.0,0.0,0.0,0.0,0.0,0.0,0.0,0.0,0.0,0.0,0.0,0.0,0.0,0.0,0.0,0.0,0.0,0.0,0.0,0.0,0.0,0.0,0.0,0.0,0.0,0.0,0.0,0.0,0.0,0.0,0.0,0.0,0.0,0.0,0.0,0.0,0.0,0.0,-1.8428,-1.9581,-2.1221,-2.2362,-2.1933,-2.1262,-2.2369,-2.1952,-2.1343,-2.2439,-2.2371,-2.1969,-2.1885,-2.1933,-2.1776,-2.1117,-2.1282,-2.1198,-1.9924,-1.9595,-1.9483,-1.9336,-2.0212,-2.1228,-2.202,0.0,-2.4287,-2.5192,-2.5,-2.4961,-2.5114,-2.5718,-2.6052,-2.6259,-2.7076,-2.7911,-2.8422,-2.9738,-3.0228,-2.9435,-2.8884,-2.8574,-2.8505,-2.8103,-2.8196,-2.8891,-2.8925,-2.9294,-2.9999,-2.9908,-2.964,-2.9144,-2.8543,-2.8007,-2.7523,0.0,0.0,-2.7523,-2.7523,-2.8208,-2.9393,-2.9442,-3.0269,-3.1409,-3.1467,-3.1482,-3.1362,0.0,0.0,0.0,0.0,0.0,0.0,0.0,0.0,0.0,0.0,-2.2104,-2.1368,0.0,0.0,0.0,0.0,0.0,0.0,0.0,0.0,0.0,0.0,0.0,0.0,0.0,0.0,0.0,0.0,0.0,0.0,0.0,0.0,0.0,0.0,0.0,0.0,0.0,0.0,0.0,0.0,0.0,0.0,0.0,0.0,0.0,0.0,0.0,0.0,0.0,0.0,-1.7826,-1.9817,-2.0795,-2.0186,-1.9355,-2.0459,-2.0123,-1.9574,-2.0718,-2.0945,-2.0779,-2.031,-2.055,-2.0742,-2.0189,-1.9994,-1.9801,-1.9351,-1.8585,-1.8208,-1.9075,-1.9222,-1.9635,-2.0916,-2.2141,-2.3197,-2.4088,-2.4705,-2.5145,0.0,-2.5352,-2.5475,-2.5908,-2.5996,0.0,0.0,0.0,-2.8408,-2.885,-2.8367,-2.792,-2.7495,-2.7403,-2.7894,-2.9059,-2.8611,-2.8963,-3.0047,-2.9125,-2.8634,-2.8516,-2.7941,-2.7628,-2.7523,0.0,0.0,-2.7523,-2.7523,-2.7973,-2.8725,-2.9268,-2.995,-3.0718,-3.1278,-3.1482,-3.1302,0.0,0.0,0.0,0.0,0.0,0.0,0.0,0.0,-2.271,-2.2194,-2.1738,-2.1374,-2.1051,-1.9634,0.0,0.0,0.0,0.0,0.0,0.0,0.0,0.0,0.0,0.0,0.0,0.0,1.5965,1.6687,0.0,0.0,0.0,0.0,0.0,0.0,0.0,0.0,0.0,0.0,0.0,0.0,0.0,0.0,0.0,0.0,0.0,0.0,0.0,0.0,0.0,0.0,-1.4404,-1.6169,-1.8808,-1.8966,-1.8351,-1.8884,-1.9123,-1.9379,-1.9574,-2.0135,-2.0435,-1.9863,-2.0165,-2.0385,-1.9542,-1.9217,-1.8802,-1.7722,-1.7144,-1.6914,-1.7161,-1.7798,-1.872,-1.9975,-2.1617,-2.3138,-2.4106,-2.4943,-2.5408,-2.5119,-2.4923,-2.4559,-2.4193,-2.4451,-2.4867,0.0,0.0,-2.6975,-2.8276,-2.761,-2.6955,-2.6462,-2.6439,-2.6744,-2.7335,-2.7392,-2.7865,-2.8768,-2.851,-2.8381,-2.8373,-2.8098,-2.7811,-2.7523,-2.7523,0.0,-2.7523,-2.7523,-2.7908,-2.8546,-2.9268,-2.9889,-3.054,-3.0877,-3.1001,-3.0878,0.0,0.0,0.0,0.0,0.0,0.0,0.0,-2.3084,-2.2828,-2.2113,-2.1794,-2.1792,-2.2251,-2.0887,-1.8665,0.0,0.0,0.0,0.0,0.0,0.0,0.0,0.0,0.0,0.0,0.0,0.0,1.5773,1.6067,0.0,0.0,0.0,0.0,0.0,-0.1673,0.0,0.0,0.0,0.0,0.0,0.0,0.0,0.0,0.0,0.0,0.0,0.0,0.0,-1.0628,-1.0489,-1.0897,-1.2037,-1.5506,-1.6807,-1.7071,-1.7155,-1.8016,-1.8766,-1.837,-1.9066,-1.9782,-1.9252,-1.9598,-1.9767,-1.8725,-1.8464,-1.7967,-1.6222,-1.6039,-1.5998,-1.5496,-1.6551,-1.7831,-1.8733,-2.0652,-2.2402,-2.3809,-2.4647,-2.507,-2.4832,-2.4516,0.0,-2.2551,-2.3082,0.0,0.0,0.0,0.0,-2.7426,-2.6737,-2.6117,-2.5727,-2.5716,-2.5781,-2.5847,-2.6391,-2.699,-2.7693,-2.805,-2.8267,-2.8386,-2.8255,-2.7954,-2.7523,-2.7523,0.0,0.0,-2.7523,-2.7908,-2.8597,-2.9331,-2.9925,-3.0426,-3.0574,-3.0599,-3.0368,0.0,0.0,0.0,0.0,0.0,0.0,0.0,-2.3324,-2.3638,-2.3438,-2.3201,-2.3179,-2.3601,-2.1074,-1.8879,0.0,0.0,0.0,0.0,0.0,0.0,0.0,0.0,0.0,0.0,0.0,0.0,0.9528,0.8606,0.0,0.0,0.0,0.0,0.0,0.0,-1.0313,-1.4392,0.0,0.0,0.0,0.0,0.0,0.0,0.0,0.0,0.0,0.0,-0.8473,-0.9083,-0.8592,-0.8311,-0.8466,-0.9691,-1.2205,-1.4798,-1.5157,-1.567,-1.6198,-1.644,-1.703,-1.7501,-1.7445,-1.7889,-1.8109,-1.7356,-1.7512,-1.7368,-1.5901,-1.5851,-1.5865,-1.5496,-1.5827,-1.6336,0.0,0.0,-1.9457,-2.1655,-2.265,-2.3549,-2.4661,0.0,0.0,-2.2389,-2.2264,0.0,0.0,0.0,0.0,-2.5888,-2.583,-2.5761,-2.5716,-2.5716,-2.5923,-2.6498,-2.6553,-2.7209,-2.8277,-2.7834,-2.7861,-2.836,-2.7837,-2.7575,-2.7523,0.0,0.0,0.0,-2.7523,-2.7973,-2.8853,-2.9518,-2.9894,-3.01,-3.0719,-3.0561,-2.994,0.0,0.0,0.0,0.0,0.0,0.0,0.0,-2.4116,-2.4013,-2.2742,-2.2321,-2.215,-2.2245,-2.0649,-1.9193,0.0,0.0,0.0,0.0,0.0,0.0,0.0,0.0,0.0,0.0,0.0,0.6872,0.7258,0.7116,0.0,0.0,0.0,0.0,0.0,0.0,-1.2223,-1.6191,0.0,0.0,0.0,0.0,0.0,0.0,0.0,0.0,0.0,0.0,0.0,-0.7151,-0.6698,-0.6704,-0.7109,-0.7989,-0.9638,-1.1438,-1.2445,-1.3813,-1.5075,-1.5177,-1.6372,-1.7448,-1.6828,-1.7251,-1.7562,-1.668,-1.6719,-1.6595,-1.5332,-1.5302,-1.5448,-1.5249,-1.5109,-1.5207,0.0,0.0,0.0,-1.9665,-2.0524,-2.1523,-2.2615,-2.2269,0.0,0.0,0.0,0.0,0.0,0.0,0.0,-2.4024,-2.4562,-2.4797,-2.4797,-2.4797,-2.4934,-2.5145,-2.5166,-2.5733,-2.6856,-2.6628,-2.702,-2.7863,-2.7628,-2.7523,-2.7523,0.0,0.0,0.0,-2.7523,-2.7643,-2.7877,-2.8759,-2.904,-2.9055,-2.9597,-2.9681,-2.9398,0.0,0.0,0.0,0.0,0.0,-2.6084,-2.4678,-2.4662,-2.417,-2.2436,-2.1741,-2.1366,-2.1207,-2.0345,-1.9402,-1.835,0.0,0.0,0.0,0.0,0.0,0.0,0.0,0.0,0.0,0.0,0.2446,0.3364,0.3124,0.2614,0.0,0.0,-0.3286,-0.639,0.0,0.0,0.0,0.0,0.0,0.0,0.0,0.0,0.0,0.0,0.0,0.0,0.0,0.0,0.0,0.0,0.0,-0.6137,-0.6724,-0.7602,0.0,-1.0351,-1.2328,-1.3994,-1.4061,-1.5546,-1.6832,-1.6117,-1.6502,-1.6821,-1.5818,-1.6151,-1.6255,-1.4765,-1.4932,-1.521,-1.4797,-1.4487,-1.451,0.0,0.0,-1.6918,-1.8074,-1.8862,-1.9755,-2.0925,0.0,-2.0697,0.0,-2.0382,0.0,0.0,0.0,0.0,0.0,-2.3089,-2.3595,-2.3971,-2.3821,-2.3821,-2.3971,-2.4114,-2.4661,-2.5639,-2.6,-2.6564,-2.7255,-2.7287,-2.7275,-2.7262,0.0,0.0,0.0,-2.7027,-2.7088,-2.7317,-2.8162,-2.8512,-2.8481,-2.8725,-2.8732,-2.8587,0.0,0.0,0.0,0.0,0.0,0.0,0.0,-2.468,-2.4116,-2.302,-2.2023,-2.1366,-2.1207,-2.0345,-1.9284,-1.8028,0.0,0.0,0.0,0.0,0.0,0.0,0.0,0.0,0.0,0.0,-0.3928,-0.347,-0.5417,-0.7002,-0.827,-0.9901,-1.1547,-1.3137,0.0,0.0,0.0,0.0,0.0,0.0,0.0,0.0,0.0,0.0,0.0,0.0,0.0,0.0,0.0,0.0,0.0,0.0,0.0,0.0,0.0,0.0,-1.122,-1.26,-1.2915,-1.3992,-1.5039,-1.5029,-1.5488,-1.5642,-1.4706,-1.5796,-1.6425,-1.4419,-1.4864,-1.5214,-1.4007,-1.407,-1.4305,-1.4215,-1.4482,0.0,-1.7082,-1.7596,-1.8515,0.0,0.0,-2.1051,-2.0337,-1.9888,0.0,0.0,0.0,0.0,0.0,-2.1386,-2.214,-2.3361,-2.296,-2.2937,-2.3372,-2.4002,-2.4529,-2.5004,-2.6151,-2.6714,-2.6701,-2.6739,-2.6687,0.0,0.0,0.0,0.0,-2.5837,-2.6478,-2.7561,-2.7939,-2.8367,-2.8761,-2.8511,-2.7996,-2.7411,0.0,0.0,0.0,0.0,0.0,0.0,0.0,-2.4834,-2.4356,-2.3243,-2.26,-2.1847,-2.0892,-2.0813,-2.0132,-1.841,0.0,0.0,0.0,0.0,0.0,0.0,0.0,0.0,0.0,0.0,-0.6753,-0.708,-0.8435,-0.9416,-1.0086,-1.2178,-1.37,-1.4661,-1.4903,-1.5626,0.0,0.0,0.0,0.0,0.0,0.0,0.0,0.0,0.0,0.0,0.0,0.0,0.0,0.0,0.0,0.0,0.0,0.0,0.0,0.0,0.0,-1.1696,-1.2605,-1.3804,-1.4739,-1.4781,-1.505,-1.5251,-1.4909,-1.5225,-1.5313,-1.4332,-1.4392,-1.4463,-1.3882,-1.3445,-1.3451,-1.4088,-1.4141,0.0,0.0,0.0,0.0,-1.8062,-1.9169,-1.9806,0.0,0.0,0.0,0.0,0.0,0.0,0.0,-2.1377,-2.2117,-2.2903,-2.2765,-2.2754,-2.2926,-2.312,-2.3464,-2.4002,-2.4676,-2.5219,-2.5637,-2.5909,0.0,0.0,0.0,0.0,0.0,-2.5031,-2.5387,-2.6105,-2.6785,-2.7001,-2.7021,-2.7542,-2.758,-2.7396,0.0,0.0,0.0,0.0,0.0,0.0,0.0,-2.5002,-2.4492,-2.3372,-2.2686,-2.1888,-2.0653,-2.0598,-2.0003,-1.8588,0.0,0.0,0.0,0.0,0.0,0.0,0.0,0.0,0.0,-0.9504,-0.9499,-0.9577,-1.0902,-1.155,-1.1628,-1.3206,-1.4145,-1.4602,-1.4633,-1.4986,0.0,0.0,0.0,0.0,0.0,0.0,-1.4346,0.0,0.0,0.0,0.0,0.0,0.0,0.0,0.0,0.0,0.0,0.0,0.0,0.0,-0.9518,-1.0905,-1.2143,-1.3219,-1.4083,-1.4354,-1.449,-1.4547,-1.4671,-1.4648,-1.456,-1.4508,-1.4196,-1.3896,-1.386,-1.3095,-1.2684,-1.3447,-1.3436,-1.3536,0.0,0.0,0.0,-1.7363,0.0,0.0,0.0,0.0,0.0,0.0,0.0,0.0,0.0,-2.0094,-2.0691,-2.1537,-2.1916,-2.2203,-2.2398,-2.2398,-2.268,-2.3191,-2.3701,-2.4226,-2.4757,-2.5202,0.0,0.0,0.0,0.0,0.0,-2.4236,-2.4272,-2.4816,-2.5621,-2.5885,-2.5815,-2.6412,-2.6611,-2.6611,0.0,0.0,0.0,0.0,0.0,0.0,0.0,0.0,0.0,-2.3394,-2.2426,-2.1481,-2.0549,-1.9912,-1.9269,-1.8623,0.0,0.0,0.0,0.0,0.0,0.0,0.0,0.0,-0.9923,-1.1517,-1.1875,-1.0997,-1.2699,-1.3322,-1.2854,-1.3191,-1.3387,-1.3497,-1.3632,-1.3994,0.0,0.0,0.0,0.0,-1.6026,-1.499,0.0,0.0,0.0,0.0,0.0,0.0,0.0,0.0,0.0,0.0,0.0,0.0,0.0,0.0,0.0,0.0,0.0,-1.2466,-1.3078,-1.3795,-1.3744,-1.3623,-1.4081,-1.4118,0.0,-1.4952,-1.4236,-1.359,-1.3834,-1.2836,-1.208,-1.251,-1.2605,-1.2936,0.0,-1.4572,0.0,0.0,-1.8525,0.0,0.0,0.0,0.0,0.0,0.0,0.0,0.0,-1.8006,-1.8312,-1.957,-2.0572,-2.1284,-2.1766,-2.1766,-2.1996,-2.2467,-2.3034,-2.3562,-2.4017,-2.4376,0.0,0.0,0.0,0.0,0.0,-2.327,-2.321,-2.3626,-2.4439,-2.4878,-2.5153,-2.5226,-2.5275,-2.5318,0.0,0.0,0.0,0.0,0.0,0.0,0.0,0.0,0.0,0.0,-2.1958,-2.1259,-2.1013,-2.0353,-1.9765,0.0,0.0,0.0,0.0,0.0,0.0,0.0,0.0,0.0,-1.17,-1.1738,-1.1461,-1.0689,-1.2106,-1.2636,-1.2254,-1.3438,-1.4132,-1.4454,-1.4338,-1.4773,0.0,0.0,0.0,0.0,-1.5908,-1.4953,0.0,0.0,0.0,0.0,-1.0308,-0.9928,0.0,0.0,0.0,0.0,0.0,0.0,0.0,0.0,-0.8835,-0.945,-1.1139,0.0,-1.2414,-1.3263,-1.34,-1.3529,0.0,-1.4258,-1.4391,-1.4634,-1.4113,-1.3648,-1.3902,-1.2832,-1.2087,-1.2903,-1.2811,-1.2846,-1.3387,-1.4737,0.0,-1.7359,-1.7629,-1.7691,0.0,0.0,0.0,0.0,0.0,0.0,0.0,-1.7771,-1.8451,-1.8764,-1.9584,-2.0102,-2.0217,-2.0217,-2.0274,-2.04,-2.12,-2.1883,-2.2491,-2.2998,0.0,0.0,0.0,0.0,-2.2967,-2.2336,-2.2547,-2.3273,-2.3779,-2.4159,-2.4486,-2.4792,-2.5085,-2.5318,0.0,0.0,0.0,0.0,0.0,0.0,0.0,0.0,0.0,0.0,0.0,0.0,0.0,0.0,0.0,0.0,0.0,0.0,0.0,0.0,0.0,0.0,0.0,-1.2714,-1.2554,-1.266,-1.248,-1.1912,-1.2869,-1.3027,-1.2473,-1.3214,-1.3825,-1.4139,-1.4039,-1.4294,-1.479,-1.479,-1.5023,-1.5313,-1.512,0.0,0.0,0.0,0.0,0.0,-1.1052,-1.0584,0.0,-0.9872,-0.9211,-0.8506,0.0,0.0,0.0,0.0,-0.9438,-0.9868,-1.0942,-1.1493,-1.1973,-1.2902,-1.2979,-1.3118,-1.3915,-1.4057,-1.4246,-1.5124,-1.4562,-1.405,-1.4727,-1.3618,-1.279,-1.3189,-1.3612,0.0,0.0,0.0,-1.5051,-1.6006,-1.6301,0.0,0.0,0.0,0.0,0.0,0.0,0.0,0.0,-1.6107,-1.669,-1.722,-1.7712,-1.851,-1.9688,-1.9688,-1.9688,-1.97,-2.0205,-2.0846,-2.1666,-2.215,0.0,0.0,0.0,0.0,-2.2005,-2.1393,-2.1415,-2.1907,-2.2273,-2.279,-2.3378,-2.3786,-2.4326,-2.4856,0.0,0.0,0.0,0.0,0.0,0.0,0.0,0.0,0.0,0.0,0.0,0.0,0.0,0.0,0.0,0.0,0.0,0.0,0.0,0.0,0.0,0.0,0.0,-1.3282,-1.2914,-1.3545,-1.3723,-1.3333,-1.3737,-1.3593,-1.2933,-1.2971,-1.3083,-1.3365,-1.3891,-1.3857,-1.3525,-1.3818,-1.417,-1.4484,-1.4165,0.0,0.0,0.0,0.0,0.0,0.0,0.0,0.0,-1.004,-0.9285,-0.8461,-0.8797,0.0,0.0,0.0,0.0,0.0,-1.0861,-1.1343,-1.1907,-1.2661,-1.2584,-1.2654,-1.3664,-1.3811,-1.4223,-1.5796,-1.5186,-1.4649,-1.5635,-1.4703,0.0,0.0,0.0,0.0,-1.5307,-1.4345,-1.3926,-1.4706,0.0,0.0,0.0,0.0,0.0,0.0,0.0,0.0,0.0,-1.4117,-1.442,-1.5382,-1.5701,-1.6933,-1.9091,-1.916,-1.9229,-1.9229,-1.9287,-1.9859,-2.0957,-2.1291,-2.1785,0.0,0.0,0.0,-2.1133,-2.0597,-2.04,-2.0443,-2.0868,-2.1537,-2.2357,-2.2866,-2.3564,-2.4302,0.0,0.0,0.0,0.0,0.0,0.0,0.0,0.0,0.0,0.0,0.0,0.0,0.0,0.0,0.0,0.0,0.0,0.0,0.0,0.0,0.0,-1.2985,-1.2949,-1.2949,-1.2899,-1.2991,-1.2969,-1.2774,-1.3117,-1.3065,-1.2577,-1.3178,-1.3454,-1.3561,-1.5835,-1.5653,-1.3693,-1.5278,-1.5099,-1.38,-1.3982,0.0,0.0,0.0,0.0,0.0,0.0,0.0,0.0,-1.0251,-1.0064,-0.9988,-0.9181,0.0,0.0,0.0,0.0,0.0,-1.1024,-1.2016,-1.2692,-1.2551,-1.2431,-1.2628,-1.3618,-1.4166,-1.4656,-1.5477,-1.5292,-1.5248,-1.6005,-1.5079,-1.4404,0.0,0.0,-1.5326,0.0,0.0,-1.4734,0.0,0.0,0.0,0.0,0.0,0.0,0.0,0.0,0.0,0.0,0.0,-1.3888,-1.4102,-1.5278,-1.6071,-1.6472,-1.6888,-1.7094,-1.7094,-1.7463,-1.8044,-1.8788,-1.9294,-1.994,0.0,0.0,-2.0625,-2.0526,-2.0442,-2.04,-2.0485,-2.1341,-2.193,-2.2416,-2.3335,-2.3918,-2.4302,0.0,0.0,0.0,0.0,0.0,0.0,0.0,0.0,0.0,0.0,0.0,0.0,0.0,0.0,0.0,0.0,0.0,0.0,0.0,0.0,0.0,-1.3266,-1.298,-1.2845,-1.29,-1.29,-1.2748,-1.2567,-1.2719,-1.2524,-1.1951,-1.2432,-1.321,-1.4166,-1.5224,-1.5119,-1.4166,-1.4944,-1.4577,-1.3522,0.0,0.0,0.0,0.0,0.0,0.0,0.0,0.0,0.0,0.0,-1.0698,-1.0516,-1.0079,0.0,0.0,0.0,0.0,0.0,-1.1494,-1.2101,-1.2527,-1.2685,-1.3317,-1.3969,-1.4159,-1.4776,-1.5289,-1.554,-1.5625,0.0,0.0,0.0,-1.6385,-1.7487,0.0,-1.5156,-1.5796,-1.43,0.0,0.0,0.0,0.0,0.0,0.0,0.0,0.0,0.0,0.0,0.0,0.0,-1.2753,-1.3042,-1.4072,-1.4666,-1.4682,-1.5174,-1.582,-1.6623,-1.6884,-1.7385,-1.8032,-1.8631,-1.9099,-1.9476,0.0,-1.9683,-1.9388,-1.9388,-1.9388,-1.9402,-1.9834,-2.0529,-2.1465,-2.2944,-2.3641,-2.381,0.0,0.0,0.0,0.0,0.0,0.0,0.0,0.0,0.0,0.0,0.0,0.0,0.0,0.0,0.0,0.0,0.0,0.0,0.0,0.0,-1.4134,-1.33,-1.2996,-1.2831,-1.276,-1.2753,-1.2673,-1.2445,-1.2445,-1.22,-1.1738,-1.2251,-1.317,-1.4388,-1.4653,-1.4595,-1.4328,-1.4661,-1.4301,-1.3425,0.0,0.0,0.0,0.0,0.0,0.0,0.0,0.0,0.0,0.0,0.0,0.0,0.0,0.0,0.0,-1.1454,-1.1352,-1.1295,-1.1736,-1.1984,-1.234,-1.2846,-1.385,-1.4695,-1.479,-1.5207,-1.5638,-1.5957,-1.6122,0.0,0.0,-1.6816,0.0,-1.8617,-1.6645,-1.5248,-1.582,0.0,0.0,0.0,0.0,0.0,0.0,0.0,0.0,0.0,0.0,0.0,0.0,0.0,-1.1909,-1.2276,-1.3012,-1.3407,-1.3398,-1.3989,-1.4831,-1.5971,-1.603,-1.6397,-1.6965,-1.7632,-1.7938,-1.8058,-1.8545,-1.8531,-1.8096,-1.8236,-1.8222,-1.811,-1.8559,-1.9391,-2.0595,-2.2225,-2.2825,-2.2917,0.0,0.0,0.0,0.0,0.0,0.0,0.0,0.0,0.0,0.0,0.0,0.0,0.0,0.0,0.0,0.0,0.0,0.0,0.0,0.0,-1.4552,-1.2676,-1.2785,-1.2744,-1.2311,-1.2305,-1.2303,-1.2226,-1.2226,-1.2276,-1.2452,-1.3393,-1.3667,-1.3521,-1.5606,-1.5389,-1.3535,-1.5793,-1.5374,-1.3388,-1.4261,0.0,0.0,0.0,0.0,0.0,0.0,0.0,0.0,0.0,0.0,0.0,0.0,0.0,-1.139,-1.0837,-1.083,-1.0949,-1.0969,-1.1773,-1.2614,-1.2928,-1.3053,-1.345,-1.5097,-1.5227,-1.5339,-1.6587,-1.6816,-1.6739,0.0,-1.6176,-1.5988,-1.6041,-1.5779,-1.5579,0.0,0.0,0.0,0.0,0.0,0.0,0.0,0.0,0.0,0.0,0.0,0.0,0.0,0.0,0.0,-1.1918,-1.2525,-1.2837,-1.2851,-1.3491,-1.3883,-1.3999,-1.3999,-1.4123,-1.4368,-1.5169,-1.562,-1.5796,-1.655,-1.6859,-1.6859,-1.7436,-1.7323,-1.7001,-1.8702,-1.972,-2.0389,-2.1147,-2.1424,-2.1553,0.0,0.0,0.0,0.0,0.0,0.0,0.0,0.0,0.0,0.0,0.0,0.0,0.0,0.0,0.0,0.0,0.0,0.0,0.0,0.0,-1.381,-1.2048,-1.2479,-1.246,-1.1942,-1.1929,-1.1866,-1.1657,-1.19,-1.2557,-1.3596,-1.3917,-1.4743,-1.5809,-1.669,-1.6587,-1.5878,-1.6932,-1.637,-1.4843,-1.5072,-1.4977,0.0,0.0,0.0,0.0,0.0,0.0,0.0,0.0,-1.1059,-1.1297,0.0,0.0,-1.1561,-1.1622,-1.1528,-1.1333,-1.1465,-1.2004,-1.2608,-1.2938,-1.3194,-1.3542,-1.4728,-1.5041,-1.5122,-1.5185,-1.5503,-1.5773,0.0,0.0,-1.6158,-1.6148,-1.5529,0.0,0.0,0.0,0.0,0.0,0.0,0.0,0.0,0.0,0.0,0.0,0.0,0.0,0.0,0.0,0.0,-1.1526,-1.2358,-1.2583,-1.2047,-1.2883,-1.3217,-1.3002,-1.3674,-1.4033,-1.4113,-1.4775,-1.5234,-1.5524,-1.6078,-1.6486,-1.6705,-1.6944,-1.6902,-1.6803,-1.7757,-1.8579,-1.9321,-2.0303,-2.0972,-2.1523,0.0,0.0,0.0,0.0,0.0,0.0,0.0,0.0,0.0,0.0,0.0,0.0,0.0,0.0,0.0,0.0,0.0,0.0,-1.4398,-1.4018,-1.3201,-1.1917,-1.2201,-1.2176,-1.1627,-1.1527,-1.1426,-1.1293,-1.1873,-1.262,-1.3626,-1.4217,-1.5265,-1.6596,-1.6711,-1.6752,-1.6814,-1.7088,-1.6644,-1.5723,-1.5896,-1.5823,0.0,0.0,0.0,0.0,0.0,0.0,0.0,0.0,0.0,0.0,0.0,0.0,0.0,0.0,-1.1696,-1.1549,-1.1703,-1.2058,-1.2483,-1.2953,-1.3104,-1.3384,-1.4109,-1.4678,-1.4919,-1.4745,-1.4736,-1.4839,-1.4767,0.0,0.0,0.0,0.0,0.0,0.0,0.0,0.0,0.0,0.0,0.0,0.0,0.0,0.0,0.0,0.0,0.0,0.0,0.0,0.0,0.0,-1.2219,-1.243,-1.2058,-1.2707,-1.3031,-1.3019,-1.3796,-1.3974,-1.3691,-1.4138,-1.4584,-1.4938,-1.5367,-1.5765,-1.6101,-1.6312,-1.6485,-1.6627,-1.676,-1.7211,-1.7897,-1.8989,-1.9898,-2.0649,0.0,0.0,0.0,0.0,0.0,0.0,0.0,0.0,0.0,0.0,0.0,0.0,0.0,0.0,0.0,0.0,0.0,0.0,-1.4523,-1.378,-1.3006,-1.2307,-1.207,-1.1772,-1.1528,-1.1256,-1.1206,-1.1299,-1.2084,-1.2438,-1.2466,-1.4298,-1.515,-1.5165,-1.5416,-1.5481,-1.553,-1.6203,-1.6244,-1.5897,-1.6656,-1.6514,-1.571,0.0,0.0,0.0,0.0,0.0,0.0,0.0,-1.3314,0.0,0.0,0.0,0.0,0.0,-1.1059,-1.138,-1.1567,-1.1802,-1.2197,-1.2848,-1.2767,-1.2694,-1.3345,-1.4065,-1.4832,-1.5615,-1.492,-1.4047,-1.3762,-1.3012,0.0,-1.2036,0.0,0.0,0.0,0.0,0.0,0.0,0.0,0.0,0.0,0.0,0.0,0.0,0.0,0.0,0.0,0.0,0.0,0.0,-1.2101,0.0,-1.2986,-1.3118,-1.3481,-1.4113,-1.4261,-1.3734,-1.2721,-1.3047,-1.3412,-1.3728,-1.4138,-1.4493,-1.485,-1.5469,-1.597,-1.6344,-1.5728,-1.5784,-1.6314,-1.712,-1.7876,-1.8608,0.0,0.0,0.0,0.0,0.0,0.0,0.0,0.0,0.0,0.0,0.0,0.0,0.0,0.0,0.0,0.0,0.0,0.0,-1.4033,-1.3881,-1.3271,-1.1967,-1.2005,-1.2056,-1.2071,-1.225,-1.2458,-1.2884,-1.3603,-1.4371,-1.5218,-1.603,-1.6455,-1.6607,-1.6993,-1.6944,-1.6604,-1.7076,-1.6966,-1.6595,-1.7142,-1.7046,-1.6638,0.0,0.0,0.0,0.0,0.0,0.0,0.0,0.0,0.0,0.0,0.0,0.0,-1.2806,-1.306,-1.3477,-1.3155,-1.3721,-1.4379,-1.4594,-1.4266,-1.4002,-1.4212,-1.3866,-1.3562,0.0,-1.3186,-1.2587,-1.252,-1.2484,0.0,0.0,0.0,0.0,0.0,0.0,0.0,0.0,0.0,0.0,0.0,0.0,0.0,0.0,0.0,0.0,0.0,0.0,0.0,0.0,0.0,0.0,-1.2861,-1.3176,-1.3645,-1.4261,-1.4289,-1.412,-1.3819,-1.3921,-1.4337,-1.4951,-1.4603,-1.483,-1.5426,-1.5174,-1.517,-1.5298,-1.5536,-1.6009,-1.6652,-1.7348,-1.8095,-1.8892,0.0,0.0,0.0,0.0,0.0,0.0,0.0,0.0,0.0,0.0,0.0,0.0,0.0,0.0,0.0,0.0,0.0,0.0,0.0,-1.3343,-1.2729,-1.1585,-1.1877,-1.2267,-1.2659,-1.3209,-1.3584,-1.3843,-1.4228,-1.471,-1.547,-1.6279,-1.6749,-1.6845,-1.7234,-1.722,-1.6791,-1.696,-1.6943,-1.6881,-1.7193,-1.7149,-1.7008,0.0,0.0,0.0,0.0,0.0,0.0,0.0,0.0,0.0,0.0,0.0,0.0,-1.3892,-1.4098,-1.4538,-1.4377,-1.4891,-1.548,-1.548,-1.5225,-1.4956,-1.4669,-1.3801,-1.2972,0.0,-1.2401,-1.1971,-1.1971,-1.2094,0.0,0.0,0.0,0.0,0.0,0.0,0.0,0.0,0.0,0.0,0.0,0.0,0.0,0.0,0.0,0.0,0.0,0.0,0.0,0.0,0.0,0.0,-1.3357,-1.3586,-1.4116,-1.4874,-1.4874,-1.4874,-1.4862,-1.4482,-1.4748,-1.5511,-1.5398,-1.564,-1.6059,-1.5426,-1.5255,-1.5461,-1.5965,-1.6307,-1.6678,-1.7487,-1.8091,-1.8575,0.0,0.0,0.0,0.0,0.0,0.0,0.0,0.0,0.0,0.0,-1.9469,0.0,0.0,0.0,0.0,0.0,0.0,0.0,0.0,0.0,-1.1948,-1.1467,-1.1901,-1.2518,-1.3423,-1.4066,-1.445,-1.4428,-1.4182,-1.4096,-1.4175,-1.5624,-1.6263,-1.622,-1.6621,-1.6578,-1.6276,-1.6067,-1.627,-1.661,-1.6855,-1.6909,-1.6883,-1.6918,0.0,0.0,0.0,0.0,0.0,0.0,0.0,0.0,-1.5248,-1.5149,-1.5307,-1.4637,-1.4647,-1.501,-1.5333,-1.567,-1.5886,-1.5886,-1.5886,-1.5609,-1.4752,-1.3799,-1.2994,-1.2571,0.0,-1.1992,-1.1992,-1.1821,0.0,0.0,0.0,0.0,0.0,0.0,0.0,0.0,0.0,0.0,0.0,0.0,0.0,0.0,0.0,0.0,0.0,0.0,0.0,0.0,0.0,0.0,-1.4204,-1.4204,-1.4687,0.0,-1.5744,-1.5768,-1.5696,-1.4814,-1.4834,-1.5603,-1.6426,-1.6733,-1.6635,-1.6045,-1.6055,-1.6459,-1.6787,-1.6754,-1.6675,-1.7661,-1.801,-1.8054,0.0,0.0,0.0,0.0,0.0,0.0,0.0,0.0,0.0,0.0,0.0,0.0,0.0,0.0,0.0,0.0,0.0,0.0,0.0,0.0,-1.2898,-1.2286,-1.3317,-1.4073,-1.4223,-1.4619,-1.4706,-1.4457,-1.4736,-1.5043,-1.534,-1.5725,-1.5748,-1.548,-1.5863,-1.5821,-1.5463,-1.538,-1.5618,-1.6022,-1.6378,-1.6327,-1.6093,-1.6532,-1.642,0.0,0.0,0.0,0.0,0.0,0.0,0.0,-1.6039,-1.6247,-1.6419,-1.5638,-1.6136,-1.6834,-1.6596,-1.7004,-1.752,-1.752,-1.7079,-1.6228,-1.45,-1.4219,-1.3901,-1.2743,-1.2077,-1.1663,-1.1663,0.0,0.0,0.0,0.0,0.0,0.0,0.0,0.0,0.0,0.0,0.0,0.0,0.0,0.0,0.0,0.0,0.0,0.0,0.0,0.0,0.0,0.0,-1.3219,-1.4248,-1.4292,-1.4402,0.0,-1.544,-1.5576,-1.5181,-1.5372,-1.5669,-1.6088,-1.7009,-1.714,-1.6712,-1.6612,-1.661,-1.678,-1.7524,-1.7792,-1.7821,-1.861,-1.8917,-1.8998,0.0,0.0,0.0,0.0,0.0,0.0,0.0,0.0,0.0,0.0,0.0,0.0,0.0,0.0,0.0,0.0,0.0,0.0,0.0,0.0,-1.323,-1.3017,-1.394,-1.4596,-1.4926,-1.5094,-1.5094,-1.4926,-1.5225,-1.5263,-1.5157,-1.5332,-1.5356,-1.5221,-1.5782,-1.5798,-1.5497,-1.5497,-1.5576,-1.5814,-1.6011,-1.5977,-1.5822,-1.6091,-1.6173,-1.6105,-1.6042,0.0,0.0,0.0,0.0,0.0,0.0,0.0,-1.6826,-1.652,-1.684,-1.7345,-1.7331,-1.7552,-1.7813,-1.7764,-1.7427,-1.6731,-1.5304,-1.5061,-1.4903,-1.3932,-1.2816,-1.1981,0.0,0.0,0.0,0.0,0.0,0.0,0.0,0.0,0.0,0.0,0.0,0.0,0.0,0.0,0.0,0.0,0.0,0.0,0.0,-1.2532,0.0,0.0,-1.2654,-1.2946,-1.3718,-1.3941,-1.4176,-1.4408,-1.4926,-1.5181,-1.5235,-1.6101,-1.657,-1.6728,-1.7705,-1.7932,-1.7644,-1.7427,-1.7391,-1.7551,-1.8299,-1.8422,-1.8361,-1.9356,-1.9508,-1.9264,0.0,0.0,0.0,0.0,0.0,0.0,0.0,0.0,0.0,0.0,0.0,0.0,0.0,0.0,0.0,0.0,0.0,0.0,0.0,0.0,0.0,-1.3724,-1.4248,-1.4824,-1.5431,-1.5431,-1.5431,-1.5431,-1.5367,-1.5154,-1.4729,-1.5111,-1.5372,-1.5411,-1.5972,-1.6038,-1.582,-1.5752,-1.5726,-1.5805,-1.5805,-1.5805,-1.5805,-1.5805,-1.5938,-1.6079,-1.614,-1.6325,-1.6551,-1.6684,0.0,0.0,0.0,0.0,-1.6908,-1.7107,-1.7166,-1.7304,-1.7579,-1.7716,-1.7687,-1.748,-1.7383,0.0,-1.6367,-1.6071,-1.5834,-1.5302,-1.3958,-1.2679,0.0,0.0,0.0,0.0,0.0,0.0,0.0,0.0,0.0,0.0,0.0,0.0,0.0,0.0,0.0,0.0,0.0,0.0,-1.2667,-1.2422,-1.2289,-1.2256,-1.2315,-1.256,-1.3118,-1.3552,-1.3915,-1.4232,-1.4318,-1.4661,-1.5266,-1.6453,-1.7094,-1.7323,-1.8228,-1.8634,-1.8669,-1.8278,-1.8195,-1.8396,-1.9027,-1.904,-1.8843,-2.0044,-2.0078,-1.9573,0.0,0.0,0.0,0.0,0.0,0.0,0.0,0.0,0.0,0.0,-1.8721,0.0,0.0,0.0,0.0,0.0,0.0,0.0,-1.3237,0.0,0.0,-1.4387,-1.4916,-1.5347,-1.5431,-1.5431,-1.5431,-1.5431,-1.4903,-1.4941,-1.5438,-1.5947,-1.6152,-1.6121,-1.5931,-1.5864,-1.5748,-1.5416,-1.5505,-1.5805,-1.5805,-1.5805,-1.5805,-1.5805,-1.5805,-1.591,-1.6373,-1.6349,-1.6254,-1.6875,-1.6901,0.0,0.0,0.0,-1.6908,-1.6908,-1.7038,-1.7235,-1.7461,0.0,-1.7833,0.0,-1.7383,-1.7256,0.0,0.0,-1.6383,0.0,-1.4763,0.0,0.0,0.0,0.0,0.0,0.0,0.0,0.0,0.0,0.0,0.0,0.0,0.0,0.0,0.0,0.0,0.0,0.0,0.0,-1.2483,-1.2507,-1.2558,-1.254,-1.2457,-1.2631,-1.317,-1.354,-1.3496,-1.3116,-1.3582,-1.4097,-1.4676,-1.5691,-1.6634,-1.7475,-1.8029,-1.8464,-1.8784,-1.8841,-1.8864,-1.8962,-1.9738,-2.0008,-2.0048,-2.0863,-2.1115,-2.1034,0.0,0.0,0.0,0.0,0.0,0.0,0.0,0.0,0.0,0.0,0.0,-1.7354,0.0,0.0,0.0,-1.4561,-1.4065,-1.363,-1.3404,-1.3622,-1.4043,-1.4457,-1.4911,-1.524,-1.5423,-1.5248,-1.516,-1.516,-1.4922,-1.5248,-1.5967,-1.6439,-1.6484,-1.6286,-1.6335,-1.6288,-1.6035,-1.5867,-1.5944,-1.6096,-1.6096,-1.6233,-1.6405,-1.6191,-1.6242,-1.6422,-1.6435,-1.6378,-1.6445,-1.7131,-1.7143,-1.6946,-1.7168,0.0,0.0,0.0,-1.6968,-1.7107,-1.7401,-1.7666,-1.7755,0.0,-1.7383,-1.7275,-1.6836,-1.6924,-1.7025,-1.6867,0.0,0.0,0.0,0.0,0.0,0.0,0.0,0.0,0.0,0.0,0.0,0.0,0.0,0.0,0.0,0.0,0.0,0.0,0.0,-1.2629,-1.2523,-1.2077,-1.1824,-1.183,-1.1801,-1.1888,-1.2125,-1.2768,-1.3093,-1.3082,-1.3295,-1.3728,-1.43,-1.4929,-1.5904,-1.709,-1.7905,-1.8489,-1.8927,-1.9003,-1.9055,-1.9116,-1.9894,-2.0208,-2.0277,-2.1039,-2.1309,-2.1309,0.0,0.0,0.0,0.0,0.0,0.0,0.0,0.0,0.0,0.0,0.0,0.0,0.0,0.0,0.0,0.0,-1.3702,-1.3492,-1.3492,-1.3799,-1.4128,-1.4457,-1.4772,-1.5094,-1.5423,-1.5109,-1.5021,-1.5175,-1.5226,-1.5644,-1.6526,-1.6909,-1.7047,-1.7038,-1.7019,-1.6733,-1.6328,-1.6336,-1.6336,-1.6319,-1.6233,-1.643,-1.6747,-1.6456,-1.6524,-1.6764,-1.6736,-1.6715,-1.6846,-1.7539,-1.7492,-1.7225,-1.7423,-1.7422,0.0,0.0,0.0,-1.7382,-1.7862,0.0,-1.8237,-1.8127,-1.7845,-1.7575,0.0,0.0,-1.7478,0.0,0.0,0.0,0.0,0.0,0.0,0.0,0.0,0.0,0.0,0.0,0.0,0.0,0.0,0.0,0.0,0.0,0.0,0.0,0.0,-1.2498,-1.2478,-1.1711,-1.1267,-1.1115,-1.1274,-1.1356,-1.1356,-1.2198,-1.2791,-1.3198,-1.3198,-1.3446,-1.3883,-1.4382,-1.524,-1.6389,-1.7595,-1.845,-1.9017,-1.9078,-1.9176,-1.9325,-1.9929,-2.0243,-2.0429,-2.1071,-2.1309,-2.1325,0.0,0.0,0.0,0.0,0.0,0.0,0.0,0.0,0.0,0.0,0.0,0.0,-1.6932,-1.5251,-1.4129,-1.4129,-1.3702,-1.3492,-1.3492,-1.3799,-1.4128,-1.4457,-1.4772,0.0,-1.5423,-1.5109,-1.5248,-1.6031,-1.5583,-1.6088,-1.7486,-1.7415,-1.7935,-1.8974,-1.7916,-1.7047,-1.6328,-1.6345,-1.6345,-1.6302,-1.5968,-1.6054,-1.6452,-1.6345,-1.6353,-1.6547,-1.7405,-1.7491,-1.7313,-1.81,-1.7875,-1.7225,-1.7423,-1.7238,-1.6936,0.0,0.0,0.0,-1.9233,-1.9573,0.0,-1.9944,-1.9147,-1.842,0.0,0.0,0.0,0.0,0.0,0.0,0.0,0.0,0.0,0.0,0.0,0.0,0.0,0.0,0.0,0.0,0.0,0.0,0.0,0.0,0.0,0.0,0.0,-1.2573,-1.2144,-1.1789,-1.1385,-1.0933,-1.1276,-1.1479,-1.1479,-1.2234,-1.2791,-1.3198,-1.3198,-1.3223,-1.3295,-1.4188,-1.4835,-1.536,-1.6876,-1.8115,-1.9101,-1.9101,-1.9325,-1.9711,-2.007,-2.0429,-2.0827,-2.1183,-2.1309,-2.1356,0.0,0.0,0.0,0.0,0.0,0.0,0.0,0.0,0.0,0.0,0.0,0.0,0.0,-1.5242,-1.4258,-1.3775,-1.3564,-1.3587,-1.3799,-1.3916,-1.4216,-1.475,-1.4882,-1.5094,-1.5423,-1.5109,-1.523,-1.5771,-1.553,-1.6085,-1.7315,-1.7397,-1.7777,-1.8458,-1.8534,-1.8455,-1.8265,-1.789,-1.7663,-1.757,-1.707,-1.7098,-1.7406,-1.7158,-1.7295,-1.7674,-1.7787,-1.7935,-1.8266,-1.8662,-1.8605,-1.8348,-1.8561,-1.8152,-1.765,-1.7593,-1.824,-1.8905,-1.9071,0.0,0.0,-1.913,-1.9037,-1.8988,-1.9158,-1.8908,-1.8736,0.0,0.0,0.0,0.0,0.0,0.0,0.0,0.0,0.0,0.0,0.0,0.0,0.0,0.0,0.0,0.0,0.0,0.0,0.0,0.0,0.0,-1.2242,-1.182,-1.1375,-1.0902,-1.1023,-1.1239,-1.1516,-1.2029,-1.2461,-1.2826,-1.3082,-1.3198,-1.321,-1.3754,-1.4438,-1.5257,-1.6006,-1.7157,-1.855,-1.8941,-1.9362,-1.9711,-2.0085,-2.0462,-2.0827,-2.1183,-2.1309,-2.134,0.0,0.0,0.0,0.0,0.0,0.0,0.0,0.0,0.0,-1.9412,0.0,0.0,0.0,0.0,-1.4626,-1.3741,-1.3762,-1.3865,-1.3975,-1.4084,-1.4384,-1.4918,-1.486,-1.5168,-1.5816,-1.5388,-1.5592,-1.6489,-1.6215,-1.6616,-1.7769,-1.791,-1.8197,-1.8652,-1.9156,-1.9184,-1.8711,-1.8601,-1.8485,-1.8485,-1.7894,-1.7822,-1.8127,-1.7639,-1.7785,-1.8247,-1.8162,-1.8461,-1.8914,-1.9038,-1.921,-1.9282,-1.9197,-1.8856,-1.8447,-1.868,-1.9166,-1.9695,-1.9766,-1.9747,-1.966,0.0,-1.9404,-1.9437,-1.9592,0.0,0.0,0.0,0.0,0.0,0.0,0.0,0.0,0.0,0.0,0.0,0.0,0.0,0.0,0.0,0.0,0.0,0.0,0.0,0.0,0.0,0.0,0.0,-1.2424,-1.2036,-1.1651,-1.126,-1.1136,-1.1351,-1.1847,-1.2077,-1.2365,-1.2708,-1.3047,-1.3198,-1.3198,-1.3547,-1.4146,-1.4923,-1.5449,-1.665,-1.8245,-1.8637,-1.9243,-1.9874,-2.0104,-2.053,-2.099,-2.1214,-2.134,-2.1464,0.0,0.0,0.0,0.0,0.0,0.0,0.0,0.0,-1.9799,-1.9858,0.0,0.0,0.0,0.0,0.0,-1.4094,-1.4289,-1.434,-1.4033,-1.4304,-1.4626,-1.494,-1.4955,-1.5493,-1.669,-1.6039,-1.6514,-1.8332,-1.7708,-1.792,-1.8828,-1.9008,-1.9313,-1.9806,-1.9806,-1.8932,-1.7499,-1.8351,-1.8775,-1.8711,-1.8146,-1.8149,-1.8321,-1.7796,-1.7715,-1.804,-1.8531,-1.8931,-1.9188,-1.9279,-1.9571,-1.9834,-1.9394,-1.9164,-1.9187,-1.9911,-2.0302,-2.0624,0.0,0.0,0.0,-2.1296,0.0,0.0,-2.0167,0.0,0.0,0.0,0.0,0.0,0.0,0.0,0.0,0.0,0.0,0.0,0.0,0.0,0.0,0.0,0.0,0.0,0.0,0.0,0.0,0.0,0.0,-1.3627,-1.2669,-1.2424,-1.2196,-1.1906,-1.1664,-1.1799,-1.2473,-1.2437,-1.2591,-1.2896,-1.3094,-1.3198,-1.3198,-1.3547,-1.3914,-1.436,-1.5268,-1.6607,-1.8143,-1.8187,-1.9001,-2.0208,-2.0208,-2.0663,-2.1309,-2.1309,-2.1481,-2.1738,0.0,0.0,0.0,0.0,0.0,0.0,-2.3572,-2.1931,-2.0617,0.0,0.0,0.0,-1.8619,-1.6856,-1.5311,-1.4418,-1.4414,-1.4523,-1.4662,-1.4757,-1.5189,-1.6141,-1.6238,-1.6758,-1.7819,-1.7695,-1.8013,-1.9042,-1.8632,0.0,0.0,0.0,-1.9137,-1.9261,-1.9261,-1.9055,-1.8677,-1.9446,-1.9801,-1.9756,-1.9449,-1.9104,-1.8831,-1.8673,-1.8585,-1.8531,-1.862,-1.9102,-1.977,-2.0065,-2.0429,-2.0703,-2.0232,-2.0552,-2.0963,-2.0466,-2.0828,-2.1342,-2.1289,0.0,0.0,0.0,0.0,0.0,0.0,0.0,0.0,0.0,0.0,0.0,0.0,0.0,0.0,0.0,0.0,0.0,0.0,0.0,0.0,0.0,0.0,0.0,0.0,0.0,0.0,0.0,-1.4569,-1.4116,-1.3159,-1.2598,-1.2256,-1.218,-1.1927,-1.1872,-1.2054,-1.2473,-1.2733,-1.2838,-1.3094,-1.3198,-1.3198,-1.3547,-1.3914,-1.4332,-1.485,-1.5691,-1.6837,-1.7809,-1.9001,-2.0208,-2.0208,-2.0663,-2.1309,-2.1309,-2.1481,-2.1738,0.0,0.0,0.0,0.0,0.0,0.0,-2.3931,-2.2295,-2.1021,0.0,0.0,0.0,-1.909,-1.8089,-1.6814,-1.5372,-1.5329,-1.5275,-1.494,-1.5375,-1.6013,-1.6756,-1.718,-1.79,-1.8939,-1.8777,0.0,0.0,0.0,0.0,0.0,0.0,0.0,-1.9354,-1.9354,-1.9251,-1.9147,-1.9961,-2.0303,-2.028,-2.0293,-2.0079,-1.9775,-1.9311,-1.9181,0.0,0.0,-1.9597,-2.0555,-2.0516,-2.0964,-2.1532,-2.1418,-2.162,-2.1758,-2.0975,-2.1158,-2.1639,-2.1384,-2.1212,-2.0899,-2.0261,0.0,0.0,-1.9982,-2.0511,0.0,0.0,0.0,0.0,0.0,0.0,0.0,0.0,0.0,0.0,0.0,0.0,0.0,0.0,0.0,0.0,0.0,0.0,0.0,0.0,-1.5499,-1.4993,-1.3817,-1.3192,-1.2788,-1.273,-1.2472,-1.2284,-1.2282,-1.2579,-1.2803,-1.2838,-1.3094,-1.3198,-1.3198,-1.3547,-1.3914,-1.4332,-1.4651,-1.5321,-1.6285,-1.7359,-1.8584,-1.9857,-2.01,-2.0663,-2.1309,-2.1309,-2.1526,-2.184,0.0,0.0,0.0,0.0,0.0,0.0,-2.412,-2.2524,-2.126,0.0,-2.0876,-2.0387,-1.9543,-1.9705,-1.8975,-1.6766,-1.6782,-1.648,-1.5434,-1.6374,-1.7057,-1.7245,-1.8052,-1.8939,-2.006,-1.9707,0.0,0.0,0.0,0.0,0.0,0.0,0.0,0.0,0.0,0.0,-1.9193,-2.0107,-2.0502,-2.0503,-2.0888,-2.0944,0.0,0.0,-1.9691,-1.9815,-1.9439,-2.0145,-2.1289,-2.0948,-2.1487,0.0,-2.2696,-2.2421,-2.1904,-2.1463,-2.1544,-2.1761,-2.1761,-2.12,-2.0646,-2.0586,-1.9817,0.0,-1.9788,-2.0465,-2.1026,0.0,0.0,0.0,0.0,0.0,0.0,0.0,0.0,0.0,0.0,0.0,0.0,0.0,0.0,0.0,0.0,-1.6911,-1.6909,-1.6243,-1.645,-1.5982,-1.4589,-1.4044,-1.3633,-1.335,-1.3073,-1.2918,-1.2803,-1.2768,-1.2815,-1.2965,-1.3116,-1.3198,-1.3198,-1.3581,-1.3947,-1.4332,-1.4683,-1.5367,-1.6256,-1.6957,-1.8071,-1.935,-1.9946,-2.0663,-2.1309,-2.134,-2.1631,-2.1982,-2.8291,0.0,0.0,0.0,0.0,0.0,0.0,-2.3261,-2.2414,-2.1748,-2.1608,-2.1273,-2.0623,-2.0199,-1.9742,-1.9187,-1.8574,-1.8287,-1.844,-1.8321,-1.846,-1.9045,-1.9274,-1.9913,-2.1185,-2.1104,-2.1217,0.0,0.0,0.0,0.0,0.0,0.0,0.0,0.0,0.0,-1.9603,-2.0823,0.0,-2.092,-2.1424,-2.1339,-2.0944,-2.1001,-2.0508,-1.979,-2.0624,-2.0868,-2.0909,-2.2132,-2.3073,-2.3731,0.0,0.0,-2.2611,-2.2243,-2.2004,-2.1874,-2.2073,-2.1668,-2.1139,-2.0718,-2.0117,0.0,-1.9548,-1.9944,-2.0446,0.0,0.0,0.0,0.0,0.0,0.0,0.0,0.0,0.0,0.0,0.0,0.0,0.0,0.0,0.0,0.0,-1.8246,-1.8184,-1.787,-1.7038,-1.6161,-1.5318,-1.4896,-1.4293,-1.3576,-1.3314,-1.308,-1.2803,-1.2955,-1.3129,-1.3288,-1.3232,-1.3198,-1.3232,-1.3894,-1.4222,-1.4332,-1.4932,-1.5585,-1.6288,-1.7285,-1.8334,-1.935,-1.9946,-2.0663,-2.1325,-2.1526,-2.1781,-2.2027,-2.8127,0.0,0.0,0.0,0.0,0.0,0.0,-2.3486,-2.2875,-2.2507,-2.2676,-2.2423,-2.146,-2.1265,-2.0997,-2.0602,-1.9929,-1.9587,-1.9434,-1.9614,-1.9907,-2.0235,-2.0632,-2.1095,-2.1665,-2.1655,-2.1731,0.0,0.0,0.0,0.0,0.0,0.0,0.0,0.0,-2.051,-1.9921,-2.1098,-2.1511,-2.1366,-2.2104,0.0,-2.1928,-2.1928,-2.1548,-2.1078,-2.1451,-2.168,-2.1959,-2.3477,-2.409,0.0,-2.3603,-2.3317,-2.3154,0.0,-2.2327,-2.2258,-2.2071,-2.174,-2.1344,-2.1079,-2.0382,0.0,0.0,-2.0035,-2.02,-2.0235,0.0,0.0,0.0,0.0,0.0,0.0,0.0,0.0,0.0,0.0,0.0,0.0,0.0,0.0,0.0,-1.9403,-1.9013,-1.8117,-1.7279,-1.649,-1.5772,-1.5429,-1.495,-1.4263,-1.3976,-1.3592,-1.3083,-1.3192,-1.3284,-1.3301,-1.3232,-1.3198,-1.3232,-1.396,-1.43,-1.4332,-1.4994,-1.5487,-1.5866,-1.7215,-1.8201,-1.8903,-2.0058,-2.0844,-2.134,-2.1603,-2.1827,-2.2027,-2.8174,-2.8215,0.0,0.0,0.0,0.0,0.0,0.0,-2.333,-2.3275,-2.3601,-2.3553,-2.2601,-2.2778,-2.2726,-2.2164,-2.1569,-2.1005,-2.054,-2.1025,-2.1345,-2.1318,-2.198,-2.2183,-2.1952,-2.1932,-2.1901,0.0,0.0,0.0,0.0,0.0,0.0,0.0,0.0,-2.1338,-2.0578,-2.1548,0.0,-2.1941,0.0,-2.315,-2.3001,-2.2703,-2.2553,-2.2402,-2.2155,-2.2531,-2.3353,-2.4414,-2.4522,-2.412,-2.3718,-2.3583,0.0,0.0,0.0,0.0,0.0,0.0,0.0,0.0,0.0,-1.9946,0.0,0.0,0.0,0.0,0.0,0.0,0.0,0.0,0.0,0.0,0.0,0.0,0.0,0.0,0.0,0.0,0.0,0.0,0.0,-2.0321,-1.9659,-1.8111,-1.7617,-1.7001,-1.6081,-1.5901,-1.5516,-1.4905,-1.4704,-1.4211,-1.3394,-1.3457,-1.3386,-1.3198,-1.3198,-1.3198,-1.3232,-1.3894,-1.4222,-1.4332,-1.4932,-1.528,-1.5574,-1.7204,-1.8111,-1.8578,-2.0159,-2.099,-2.134,-2.1648,-2.1869,-2.2056,-2.8827,-2.913,-2.9103,0.0,0.0,0.0,0.0,0.0,-2.4491,-2.3567,-2.389,-2.4297,-2.4806,-2.4555,-2.4576,-2.5265,-2.4226,-2.36,-2.389,-2.3282,-2.2832,-2.2717,-2.2788,-2.2654,-2.2428,-2.2418,-2.2366,-2.2327,0.0,0.0,0.0,0.0,0.0,0.0,-2.2604,-2.2343,-2.2013,0.0,-2.2999,0.0,-2.3743,-2.3677,0.0,-2.3372,-2.3001,-2.2478,-2.2777,-2.3372,-2.4055,0.0,-2.4235,-2.4189,0.0,-2.384,-2.3273,-2.3368,0.0,0.0,0.0,0.0,0.0,0.0,-2.0656,0.0,0.0,0.0,-2.0398,-2.0472,0.0,0.0,0.0,0.0,0.0,0.0,0.0,0.0,0.0,0.0,0.0,0.0,0.0,0.0,0.0,0.0,-2.009,-1.8943,-1.8541,-1.7723,-1.6331,-1.6454,-1.6076,-1.4947,-1.5144,-1.4663,-1.3394,-1.368,-1.364,-1.3198,-1.3198,-1.3198,-1.3198,-1.3581,-1.3947,-1.4332,-1.4651,-1.5244,-1.6134,-1.7544,-1.8419,-1.8964,-2.0282,-2.099,-2.134,-2.1794,-2.1969,-2.2056,-2.9271,-2.9369,-2.931,0.0,0.0,0.0,0.0,0.0,-2.5622,-2.3731,-2.4819,-2.5706,-2.5653,-2.5492,-2.5531,-2.6164,-2.548,-2.4967,-2.4723,-2.4348,-2.4002,-2.3536,-2.3505,-2.3246,-2.2825,-2.2882,-2.2804,-2.2777,-2.3001,0.0,0.0,0.0,0.0,0.0,-2.2834,0.0,-2.2514,0.0,-2.3301,0.0,0.0,0.0,0.0,-2.3897,-2.3751,-2.3446,-2.3677,-2.3897,-2.42,0.0,-2.4077,0.0,0.0,0.0,0.0,-2.3126,0.0,0.0,0.0,0.0,0.0,0.0,0.0,0.0,-2.2141,0.0,-2.1356,0.0,0.0,0.0,0.0,0.0,0.0,0.0,-2.1834,0.0,0.0,0.0,0.0,0.0,0.0,0.0,0.0,0.0,0.0,0.0,0.0,-1.8579,-1.696,-1.6866,-1.6511,-1.5721,-1.5648,-1.5295,-1.4581,-1.4688,-1.4424,-1.3709,-1.3638,-1.3546,-1.3459,-1.3735,-1.4065,-1.442,-1.4735,-1.5415,-1.6366,-1.7668,-1.8576,-1.9267,-2.0575,-2.1214,-2.1417,-2.1853,-2.2101,-2.2287,-2.9802,-2.9766,-2.9616,-2.9315,0.0,0.0,0.0,0.0,-2.6519,-2.484,-2.5857,-2.675,-2.65,-2.6388,-2.6489,-2.683,-2.6354,-2.5798,-2.5194,-2.504,-2.4707,-2.4095,-2.4221,-2.4011,-2.3509,-2.3577,-2.3666,-2.356,0.0,0.0,0.0,0.0,0.0,0.0,0.0,-2.3167,-2.3317,0.0,-2.3649,-2.3684,-2.4051,-2.42,-2.42,-2.42,-2.42,-2.42,-2.42,-2.4108,-2.4066,-2.4066,-2.3862,0.0,-2.3652,0.0,0.0,0.0,0.0,0.0,-2.2517,0.0,0.0,0.0,0.0,0.0,0.0,0.0,0.0,0.0,0.0,0.0,0.0,0.0,-2.1852,-2.1931,0.0,-2.2376,0.0,0.0,0.0,0.0,0.0,0.0,0.0,0.0,0.0,0.0,-1.9519,0.0,-1.7584,-1.7366,-1.7076,-1.6527,-1.6324,-1.6003,-1.5401,-1.5472,-1.4995,-1.4048,-1.3902,-1.376,-1.3581,-1.3769,-1.4084,-1.4501,-1.4735,-1.5432,-1.6446,-1.7637,-1.8512,-1.9331,-2.0751,-2.134,-2.1462,-2.1853,-2.2175,-2.2432,-3.0316,-3.0343,-3.0343,-3.0126,0.0,0.0,0.0,0.0,0.0,-2.7283,-2.6897,-2.692,-2.779,-2.75,-2.7417,-2.7862,-2.7086,-2.6372,-2.5885,-2.5461,-2.5016,-2.454,-2.4925,-2.4945,-2.4456,-2.4876,-2.5127,-2.5124,0.0,0.0,0.0,0.0,0.0,0.0,-2.4677,-2.4447,-2.4898,-2.4371,-2.4166,-2.4177,-2.4189,-2.42,-2.42,0.0,-2.42,-2.42,-2.42,0.0,0.0,-2.3688,-2.3467,0.0,0.0,0.0,0.0,0.0,0.0,0.0,0.0,0.0,0.0,-2.4292,0.0,0.0,0.0,0.0,-2.2929,0.0,0.0,0.0,0.0,-2.2555,-2.273,-2.2364,-2.2819,0.0,0.0,0.0,0.0,0.0,0.0,0.0,0.0,0.0,0.0,-2.0285,-1.994,0.0,-1.8057,-1.8095,-1.7814,-1.6993,-1.7297,-1.6788,-1.5401,-1.5583,-1.5114,-1.3914,-1.3791,-1.364,-1.348,-1.3514,-1.3868,-1.4501,-1.4433,-1.5131,-1.6383,-1.7416,-1.8268,-1.9049,-2.0671,-2.1386,-2.1554,-2.1882,-2.2175,-2.2432,-3.057,-3.052,-3.0292,-2.9934,-2.9869,0.0,0.0,-2.9237,0.0,0.0,-2.8661,0.0,0.0,-2.8245,-2.809,-2.7935,-2.7376,-2.6703,-2.5927,-2.5999,-2.5746,-2.4988,-2.5754,-2.5888,-2.5337,-2.5938,-2.615,-2.6162,0.0,0.0,0.0,0.0,0.0,0.0,0.0,-2.4945,0.0,0.0,0.0,0.0,0.0,-2.4345,-2.42,0.0,0.0,-2.4154,-2.3821,-2.3663,0.0,-2.3317,-2.3065,-2.2906,-2.2971,-2.2679,-2.245,-2.2911,-2.3178,0.0,0.0,0.0,-2.5175,-2.5175,0.0,0.0,0.0,0.0,0.0,0.0,0.0,0.0,0.0,-2.2465,-2.228,-2.2304,-2.2155,-2.2025,0.0,0.0,0.0,0.0,0.0,0.0,0.0,0.0,0.0,-2.0823,-2.0418,-1.9735,0.0,-1.8486,-1.8121,-1.7544,-1.7625,-1.7287,-1.6472,-1.6514,-1.598,-1.4888,-1.4743,-1.4536,-1.4315,-1.4657,-1.5007,-1.5315,-1.5761,-1.6621,-1.7792,-1.822,-1.897,-1.9912,-2.0927,-2.1355,-2.1509,-2.2015,-2.2371,-2.2605,-3.0773,-3.0609,-3.0381,-3.0011,-3.0033,0.0,0.0,0.0,0.0,0.0,-3.0158,0.0,-2.9505,0.0,-2.8305,0.0,-2.7306,-2.6618,-2.6282,-2.6328,-2.6173,-2.5788,-2.6552,-2.6772,-2.645,-2.7132,-2.743,-2.7174,0.0,-2.7189,0.0,0.0,0.0,0.0,0.0,-2.5264,-2.5647,-2.5438,-2.5241,0.0,0.0,-2.4302,0.0,0.0,-2.3996,-2.3939,0.0,-2.3259,-2.3267,-2.2983,-2.2657,-2.25,-2.25,-2.2513,-2.258,-2.3027,-2.3539,-2.4066,-2.4553,-2.5287,0.0,-2.5906,-2.6193,0.0,-2.5879,0.0,0.0,0.0,0.0,0.0,0.0,-2.2801,-2.2372,-2.2566,-2.2058,-2.1898,0.0,-2.3774,0.0,0.0,0.0,0.0,0.0,0.0,-2.2735,-2.1105,-2.1039,-2.0527,0.0,0.0,-1.8592,-1.8187,-1.8002,-1.772,-1.7242,-1.6993,-1.643,-1.5583,-1.5252,-1.4918,-1.4579,-1.5138,-1.5488,-1.565,-1.641,-1.7383,-1.849,-1.8584,-1.9299,-2.0373,-2.1039,-2.1324,-2.1479,-2.2089,-2.2535,-2.2842,-3.0773,-3.0698,-3.0546,0.0,-3.0375,0.0,0.0,0.0,-3.1601,0.0,-3.1348,-3.0997,-3.0766,-2.9181,-2.8167,-2.8615,-2.6971,-2.6129,-2.6764,-2.6249,0.0,0.0,-2.731,-2.7596,-2.7645,-2.8619,-2.8872,-2.8391,0.0,0.0,0.0,0.0,0.0,0.0,-2.5563,0.0,-2.6349,-2.5697,-2.5639,-2.5824,-2.4969,-2.4236,-2.3758,-2.3688,0.0,-2.3595,-2.3073,-2.2784,-2.2698,-2.2674,-2.248,-2.2197,-2.2247,-2.2641,-2.3148,-2.3314,-2.4239,-2.5231,-2.537,-2.5932,-2.6496,-2.6424,0.0,0.0,0.0,0.0,-2.4078,0.0,0.0,0.0,0.0,0.0,-2.297,-2.3105,-2.2585,-2.2517,-2.3689,-2.4592,-2.493,0.0,0.0,0.0,0.0,-2.4627,-2.4014,-2.1341,-2.1855,-2.1544,0.0,0.0,0.0,-1.8822,-1.8464,-1.8055,-1.772,-1.7089,-1.6497,-1.5922,-1.5288,-1.478,-1.4428,-1.5054,-1.5445,-1.5599,-1.6459,-1.7454,-1.8534,-1.8534,-1.9241,-2.0407,-2.1055,-2.137,-2.1509,-2.2118,-2.2642,-2.3095,-3.0911,-3.0773,-3.0622,0.0,-3.0125,-3.0193,0.0,0.0,0.0,0.0,-3.198,-3.1774,-3.0376,-2.9421,-2.8511,-2.7676,-2.6769,0.0,0.0,0.0,0.0,-2.67,-2.7495,-2.7956,-2.8053,-2.8799,-2.9328,-2.953,0.0,0.0,-2.8791,0.0,0.0,0.0,0.0,-2.6632,-2.6596,-2.709,-2.7111,-2.6773,-2.5975,-2.531,0.0,0.0,-2.3179,-2.2893,-2.262,-2.2622,-2.265,-2.2258,-2.2169,-2.2309,-2.275,-2.3027,-2.3433,-2.4425,-2.5119,-2.5521,-2.553,-2.6141,-2.648,-2.551,-2.551,-2.5662,0.0,0.0,0.0,0.0,0.0,0.0,0.0,0.0,0.0,-2.3484,-2.3755,-2.4019,-2.4358,-2.5277,0.0,-2.6634,0.0,0.0,0.0,-2.4035,-2.3635,-2.3052,-2.265,0.0,0.0,0.0,0.0,-1.9205,-1.9078,-1.8669,-1.7908,-1.7747,-1.73,-1.6578,-1.6156,-1.589,-1.5802,-1.6158,-1.6415,-1.66,-1.767,-1.845,-1.8965,-1.9313,-1.9932,-2.0728,-2.115,-2.1661,-2.2163,-2.2443,-2.2764,-2.3095,-3.0986,-3.1031,0.0,-3.0572,0.0,0.0,-3.1584,-3.267,0.0,-3.2587,-3.2847,0.0,-3.1062,-2.9867,-2.8783,-2.8073,-2.6885,0.0,-2.67,0.0,0.0,-2.7418,-2.794,-2.8325,-2.8697,-2.9211,0.0,-2.9699,0.0,0.0,-2.8302,0.0,0.0,0.0,0.0,-2.672,-2.6925,-2.7833,-2.7855,-2.7232,-2.6194,0.0,0.0,-2.3448,-2.2752,-2.2365,-2.2645,-2.2606,-2.2456,-2.2444,-2.2519,-2.2811,-2.3458,-2.3904,-2.4355,-2.5175,-2.5673,-2.5941,-2.5761,-2.6017,-2.6148,-2.5311,-2.5024,-2.5068,-2.5396,-2.4852,-2.4457,0.0,0.0,0.0,0.0,0.0,0.0,-2.3597,-2.418,-2.4658,-2.48,0.0,0.0,0.0,-2.615,0.0,0.0,-2.4298,-2.3885,-2.3836,0.0,0.0,0.0,0.0,0.0,-1.9428,-1.9491,-1.9161,-1.8333,-1.8221,-1.7797,-1.7089,-1.657,-1.625,-1.619,-1.6622,-1.694,-1.7139,-1.817,-1.8898,-1.9398,-1.9859,-2.0311,-2.086,-2.1339,-2.1957,-2.2579,-2.2694,-2.2935,-2.3188,-3.0986,-3.1278,0.0,0.0,0.0,0.0,0.0,-3.3836,0.0,-3.3482,0.0,-3.2982,-3.1864,-3.0065,-2.8913,-2.8758,0.0,-2.6557,-2.7458,-2.698,-2.7174,-2.8226,-2.8261,-2.8569,-2.9227,-2.9565,-2.9674,0.0,0.0,0.0,0.0,0.0,0.0,0.0,0.0,0.0,0.0,-2.8091,-2.8082,-2.7407,-2.6047,-2.5187,-2.4633,-2.3433,-2.2618,-2.2285,-2.298,-2.2811,-2.242,-2.304,-2.3314,-2.3551,-2.4221,-2.4908,-2.5453,-2.5673,-2.6065,-2.6303,-2.5836,-2.5712,-2.5672,-2.5339,-2.4665,-2.4443,-2.5754,-2.4958,-2.4353,-2.5798,-2.5763,0.0,0.0,0.0,0.0,-2.3872,-2.4346,0.0,0.0,0.0,0.0,0.0,0.0,0.0,0.0,0.0,0.0,0.0,0.0,0.0,0.0,0.0,0.0,0.0,-1.9797,0.0,-1.8878,0.0,-1.8135,-1.7516,-1.674,-1.6317,-1.6173,-1.6773,-1.7169,-1.7401,-1.8313,-1.9072,-1.9747,-2.0158,-2.0581,-2.0974,-2.1631,-2.2243,-2.2799,-2.2884,-2.308,-2.3369,-3.0986,0.0,0.0,0.0,0.0,-3.2763,-3.2763,-3.3576,-3.3604,-3.1842,-3.1795,-3.1538,-3.065,-2.9476,-2.8409,-2.7642,-2.7249,0.0,0.0,0.0,0.0,-2.7613,-2.7986,-2.8397,-2.8983,-2.9322,-2.9713,0.0,0.0,0.0,0.0,0.0,0.0,0.0,0.0,0.0,-2.7717,-2.7869,0.0,-2.764,-2.6775,-2.6115,-2.5555,-2.4728,-2.4111,-2.3682,-2.3787,-2.3433,-2.304,-2.3813,-2.4105,-2.4279,-2.5007,-2.5342,-2.5673,-2.6176,-2.6136,-2.5821,-2.5212,-2.5301,-2.5295,-2.4252,-2.4589,-2.5121,-2.4911,-2.4981,-2.5208,-2.549,-2.5798,-2.6079,-2.6168,0.0,0.0,0.0,0.0,0.0,0.0,0.0,0.0,0.0,0.0,-2.5717,0.0,0.0,0.0,0.0,0.0,0.0,0.0,0.0,0.0,0.0,0.0,0.0,0.0,0.0,0.0,-1.7828,-1.7173,-1.6912,-1.7014,-1.7162,-1.7436,-1.7758,-1.8712,-1.9376,-1.9914,-2.0379,-2.0975,-2.1661,-2.2049,-2.2409,-2.2738,-2.2849,-2.3218,-2.3649,-3.1365,0.0,0.0,0.0,0.0,0.0,0.0,-3.2267,0.0,-3.163,-3.1331,-3.0901,-2.9895,-2.9028,-2.8357,-2.7906,-2.7564,-2.7327,-2.7163,-2.733,-2.7536,-2.7802,-2.8131,-2.8596,-2.9161,-2.9209,-2.9411,-2.9808,0.0,0.0,-2.7783,0.0,0.0,0.0,0.0,-2.7057,0.0,0.0,0.0,-2.8124,-2.6791,-2.6117,-2.5805,-2.478,-2.4269,-2.4221,-2.4483,-2.4483,-2.4355,-2.4667,-2.4851,-2.5063,-2.5728,-2.5841,-2.5745,-2.6073,-2.5929,-2.5516,-2.4911,-2.5076,-2.5299,-2.4585,-2.471,-2.503,-2.5256,-2.5368,-2.5497,-2.5754,-2.6007,-2.622,-2.622,-2.622,0.0,0.0,0.0,0.0,0.0,0.0,-2.6622,0.0,0.0,0.0,0.0,0.0,0.0,0.0,0.0,0.0,0.0,0.0,0.0,0.0,0.0,0.0,0.0,0.0,0.0,-1.8043,-1.7393,-1.7144,-1.7199,-1.7462,-1.7774,-1.8226,-1.914,-1.9793,-2.0246,-2.0926,-2.1554,-2.2077,-2.2388,-2.2677,-2.2933,-2.3194,-2.3518,-2.3837,0.0,-3.2177,0.0,0.0,-3.2633,0.0,-3.0438,-3.082,-3.1368,-3.1313,-3.079,-3.0085,-2.9196,-2.8451,-2.802,-2.802,-2.7497,-2.721,-2.7406,-2.7749,-2.8011,-2.821,-2.8522,-2.892,-2.9304,-2.927,-2.9187,0.0,0.0,0.0,0.0,0.0,0.0,0.0,0.0,0.0,0.0,0.0,-2.765,-2.7956,-2.653,-2.5887,-2.5832,-2.4842,-2.4553,-2.4794,-2.5245,-2.5522,-2.5605,-2.537,-2.5521,-2.5849,-2.6088,-2.6068,-2.59,-2.5769,-2.5631,-2.5379,-2.4882,-2.5065,-2.5311,-2.5179,-2.5036,-2.5098,-2.5864,-2.5791,-2.5701,-2.6132,-2.622,-2.622,-2.622,-2.6274,0.0,0.0,0.0,0.0,0.0,0.0,0.0,0.0,0.0,0.0,-2.5893,0.0,0.0,0.0,0.0,0.0,0.0,0.0,0.0,0.0,0.0,0.0,-2.0109,0.0,-1.9431,0.0,-1.7652,-1.7393,-1.7475,-1.7787,-1.8187,-1.8693,-1.9615,-2.028,-2.0797,-2.1584,-2.2106,-2.2422,-2.2605,-2.291,-2.3236,-2.35,-2.3795,-2.4036,0.0,0.0,0.0,0.0,0.0,0.0,0.0,-3.0228,-3.0111,-2.9588,-2.9,-2.8582,-2.8477,-2.7484,-2.6831,-2.6831,-2.6321,-2.6317,-2.715,-2.7253,-2.7685,-2.8509,-2.8844,-2.9063,-2.9118,-2.938,-2.9302,0.0,0.0,-2.8619,0.0,0.0,0.0,0.0,0.0,0.0,0.0,-2.6076,-2.6104,-2.6146,-2.5965,-2.5978,-2.6087,-2.5962,-2.5988,-2.6111,-2.6165,-2.6258,-2.6318,-2.5721,-2.5945,-2.6256,-2.5271,-2.5668,-2.6321,-2.5697,-2.5455,-2.5407,-2.5346,-2.5284,-2.5233,-2.5362,-2.561,-2.5937,-2.6115,-2.6132,-2.6132,-2.6168,-2.622,-2.622,-2.622,-2.6452,-2.6657,0.0,0.0,0.0,0.0,0.0,-2.6644,-2.6359,0.0,0.0,0.0,0.0,0.0,0.0,0.0,0.0,0.0,0.0,0.0,-2.3999,0.0,-2.2118,-2.2995,-2.0533,0.0,-1.8745,-1.8068,-1.7948,-1.8383,-1.8422,-1.8693,-1.9169,-1.9919,-2.0732,-2.1538,-2.2032,-2.2405,-2.2659,-2.2685,-2.3042,-2.3544,-2.3588,-2.3855,-2.4209,0.0,0.0,0.0,0.0,0.0,0.0,0.0,-2.9555,-2.9346,-2.8412,-2.8066,-2.7745,-2.7392,-2.6648,-2.6227,-2.6466,-2.6255,-2.6339,-2.6862,-2.7074,-2.7366,-2.7735,-2.8477,-2.887,-2.887,-2.8993,-2.8942,0.0,0.0,0.0,0.0,0.0,0.0,0.0,0.0,-2.6863,-2.7523,-2.6821,-2.6778,-2.7074,-2.6422,-2.6179,-2.6233,-2.6233,-2.6326,-2.6418,-2.6418,-2.628,-2.6002,-2.5663,-2.5769,-2.5959,-2.5139,-2.5099,-2.5299,-2.5092,-2.5093,-2.5224,-2.5289,-2.5477,-2.5701,-2.5738,-2.5954,-2.6115,-2.6168,-2.622,-2.622,-2.622,-2.6364,-2.6521,-2.6521,-2.6758,-2.6989,0.0,0.0,0.0,0.0,0.0,0.0,-2.6308,0.0,-2.5763,0.0,0.0,0.0,0.0,0.0,0.0,0.0,0.0,0.0,-2.5406,0.0,-2.2244,-2.2907,-2.1091,-1.9752,-1.8988,-1.8461,-1.8305,-1.85,-1.8745,-1.9376,-2.0314,-2.083,-2.143,-2.2032,-2.2388,-2.2605,-2.2738,-2.3035,-2.333,-2.3566,-2.3774,-2.4019,-2.4284,-3.3547,0.0,-3.2643,0.0,-3.1327,-3.0727,-2.937,-2.9255,-2.8917,-2.7824,-2.7422,-2.711,-2.6757,-2.6153,-2.5919,-2.6163,-2.6002,-2.6096,-2.6557,-2.6809,-2.7069,-2.7367,-2.8064,0.0,-2.8422,-2.8422,-2.8338,-2.8141,-2.8338,0.0,0.0,0.0,0.0,0.0,-2.6792,-2.7145,-2.7935,-2.7159,-2.7087,-2.7442,-2.6643,-2.6326,-2.6379,-2.6379,-2.6418,-2.663,-2.6759,-2.6455,-2.5977,-2.5826,-2.5734,-2.5583,-2.4929,-2.4882,-2.4981,-2.4854,-2.508,-2.5362,-2.5422,-2.5754,-2.6063,-2.6063,-2.6115,-2.6154,-2.5938,-2.5889,-2.5907,-2.5995,-2.6455,-2.6858,-2.6873,-2.7164,-2.74,0.0,0.0,0.0,0.0,0.0,0.0,0.0,-2.5914,-2.5682,-2.5559,-2.6843,0.0,0.0,0.0,0.0,0.0,0.0,0.0,0.0,0.0,0.0,0.0,0.0,-2.0328,-1.9406,-1.9035,-1.8869,-1.9006,-1.9464,-2.0212,-2.1181,-2.1538,-2.1899,-2.231,-2.2579,-2.2764,-2.2876,-2.3324,-2.3558,-2.3692,-2.3978,-2.4192,-2.4371,-3.3879,-3.3879,-3.3683,-3.2901,-3.2338,-3.1509,-3.0007,-2.9348,-2.8751,-2.8067,-2.7115,-2.6572,-2.6654,-2.6194,-2.59,-2.59,-2.5358,-2.539,-2.6323,-2.6422,-2.6815,0.0,0.0,-2.779,-2.779,-2.779,-2.7481,-2.6835,0.0,0.0,-2.6125,0.0,0.0,-2.724,-2.6626,-2.6301,-2.6315,-2.6301,-2.6301,-2.6301,-2.6301,-2.6379,-2.651,-2.651,-2.6645,-2.6884,-2.7327,-2.7061,-2.6467,-2.6337,-2.5901,-2.528,-2.4533,-2.5082,-2.5869,-2.5259,-2.553,-2.599,-2.5974,-2.6079,-2.622,-2.622,-2.622,-2.6021,-2.5292,-2.5127,-2.5212,-2.5527,-2.6458,-2.7195,-2.7272,-2.7565,-2.78,-2.7869,0.0,0.0,0.0,0.0,0.0,-2.6271,-2.6892,-2.6765,-2.5172,0.0,0.0,0.0,0.0,0.0,0.0,0.0,0.0,-2.6485,-2.4593,0.0,-2.4683,-2.2095,-2.0579,-2.0174,-1.9773,-1.9808,-2.0208,-2.0731,-2.1213,-2.1582,-2.1751,-2.1991,-2.231,-2.2579,-2.285,-2.3116,-2.3394,-2.3685,-2.4016,-2.421,-2.4338,-2.4441,-3.3539,-3.3081,-3.2379,-3.1131,-3.0539,-2.998,-2.9059,-2.8986,-2.8766,-2.8181,-2.781,-2.7414,-2.7006,-2.5938,-2.5404,0.0,-2.5423,-2.5564,0.0,-2.6078,-2.6162,-2.6483,-2.6891,-2.7116,-2.7116,-2.7116,-2.7074,-2.6919,0.0,0.0,0.0,-2.654,-2.6737,-2.7434,-2.7124,-2.7211,-2.7583,-2.7265,-2.7147,-2.7104,-2.6794,-2.6855,-2.7159,-2.7159,-2.713,-2.7085,-2.7215,-2.6549,-2.565,-2.5987,-2.568,-2.5219,-2.5365,-2.5429,-2.5424,-2.5333,-2.5626,-2.6026,-2.6115,-2.6168,-2.622,-2.622,-2.5946,-2.5665,-2.543,-2.5122,-2.5088,-2.5754,-2.638,-2.6965,-2.7519,-2.7961,-2.8201,-2.8228,0.0,0.0,0.0,0.0,0.0,-2.6982,-2.6276,-2.5986,0.0,-2.7969,0.0,0.0,0.0,0.0,0.0,0.0,0.0,0.0,-2.531,0.0,-2.4626,-2.2813,-2.147,-2.0613,-2.0208,-2.0089,-2.028,-2.1023,-2.1446,-2.1612,-2.1974,-2.2321,-2.2579,-2.2876,-2.3133,-2.3394,-2.3602,-2.3917,-2.421,-2.4266,-2.4476,-2.4756,-3.2226,-3.1588,-3.096,-3.0258,-2.9967,-2.9606,-2.8961,-2.9,-2.8936,-2.8278,-2.8085,-2.7832,-2.7401,-2.6443,0.0,-2.5853,-2.5757,-2.5688,-2.5893,-2.6042,-2.6056,-2.5893,-2.6465,-2.6677,-2.6525,0.0,0.0,-2.6747,-2.6787,-2.7006,-2.7423,-2.678,-2.6862,-2.7491,-2.7238,-2.7305,-2.765,-2.7559,-2.7491,-2.7486,-2.71,-2.7121,-2.7357,-2.7116,-2.6912,-2.6857,-2.7025,-2.6401,-2.5581,-2.6093,-2.5901,-2.5492,-2.5844,-2.5754,-2.5589,-2.5626,-2.5828,-2.6079,-2.6168,-2.6005,-2.5789,-2.5912,-2.5497,-2.5036,-2.4904,-2.4729,-2.476,-2.5275,-2.6159,-2.697,-2.7512,-2.804,-2.8432,-2.8458,0.0,-2.8319,-2.7705,0.0,0.0,0.0,0.0,0.0,0.0,-2.8141,0.0,0.0,0.0,0.0,0.0,0.0,0.0,-2.7894,-2.5611,0.0,-2.4356,-2.3178,-2.2037,-2.099,-2.0763,-2.0698,-2.0781,-2.1446,-2.1853,-2.201,-2.2315,-2.2605,-2.2876,-2.3133,-2.3348,-2.3549,-2.3837,-2.4096,-2.4321,-2.4442,-2.4666,-2.4915,-3.0243,-2.9812,0.0,0.0,-3.0243,0.0,-2.9443,-2.9335,-2.9119,-2.8488,-2.8039,-2.784,-2.784,-2.7458,-2.7004,-2.6544,0.0,0.0,0.0,-2.6336,-2.6336,-2.5932,-2.64,0.0,-2.6108,-2.6215,-2.6283,-2.6379,-2.651,-2.6797,-2.7297,-2.6997,-2.7063,-2.7464,-2.7019,-2.6811,-2.6849,-2.7259,-2.743,-2.737,-2.7222,-2.7149,-2.7088,-2.6488,-2.6227,-2.6286,-2.6738,-2.6493,-2.6054,-2.6571,-2.6417,-2.601,-2.6026,-2.6115,-2.6168,-2.6063,-2.6115,-2.6203,-2.6154,-2.564,-2.5179,-2.5378,-2.4901,-2.4275,-2.3877,-2.4025,-2.429,-2.4392,-2.5825,-2.7094,-2.7283,-2.7915,-2.8464,-2.8587,-2.8533,-2.7972,-2.6493,0.0,0.0,0.0,0.0,0.0,0.0,-2.8153,-2.799,0.0,0.0,0.0,0.0,0.0,-2.8373,-2.6588,-2.5629,-2.4779,-2.4,-2.3272,-2.2371,-2.1309,-2.1386,-2.1462,-2.1538,-2.202,-2.2405,-2.2738,-2.2738,-2.2876,-2.3157,-2.3394,-2.3526,-2.3576,-2.4037,-2.4266,-2.4374,-2.4693,-2.485,-2.4968,0.0,0.0,-2.8704,-2.8858,-2.8458,-2.8227,-2.8596,-2.8642,-2.8581,-2.8427,-2.8314,-2.825,-2.825,-2.7875,-2.7365,-2.6728,-2.6725,-2.6607,-2.6076,-2.6638,-2.6696,-2.6061,-2.6184,-2.6148,-2.5856,-2.5856,-2.6228,-2.7056,-2.721,-2.7312,-2.7464,-2.7378,-2.7363,-2.7485,-2.7236,-2.7106,-2.7076,-2.667,-2.6504,-2.6489,-2.6474,-2.6653,-2.6933,-2.6776,-2.6688,-2.659,-2.6712,-2.6308,-2.5832,-2.6031,-2.6065,-2.6026,-2.6115,-2.6168,-2.6168,-2.6168,-2.6168,-2.6087,-2.5524,-2.538,-2.5295,-2.4801,-2.4452,-2.4138,-2.3737,-2.372,-2.3927,-2.4587,-2.5152,-2.5894,-2.7085,-2.7513,-2.7881,-2.8496,-2.8062,-2.7562,-2.7182,-2.6602,0.0,0.0,-2.7127,-2.7435,-2.8225,-2.8478,-2.8703,0.0,0.0,0.0,0.0,0.0,-2.8401,-2.6792,-2.5915,-2.5011,-2.4,-2.3272,-2.2371,-2.1309,-2.1631,-2.1777,-2.1816,-2.2281,-2.2677,-2.301,-2.301,-2.3157,-2.3394,-2.3463,-2.3667,-2.3961,-2.4154,-2.4408,-2.47,-2.4766,-2.4968,-2.5222,-2.8504,-2.8196,-2.8042,-2.835,-2.8104,-2.798,-2.835,-2.8411,-2.8411,-2.8411,-2.8411,-2.8336,-2.8092,-2.7904,-2.7532,-2.6873,-2.6741,-2.64,-2.5834,-2.6277,-2.6404,-2.592,-2.6174,-2.6189,-2.5916,-2.5916,-2.6225,-2.6811,-2.6859,-2.7003,-2.7224,-2.7003,-2.7003,-2.7209,-2.6903,-2.6734,-2.6719,-2.6576,-2.651,-2.6523,-2.6459,-2.6588,-2.6764,-2.6429,-2.6254,-2.6199,-2.6221,-2.6059,-2.5791,-2.5917,-2.599,-2.6066,-2.5771,-2.5794,-2.5814,-2.548,-2.5614,-2.5748,-2.511,-2.4828,-2.4522,-2.3973,-2.3885,-2.3874,-2.3719,-2.3696,-2.3804,-2.4266,-2.4689,-2.5253,-2.6085,-2.6579,-2.7001,-2.7435,-2.7145,-2.6729,-2.6349,-2.624,0.0,-2.6801,-2.7182,-2.7725,-2.8515,-2.8587,-2.8648,-2.8703,0.0,0.0,-2.7887,-2.813,-2.7752,-2.6619,-2.6065,-2.5096,-2.3692,-2.2969,-2.2341,-2.1811,-2.2164,-2.2313,-2.2231,-2.2643,-2.2993,-2.3277,-2.3277,-2.3417,-2.3642,-2.3732,-2.3899,-2.4117,-2.4372,-2.4604,-2.4818,-2.4956,-2.513,-2.5303,-2.698,-2.7088,-2.7257,-2.7842,-2.7934,-2.798,-2.8088,-2.8104,-2.8104,-2.8104,-2.8136,-2.8015,-2.7595,-2.7562,-2.7371,-2.6898,-2.6382,-2.5908,-2.5528,-2.591,-2.6046,-2.5758,-2.6222,-2.6326,-2.5954,-2.6104,-2.6195,-2.6303,-2.6303,-2.651,-2.6887,-2.651,-2.651,-2.6887,-2.6461,-2.6298,-2.6282,-2.6592,-2.6714,-2.6709,-2.6591,-2.6523,-2.6474,-2.5843,-2.5616,-2.5637,-2.568,-2.5791,-2.5917,-2.599,-2.5997,-2.5938,-2.5327,-2.523,-2.519,-2.4554,-2.4822,-2.521,-2.4756,-2.4132,-2.3571,-2.3323,-2.3453,-2.3652,-2.3783,-2.3804,-2.3807,-2.3795,-2.4339,-2.4864,-2.4972,-2.557,-2.6113,-2.6349,-2.6186,-2.5823,-2.5306,0.0,-2.625,-2.625,-2.7066,-2.784,-2.8377,-2.8406,-2.808,-2.729,-2.7845,0.0,0.0,-2.6742,-2.6798,-2.6142,-2.5889,-2.4947,-2.3243,-2.2664,-2.2385,-2.2463,-2.2764,-2.284,-2.2712,-2.3017,-2.3301,-2.3549,-2.3549,-2.3664,-2.3858,-2.4039,-2.4154,-2.4229,-2.4636,-2.4814,-2.4896,-2.5182,-2.5303,-2.5359,-2.5733,-2.5641,-2.5672,-2.578,-2.5795,-2.5995,-2.6611,-2.6703,-2.6703,-2.6703,-2.6884,-2.6927,-2.6847,-2.7008,-2.6839,-2.623,-2.6078,-2.5967,-2.59,-2.6491,-2.6596,-2.6,-2.6026,-2.5968,-2.5683,-2.5895,-2.6277,-2.68,-2.68,-2.6844,-2.6887,-2.6816,-2.6844,-2.6898,-2.6709,-2.6631,-2.6599,-2.6028,-2.5809,-2.5809,-2.5788,-2.5778,-2.5778,-2.5664,-2.5637,-2.5701,-2.5701,-2.5811,-2.599,-2.599,-2.5667,-2.5294,-2.5397,-2.5039,-2.4537,-2.4306,-2.4303,-2.4301,-2.3971,-2.3571,-2.3323,-2.3494,-2.3611,-2.37,-2.3783,-2.3804,-2.3807,-2.3795,-2.3886,-2.4194,-2.4864,-2.5099,-2.5624,-2.7001,-2.6077,-2.5437,-2.6179,0.0,-2.6515,-2.6457,-2.7816,-2.8438,-2.7677,-2.7598,-2.7254,-2.6457,-2.6512,-2.6475,-2.6199,-2.6242,-2.5937,-2.5236,-2.4832,-2.4077,-2.2886,-2.2773,-2.2721,-2.2738,-2.2848,-2.2996,-2.3206,-2.3353,-2.3553,-2.3753,-2.3753,-2.3878,-2.4058,-2.4097,-2.4301,-2.462,-2.476,-2.4949,-2.5143,-2.5264,-2.5374,-2.5473,-2.4302,-2.4518,-2.4779,-2.4779,-2.5072,-2.5426,-2.5764,-2.6134,-2.638,-2.6349,-2.6454,-2.6419,-2.6193,-2.6329,-2.624,-2.5664,-2.5735,-2.5774,-2.5774,-2.5958,-2.599,-2.579,-2.5774,-2.5735,-2.5584,-2.5703,-2.5918,-2.6182,-2.6182,-2.6182,-2.6182,-2.6182,-2.6182,-2.6222,-2.6131,-2.6118,-2.6102,-2.5745,-2.5616,-2.5616,-2.5621,-2.5659,-2.5659,-2.5749,-2.577,-2.5742,-2.5406,-2.5346,-2.5368,-2.5196,-2.4946,-2.4693,-2.4567,-2.4401,-2.4188,-2.3737,-2.3703,-2.3777,-2.3618,-2.3512,-2.3435,-2.3611,-2.37,-2.3765,-2.3789,-2.381,-2.3792,-2.3795,-2.3795,-2.3946,-2.4431,-2.4525,-2.4785,-2.5638,-2.5082,0.0,0.0,-2.5621,-2.5855,-2.571,-2.6838,-2.7423,-2.6807,-2.6765,-2.6602,-2.624,-2.6204,-2.6023,-2.5588,-2.5529,-2.5145,-2.4389,-2.3998,-2.3637,-2.3289,-2.3135,-2.3087,-2.3146,-2.33,-2.3387,-2.3405,-2.371,-2.3816,-2.3816,-2.404,-2.4117,-2.4116,-2.4338,-2.4524,-2.4727,-2.4936,-2.5096,-2.5225,-2.5354,-2.5446,-2.5504,-2.3271,-2.3717,-2.4117,-2.4271,-2.4733,-2.5087,-2.5087,-2.5549,-2.5841,-2.5641,-2.57,-2.5582,-2.5108,-2.5217,-2.5218,-2.4922,-2.504,-2.5114,-2.5114,-2.511,-2.5271,-2.5616,-2.5616,-2.5616,-2.5616,-2.5616,-2.5535,-2.5341,-2.5535,-2.5519,-2.5357,-2.5535,-2.5616,-2.5616,-2.5616,-2.5616,-2.5616,-2.5616,-2.5616,-2.5637,-2.568,-2.5603,-2.5493,-2.5599,-2.5707,-2.57,-2.4992,-2.4929,-2.508,-2.4633,-2.4384,-2.419,-2.3926,-2.3876,-2.3849,-2.3327,-2.3336,-2.3517,-2.3517,-2.3585,-2.3629,-2.3718,-2.3765,-2.3789,-2.3795,-2.3795,-2.3795,-2.3795,-2.3837,-2.3919,-2.4078,-2.4116,-2.4228,-2.4614,0.0,0.0,0.0,-2.5059,-2.5369,-2.5226,-2.6066,-2.6489,-2.6111,-2.6071,-2.598,-2.5798,-2.5779,-2.5485,-2.4841,-2.4784,-2.4493,-2.3813,-2.3558,-2.3508,-2.3725,-2.3518,-2.3432,-2.3508,-2.371,-2.371,-2.3576,-2.3939,-2.4019,-2.3899,-2.4247,-2.4337,-2.4247,-2.4578,-2.4749,-2.4836,-2.5096,-2.5225,-2.5292,-2.5441,-2.551,-2.5571,-2.3179,-2.3332,-2.3579,-2.4194,-2.4348,-2.4379,-2.4379,-2.4425,-2.4241,-2.3594,-2.3677,-2.3623,-2.3159,-2.3299,-2.3462,-2.3606,-2.364,-2.3659,-2.3659,-2.4223,-2.4887,-2.5584,-2.5616,-2.5616,-2.5616,-2.5616,-2.5276,-2.4563,-2.5276,-2.526,-2.4596,-2.5292,-2.5616,-2.5616,-2.5616,-2.5616,-2.5616,-2.5616,-2.5637,-2.5701,-2.5701,-2.5383,-2.4882,-2.4882,-2.5092,-2.5346,-2.4624,-2.5028,-2.5798,-2.5026,-2.4333,-2.3788,-2.4086,-2.3701,-2.3214,-2.3401,-2.3539,-2.3585,-2.3585,-2.3652,-2.37,-2.3783,-2.3789,-2.3795,-2.3795,-2.3795,-2.3795,-2.3795,-2.3959,-2.4079,-2.4097,-2.4116,-2.4412,-2.5356,0.0,0.0,-2.5624,-2.5822,-2.586,-2.5828,-2.6556,-2.6691,-2.5727,-2.5634,-2.5338,-2.4596,-2.454,-2.4432,-2.4189,-2.4169,-2.4054,-2.3816,-2.3774,-2.3774,-2.3795,-2.3774,-2.3774,-2.3774,-2.3795,-2.3795,-2.3795,-2.3981,-2.4097,-2.4097,-2.4301,-2.4493,-2.466,-2.4692,-2.4888,-2.516,-2.5182,-2.5301,-2.5486,-2.5498,-2.5576,-2.5695,-2.1399,-2.146,-2.1501,-2.1763,-2.2147,-2.2424,-2.2424,-2.2778,-2.3002,-2.2886,-2.2932,-2.2936,-2.2859,-2.3024,-2.3167,-2.3253,-2.3393,-2.3513,-2.3513,-2.3756,-2.4385,-2.5567,-2.5616,-2.5616,-2.5616,-2.5146,-2.4774,-2.4482,-2.4353,-2.4142,-2.3902,-2.4159,-2.4288,-2.4288,-2.4288,-2.4324,-2.4343,-2.4343,-2.4398,-2.4435,-2.4505,-2.4512,-2.4497,-2.4529,-2.477,-2.4931,-2.4211,-2.4196,-2.4505,-2.3944,-2.3545,-2.3379,-2.3664,-2.359,-2.3448,-2.3567,-2.3634,-2.3674,-2.3718,-2.3739,-2.3783,-2.3804,-2.381,-2.3795,-2.3795,-2.3795,-2.3837,-2.3959,-2.4058,-2.4192,-2.4425,-2.4459,-2.4638,-2.5152,0.0,-2.4622,-2.5089,-2.5161,-2.511,-2.4976,-2.534,-2.5415,-2.4908,-2.4872,-2.4724,-2.4408,-2.4389,-2.4372,-2.4284,-2.4284,-2.4192,-2.3981,-2.3999,-2.3939,-2.3795,-2.3795,-2.3795,-2.3795,-2.3939,-2.3999,-2.3999,-2.4319,-2.4408,-2.4301,-2.4642,-2.4753,-2.4704,-2.4883,-2.5049,-2.5203,-2.5337,-2.5432,-2.5504,-2.5581,-2.5663,-2.5699,-2.0582,-2.0613,-2.069,-2.0905,-2.1322,-2.1593,-2.1593,-2.1993,-2.2262,-2.2211,-2.218,-2.216,-2.2106,-2.2251,-2.2391,-2.246,-2.2681,-2.2798,-2.2798,-2.3009,-2.3673,-2.4887,-2.4936,-2.4936,-2.4936,-2.4434,-2.4061,-2.3835,-2.3592,-2.3383,-2.3173,-2.34,-2.3513,-2.3531,-2.3531,-2.3565,-2.3617,-2.3617,-2.3685,-2.3736,-2.3786,-2.3866,-2.3981,-2.4042,-2.4296,-2.4538,-2.3786,-2.3736,-2.3929,-2.3397,-2.3217,-2.3265,-2.3471,-2.3585,-2.3652,-2.37,-2.3721,-2.3765,-2.3852,-2.3894,-2.3873,-2.3828,-2.3855,-2.3881,-2.3881,-2.3941,-2.402,-2.4155,-2.4229,-2.4373,-2.4642,-2.4707,-2.4772,-2.4983,-2.4832,-2.4723,-2.4802,-2.4783,-2.4738,-2.4591,-2.4723,-2.4738,-2.4591,-2.4591,-2.4591,-2.4591,-2.4591,-2.4559,-2.4493,-2.4424,-2.4337,-2.4192,-2.4192,-2.4117,-2.3981,-2.3939,-2.3881,-2.3899,-2.4098,-2.4192,-2.4192,-2.4561,-2.4626,-2.451,-2.487,-2.4953,-2.4842,-2.5065,-2.5215,-2.5302,-2.5459,-2.5523,-2.5576,-2.5667,-2.5699,-2.5699,-2.1183,-2.1306,-2.1486,-2.2147,-2.227,-2.227,-2.227,-2.227,-2.204,-2.1399,-2.1306,-2.108,-2.0556,-2.0695,-2.0893,-2.1087,-2.1214,-2.1309,-2.1309,-2.1989,-2.2701,-2.3464,-2.3497,-2.3513,-2.3513,-2.3497,-2.3122,-2.2394,-2.314,-2.3124,-2.241,-2.3156,-2.3515,-2.3567,-2.3567,-2.3635,-2.3686,-2.3686,-2.3753,-2.3803,-2.3803,-2.3582,-2.3308,-2.3308,-2.3698,-2.4198,-2.3383,-2.3802,-2.4569,-2.3784,-2.3494,-2.3517,-2.3585,-2.3652,-2.3721,-2.3783,-2.3804,-2.385,-2.4039,-2.4116,-2.404,-2.3858,-2.3941,-2.4098,-2.4098,-2.4247,-2.4389,-2.4407,-2.4559,-2.4707,-2.4707,-2.4707,-2.4768,-2.4964,-2.4832,-2.4768,-2.4964,-2.501,-2.501,-2.501,-2.501,-2.501,-2.501,-2.501,-2.501,-2.501,-2.501,-2.4922,-2.4707,-2.451,-2.4407,-2.4407,-2.4407,-2.4407,-2.4407,-2.4192,-2.4098,-2.4098,-2.4301,-2.4407,-2.4407,-2.461,-2.4707,-2.4723,-2.498,-2.5111,-2.5122,-2.5253,-2.5374,-2.5499,-2.5499,-2.5585,-2.5699,-2.5699,-2.5699,-2.5703,-2.0566,-2.0613,-2.0674,-2.0875,-2.0905,-2.0905,-2.0905,-2.0905,-2.0899,-2.0923,-2.0942,-2.0998,-2.1038,-2.1119,-2.1199,-2.123,-2.1277,-2.1309,-2.1309,-2.1519,-2.173,-2.1956,-2.2928,-2.3513,-2.3513,-2.2977,-2.2604,-2.2394,-2.2102,-2.1875,-2.168,-2.1939,-2.2085,-2.2196,-2.2196,-2.2243,-2.2289,-2.2518,-2.2605,-2.2694,-2.2926,-2.3086,-2.318,-2.318,-2.3385,-2.3703,-2.3472,-2.359,-2.3838,-2.3651,-2.3562,-2.3585,-2.3696,-2.3761,-2.3765,-2.3792,-2.3792,-2.3855,-2.4058,-2.4116,-2.4117,-2.4211,-2.4265,-2.4301,-2.4301,-2.4355,-2.4441,-2.4594,-2.4657,-2.4738,-2.4875,-2.4922,-2.4936,-2.4996,-2.495,-2.4936,-2.4996,-2.501,-2.501,-2.501,-2.501,-2.501,-2.501,-2.501,-2.501,-2.501,-2.501,-2.4922,-2.4707,-2.4768,-2.4753,-2.461,-2.461,-2.461,-2.461,-2.4407,-2.4301,-2.4319,-2.451,-2.461,-2.4626,-2.4832,-2.4922,-2.4922,-2.5043,-2.5099,-2.5113,-2.5354,-2.5466,-2.5505,-2.5595,-2.5663,-2.5699,-2.5699,-2.5694,-2.5612,-2.0304,-2.0304,-2.0304,-2.0304,-2.0304,-2.0304,-2.0304,-2.0304,-2.0407,-2.0662,-2.0695,-2.0794,-2.1055,-2.1183,-2.1214,-2.1214,-2.1262,-2.1309,-2.1309,-2.1309,-2.1309,-2.1309,-2.2151,-2.262,-2.262,-2.2183,-2.1956,-2.1956,-2.1535,-2.134,-2.1386,-2.1386,-2.1495,-2.1634,-2.1634,-2.1664,-2.1768,-2.2027,-2.2164,-2.222,-2.2581,-2.2859,-2.3095,-2.3095,-2.3265,-2.3494,-2.3494,-2.3517,-2.3539,-2.3603,-2.3629,-2.3696,-2.3783,-2.385,-2.3935,-2.3919,-2.3981,-2.4079,-2.4265,-2.4338,-2.4391,-2.4575,-2.4575,-2.4526,-2.4526,-2.4575,-2.4673,-2.4783,-2.4817,-2.4846,-2.4983,-2.501,-2.501,-2.501,-2.501,-2.501,-2.501,-2.501,-2.501,-2.501,-2.501,-2.501,-2.501,-2.501,-2.501,-2.501,-2.501,-2.495,-2.4832,-2.4936,-2.4936,-2.4832,-2.4817,-2.4817,-2.4817,-2.4689,-2.4591,-2.4526,-2.4723,-2.4817,-2.4832,-2.4959,-2.5044,-2.5057,-2.5171,-2.5226,-2.5245,-2.5453,-2.5554,-2.559,-2.5667,-2.5707,-2.5697,-2.5697,-2.5478,-2.5104,-2.0304,-2.0304,-2.0304,-2.0304,-2.0304,-2.0304,-2.0304,-2.0304,-2.0339,-2.0494,-2.0494,-2.0595,-2.0794,-2.099,-2.1087,-2.1135,-2.123,-2.1309,-2.1309,-2.1309,-2.1309,-2.1309,-2.1309,-2.1309,-2.1309,-2.1309,-2.1309,-2.1309,-2.1309,-2.134,-2.1386,-2.1386,-2.1526,-2.1694,-2.1694,-2.1738,-2.184,-2.2124,-2.2248,-2.2303,-2.2634,-2.291,-2.3144,-2.3144,-2.3289,-2.3494,-2.3494,-2.3539,-2.3607,-2.3629,-2.3721,-2.3828,-2.385,-2.3978,-2.4135,-2.4135,-2.4247,-2.4441,-2.4642,-2.4707,-2.4738,-2.495,-2.4861,-2.4723,-2.4723,-2.4861,-2.501,-2.501,-2.501,-2.501,-2.501,-2.501,-2.501,-2.501,-2.501,-2.501,-2.501,-2.501,-2.501,-2.501,-2.501,-2.501,-2.501,-2.501,-2.501,-2.501,-2.501,-2.501,-2.501,-2.501,-2.501,-2.501,-2.501,-2.501,-2.501,-2.501,-2.4908,-2.4723,-2.4922,-2.501,-2.5004,-2.5063,-2.5094,-2.5118,-2.5322,-2.5395,-2.542,-2.5546,-2.5643,-2.5699,-2.5703,-2.5701,-2.5698,-2.5701,-2.5203,-2.4509,-2.0304,-2.0304,-2.0304,-2.0304,-2.0304,-2.0304,-2.0304,-2.0304,-2.0339,-2.0494,-2.0494,-2.0628,-2.1006,-2.1055,-2.1135,-2.1262,-2.1277,-2.1309,-2.1309,-2.1309,-2.1309,-2.1309,-2.1309,-2.1309,-2.1309,-2.1309,-2.1309,-2.1309,-2.1309,-2.134,-2.1386,-2.1386,-2.1526,-2.1694,-2.1694,-2.184,-2.2124,-2.2473,-2.2712,-2.2935,-2.3199,-2.336,-2.3407,-2.3407,-2.3448,-2.3494,-2.3494,-2.3539,-2.3629,-2.3837,-2.3979,-2.4058,-2.4229,-2.4301,-2.4337,-2.4337,-2.4372,-2.4441,-2.4642,-2.4707,-2.4738,-2.495,-2.4983,-2.4936,-2.4936,-2.4964,-2.501,-2.501,-2.501,-2.501,-2.501,-2.501,-2.501,-2.501,-2.501,-2.501,-2.501,-2.501,-2.501,-2.501,-2.501,-2.501,-2.501,-2.501,-2.501,-2.501,-2.501,-2.501,-2.501,-2.501,-2.501,-2.501,-2.501,-2.501,-2.501,-2.501,-2.4983,-2.4936,-2.4983,-2.5031,-2.5076,-2.5101,-2.513,-2.519,-2.5346,-2.5406,-2.5401,-2.56,-2.5695,-2.5703,-2.5704,-2.5696,-2.5701,-2.5694,-2.5584,-2.5312,-2.0304,-2.0304,-2.0304,-2.0304,-2.0304,-2.0304,-2.0304,-2.0304,-2.0339,-2.0494,-2.0494,-2.0628,-2.0925,-2.1023,-2.1151,-2.1294,-2.1309,-2.1309,-2.1309,-2.1309,-2.1309,-2.1309,-2.1309,-2.1309,-2.1309,-2.1309,-2.1309,-2.1309,-2.1309,-2.134,-2.1386,-2.1464,-2.1573,-2.1694,-2.1738,-2.1928,-2.222,-2.2554,-2.2859,-2.3102,-2.3383,-2.3494,-2.3494,-2.3494,-2.3494,-2.3494,-2.3494,-2.3562,-2.3678,-2.3858,-2.3921,-2.3981,-2.4192,-2.4319,-2.4407,-2.451,-2.4626,-2.4704,-2.4798,-2.4846,-2.4861,-2.4964,-2.501,-2.501,-2.501,-2.501,-2.501,-2.501,-2.501,-2.501,-2.501,-2.501,-2.501,-2.501,-2.501,-2.501,-2.501,-2.501,-2.501,-2.501,-2.501,-2.501,-2.501,-2.501,-2.501,-2.501,-2.501,-2.501,-2.501,-2.501,-2.501,-2.501,-2.501,-2.501,-2.501,-2.5031,-2.5057,-2.5057,-2.5057,-2.5082,-2.5094,-2.519,-2.5264,-2.5303,-2.5439,-2.5492,-2.5504,-2.5636,-2.5701,-2.5704,-2.5705,-2.5694,-2.5699,-2.5702,-2.5449,-2.4955,-2.0304,-2.0304,-2.0304,-2.0304,-2.0304,-2.0304,-2.0304,-2.0304,-2.0339,-2.046,-2.046,-2.0561,-2.0794,-2.099,-2.1199,-2.1277,-2.1309,-2.1309,-2.1309,-2.1309,-2.1309,-2.1309,-2.1309,-2.1309,-2.1309,-2.1309,-2.1309,-2.1309,-2.1309,-2.134,-2.1386,-2.1556,-2.1694,-2.1768,-2.1869,-2.2068,-2.2358,-2.266,-2.291,-2.3193,-2.3407,-2.3494,-2.3494,-2.3494,-2.3494,-2.3494,-2.3494,-2.3611,-2.3786,-2.3858,-2.3921,-2.3981,-2.4192,-2.4355,-2.4543,-2.4707,-2.4861,-2.501,-2.501,-2.501,-2.501,-2.501,-2.501,-2.501,-2.501,-2.501,-2.501,-2.501,-2.501,-2.501,-2.501,-2.501,-2.501,-2.501,-2.501,-2.501,-2.501,-2.501,-2.501,-2.501,-2.501,-2.501,-2.501,-2.501,-2.501,-2.501,-2.501,-2.501,-2.501,-2.5004,-2.5023,-2.5023,-2.5031,-2.5044,-2.5044,-2.5101,-2.5118,-2.5118,-2.513,-2.5141,-2.5141,-2.5322,-2.541,-2.5426,-2.5549,-2.5591,-2.56,-2.5665,-2.5701,-2.5705,-2.5699,-2.5703,-2.5702,-2.5702,-2.515,-2.43,-2.0304,-2.0304,-2.0304,-2.0304,-2.0304,-2.0304,-2.0304,-2.0304,-2.0304,-2.0339,-2.0339,-2.0441,-2.0761,-2.1087,-2.1277,-2.1309,-2.1309,-2.1309,-2.1309,-2.1309,-2.1309,-2.1309,-2.1309,-2.1309,-2.1309,-2.1309,-2.1309,-2.1309,-2.1309,-2.134,-2.1417,-2.1721,-2.1928,-2.2068,-2.2286,-2.2599,-2.2977,-2.3028,-2.3217,-2.3448,-2.3494,-2.3494,-2.3494,-2.3494,-2.3494,-2.3494,-2.3494,-2.37,-2.3996,-2.4155,-2.4389,-2.461,-2.4798,-2.4908,-2.4922,-2.495,-2.4983,-2.501,-2.501,-2.501,-2.501,-2.501,-2.501,-2.501,-2.501,-2.501,-2.501,-2.501,-2.501,-2.501,-2.501,-2.501,-2.501,-2.501,-2.501,-2.501,-2.501,-2.501,-2.501,-2.501,-2.501,-2.501,-2.501,-2.501,-2.501,-2.501,-2.501,-2.501,-2.501,-2.5038,-2.5088,-2.5088,-2.5134,-2.5179,-2.5179,-2.519,-2.519,-2.519,-2.5254,-2.5265,-2.5284,-2.5357,-2.5434,-2.5492,-2.5565,-2.5604,-2.5609,-2.5673,-2.5709,-2.5699,-2.5703,-2.5703,-2.5702,-2.5694,-2.5143,-2.4376,-2.0304,-2.0304,-2.0304,-2.0304,-2.0304,-2.0304,-2.0304,-2.0304,-2.0304,-2.0304,-2.0304,-2.0373,-2.0595,-2.0958,-2.1214,-2.1277,-2.1309,-2.1309,-2.1309,-2.1309,-2.1309,-2.1309,-2.1309,-2.1371,-2.1526,-2.1526,-2.1601,-2.1807,-2.1675,-2.1661,-2.1691,-2.2051,-2.2275,-2.2313,-2.2537,-2.279,-2.3095,-2.3095,-2.3265,-2.3494,-2.3494,-2.3494,-2.3494,-2.3494,-2.3494,-2.3499,-2.3638,-2.3771,-2.3937,-2.4173,-2.4338,-2.4513,-2.4711,-2.4802,-2.4846,-2.4983,-2.501,-2.501,-2.501,-2.501,-2.501,-2.501,-2.501,-2.501,-2.501,-2.501,-2.501,-2.501,-2.501,-2.501,-2.501,-2.501,-2.501,-2.501,-2.501,-2.501,-2.501,-2.501,-2.501,-2.501,-2.501,-2.5004,-2.5057,-2.507,-2.5076,-2.5106,-2.5118,-2.5118,-2.5118,-2.5153,-2.5164,-2.5164,-2.5171,-2.5192,-2.5192,-2.5244,-2.5264,-2.5264,-2.5359,-2.5376,-2.5302,-2.5441,-2.5538,-2.5564,-2.5628,-2.5662,-2.5651,-2.5696,-2.5702,-2.5703,-2.57,-2.5696,-2.5694,-2.5657,-2.508,-2.4336]}]]